     2.11           OBSERVATION DATA    G (GPS)             RINEX VERSION / TYPE
teqc 2010Oct21 OPUS Account 20111029 19:14:26UTC            PGM / RUN BY / DATE
Y 1521                                                      MARKER NAME
1154                                                        MARKER NUMBER
CSMIDDLETON NGS                                             OBSERVER / AGENCY
0220320139 TRIMBLE 5700 2.01                                REC # / TYPE / VERS
12696910 TRM41249.00 NONE                                   ANT # / TYPE
  -738720.3556 -5485922.3372  3158180.7145                  APPROX POSITION XYZ
        2.0000        0.0000        0.0000                  ANTENNA: DELTA H/E/N
     1     1                                                WAVELENGTH FACT L1/2
     5    L1    L2    C1    P1    P2                        # / TYPES OF OBSERV
    15                                                      LEAP SECONDS
  2011     9    24     0     0   30.0000000     GPS         TIME OF FIRST OBS
                                                            END OF HEADER
 11  9 24  0  0 30.0000000  0  9G12G02G29G30G25G15G05G10G26
 -25893788.23457 -20162676.56656  21822058.0084                   21822058.5744
 -30351329.74657 -23642035.78956  21769006.3754                   21769005.3714
 -15713621.17257 -12232090.98855  22389981.4774                   22389982.5664
 -12111603.02357  -9424020.82855  22757498.2894                   22757499.9064
 -22949373.84058 -17867641.27356  21656945.0394                   21656947.5704
  -1180746.87956   -912460.82853  24522554.8054                   24522560.5004
 -31346672.84457 -24411071.12157  20478766.1954                   20478765.5514
 -16741681.79356 -13038051.44153  23956745.1564                   23956747.8834
  -8577220.40257  -6675777.65654  23585583.3674                   23585586.8984
 11  9 24  0  1  0.0000000  0  9G12G02G29G30G25G15G05G10G26
 -25844552.62947 -20124311.19946  21831427.3754                   21831427.8364
 -30332429.53947 -23627308.34446  21772602.7194                   21772601.8914
 -15816264.00047 -12312072.34845  22370448.6254                   22370450.1764
 -12159619.57047  -9461436.25445  22748361.1804                   22748362.2814
 -22956159.85548 -17872929.07446  21655653.5164                   21655656.6094
  -1298868.84046  -1004503.48443  24500076.6644                   24500082.5634
 -31340197.60548 -24406025.46547  20479998.5084                   20479998.0394
 -16657396.93046 -12972374.97743  23972784.2734                   23972787.0664
  -8694659.56647  -6767288.53944  23563235.3754                   23563239.1724
 11  9 24  0  1 30.0000000  0  9G12G02G29G30G25G15G05G10G26
 -25794917.71148 -20085634.66846  21840872.5784                   21840873.4774
 -30313409.26647 -23612487.33246  21776222.4224                   21776220.7734
 -15918765.85247 -12391943.85945  22350943.2194                   22350944.3094
 -12207031.14847  -9498380.28145  22739339.3984                   22739340.6884
 -22962360.50048 -17877760.71146  21654473.5314                   21654476.2344
  -1417064.22746  -1096603.36743  24477583.8284                   24477588.7974
 -31333195.89148 -24400569.56647  20481331.2734                   20481330.3754
 -16572965.72745 -12906584.55143  23988850.5864                   23988853.3834
  -8811964.23447  -6858694.61344  23540912.9454                   23540917.0514
 11  9 24  0  2  0.0000000  0  9G12G02G29G30G25G15G05G10G26
 -25744885.86347 -20046648.85246  21850393.4534                   21850393.5784
 -30294268.65247 -23597572.56246  21779864.7734                   21779863.5784
 -16021124.46547 -12471703.76245  22331464.9224                   22331465.7194
 -12253837.03547  -9534852.34445  22730432.4064                   22730433.4884
 -22967976.55548 -17882136.83646  21653404.8444                   21653407.4344
  -1535330.27346  -1188758.32043  24455077.9614                   24455083.4144
 -31325668.72348 -24394704.23847  20482763.2344                   20482762.6174
 -16488390.60946 -12840681.96143  24004945.1024                   24004947.4774
  -8929130.42247  -6949992.77744  23518617.1094                   23518619.9144
 11  9 24  0  2 30.0000000  0  9G12G02G29G30G25G15G05G10G26
 -25694459.63348 -20007355.72346  21859989.3914                   21859989.8874
 -30275007.60547 -23582563.96146  21783530.3834                   21783528.5314
 -16123337.86347 -12551350.51246  22312014.4774                   22312014.9454
 -12300036.67647  -9570852.00445  22721640.0784                   22721642.2274
 -22973009.00848 -17886058.21146  21652447.2974                   21652450.5004
  -1653664.33646  -1280966.22343  24432560.8524                   24432565.8634
 -31317618.13748 -24388431.03947  20484295.1724                   20484294.5514
 -16403673.99246 -12774669.05543  24021066.1414                   24021068.9224
  -9046154.66847  -7041180.30144  23496347.7664                   23496350.5394
 11  9 24  0  3  0.0000000  0  9G12G02G29G30G25G15G05G10G26
 -25643642.59848 -19967758.05946  21869659.8204                   21869660.1884
 -30255627.23847 -23567462.35946  21787217.7814                   21787216.4964
 -16225404.40247 -12630882.82446  22292592.0394                   22292592.6454
 -12345630.35247  -9606379.49644  22712964.5944                   22712965.4694
 -22977459.62148 -17889526.19546  21651600.2504                   21651603.1454
  -1772064.29746  -1373225.57443  24410028.3754                   24410034.7544
 -31309046.24248 -24381751.62947  20485926.6334                   20485925.5984
 -16318819.04346 -12708548.40243  24037213.9694                   24037216.2304
  -9163033.96547  -7132254.93744  23474106.4224                   23474109.5904
 11  9 24  0  3 30.0000000  0  9G12G02G29G30G25G15G05G10G26
 -25592437.45348 -19927857.98846  21879403.6564                   21879404.5004
 -30236127.41047 -23552267.68746  21790928.8984                   21790926.8204
 -16327322.29747 -12710299.28945  22273197.3134                   22273198.7194
 -12390617.92247  -9641434.70345  22704403.3364                   22704404.1724
 -22981329.67648 -17892541.80946  21650863.7504                   21650866.5044
  -1890527.74246  -1465534.37944  24387485.6024                   24387492.0704
 -31299954.87548 -24374667.43047  20487656.2504                   20487655.8404
 -16233828.56246 -12642322.11744  24053386.8594                   24053389.0984
  -9279764.58247  -7223213.67644  23451892.6094                   23451897.2424
 11  9 24  0  4  0.0000000  0  9G12G02G29G30G25G15G05G10G26
 -25540846.98848 -19887657.66846  21889221.3984                   21889221.9884
 -30216508.16847 -23536979.94946  21794661.9384                   21794660.7664
 -16429089.69947 -12789598.49645  22253831.5864                   22253832.4414
 -12434999.12947  -9676017.42645  22695957.5234                   22695958.9414
 -22984620.52048 -17895106.07046  21650237.3594                   21650239.8834
  -2009052.00446  -1557890.50043  24364929.9144                   24364936.6724
 -31290346.01648 -24367179.99247  20489484.7974                   20489484.1954
 -16148705.29746 -12575992.34044  24069585.5394                   24069587.5744
  -9396343.52347  -7314054.28144  23429708.9694                   23429711.6954
 11  9 24  0  4 30.0000000  0  9G12G02G29G30G25G15G05G10G26
 -25488874.84048 -19847159.92246  21899111.2274                   21899111.4574
 -30196770.09048 -23521599.61746  21798418.4304                   21798416.4694
 -16530704.62547 -12868778.87945  22234494.4384                   22234495.7504
 -12478773.86347  -9710127.57445  22687627.8914                   22687630.0904
 -22987333.56248 -17897220.10946  21649721.0554                   21649723.8134
  -2127634.60946  -1650292.11743  24342364.5394                   24342370.6174
 -31280221.80148 -24359290.97347  20491411.2274                   20491411.2344
 -16063452.02747 -12509561.22344  24085808.9144                   24085810.6684
  -9512767.06647  -7404773.72744  23407554.5084                   23407557.5824
 11  9 24  0  5  0.0000000  0  9G12G02G29G30G25G15G05G10G26
 -25436522.21148 -19806365.71146  21909073.6174                   21909073.7344
 -30176911.64847 -23506125.50046  21802197.0004                   21802195.4024
 -16632163.97747 -12947838.04745  22215187.5944                   22215188.2544
 -12521940.55147  -9743763.92245  22679413.9774                   22679415.0784
 -22989468.68748 -17898883.82046  21649314.9694                   21649317.4654
  -2246271.47747  -1742736.02344  24319788.7114                   24319793.9774
 -31269582.64548 -24351000.71147  20493436.1094                   20493435.5984
 -15978069.85947 -12443029.63743  24102056.3524                   24102058.3554
  -9629030.38347  -7495368.35944  23385429.6024                   23385432.8554
 11  9 24  0  5 30.0000000  0  9G12G02G29G30G25G15G05G10G26
 -25383795.76248 -19765280.19546  21919107.1334                   21919107.8484
 -30156936.73448 -23490560.62546  21805998.4844                   21805996.8834
 -16733468.78147 -13026776.77746  22195909.8914                   22195910.5944
 -12564502.63347  -9776929.14544  22671314.0784                   22671315.4064
 -22991030.84048 -17900101.06246  21649017.5784                   21649020.4734
  -2364963.97347  -1835223.27744  24297203.0474                   24297207.7854
 -31258433.87948 -24342313.33247  20495557.3284                   20495556.8324
 -15892565.08247 -12376402.57843  24118327.0474                   24118329.9344
  -9745133.46147  -7585838.11744  23363335.9454                   23363338.8954
 11  9 24  0  6  0.0000000  0  9G12G02G29G30G25G15G05G10G26
 -25330697.24248 -19723904.77746  21929211.6334                   21929211.5354
 -30136844.50047 -23474904.32846  21809821.6564                   21809820.2194
 -16834617.05947 -13105593.51245  22176661.8054                   22176663.0354
 -12606459.14147  -9809622.52745  22663329.8524                   22663331.1054
 -22992020.53948 -17900872.23846  21648829.1644                   21648831.9734
  -2483708.27047  -1927750.92644  24274605.7664                   24274610.7704
 -31246776.71148 -24333229.81247  20497775.8364                   20497774.9454
 -15806939.34846 -12309681.18743  24134620.8524                   24134623.6564
  -9861071.91047  -7676179.58644  23341273.2664                   23341276.6994
 11  9 24  0  6 30.0000000  0  9G12G02G29G30G25G15G05G10G26
 -25277228.64848 -19682240.96546  21939386.2424                   21939386.6454
 -30116634.05147 -23459155.93045  21813667.3754                   21813665.0434
 -16935605.12147 -13184285.41046  22157444.4694                   22157445.1174
 -12647808.75847  -9841843.00845  22655461.5554                   22655462.9494
 -22992438.02748 -17901197.54346  21648749.8284                   21648752.2504
  -2602500.86746  -2020316.25444  24251999.8444                   24252005.5354
 -31234612.08248 -24323750.85547  20500090.6644                   20500090.1174
 -15721194.21146 -12242866.79743  24150937.7034                   24150940.4924
  -9976841.29347  -7766389.35544  23319243.1484                   23319246.0984
 11  9 24  0  7  0.0000000  0  9G12G02G29G30G25G15G05G10G26
 -25223394.34047 -19640292.19946  21949630.2814                   21949631.1764
 -30096307.32847 -23443316.91446  21817535.7194                   21817533.5204
 -17036432.76247 -13262852.28945  22138257.4224                   22138258.7074
 -12688553.29347  -9873591.98844  22647707.7734                   22647709.3404
 -22992286.48848 -17901079.43746  21648778.6644                   21648780.9844
  -2721340.92646  -2112918.49244  24229384.9454                   24229390.5394
 -31221943.66447 -24313879.34447  20502501.0554                   20502500.8954
 -15635333.92246 -12175962.63743  24167276.7584                   24167279.4384
 -10092439.58247  -7856465.75844  23297245.2584                   23297248.2034
 11  9 24  0  7 30.0000000  0  9G12G02G29G30G25G15G05G10G26
 -25169196.45748 -19598060.10246  21959943.3984                   21959945.0274
 -30075862.75448 -23427386.07846  21821425.7664                   21821424.5314
 -17137096.77347 -13341291.68045  22119101.9774                   22119102.2274
 -12728691.19947  -9904868.27045  22640069.8754                   22640071.4804
 -22991566.02348 -17900518.03946  21648915.9384                   21648918.6644
  -2840224.47346  -2205554.69144  24206761.8054                   24206766.9264
 -31208771.52748 -24303615.32847  20505007.6414                   20505007.0904
 -15549359.92246 -12108969.93742  24183636.5784                   24183641.3094
 -10207861.90647  -7946405.09044  23275281.4454                   23275283.8874
 11  9 24  0  8  0.0000000  0  9G12G02G29G30G25G15G05G10G26
 -25114637.78548 -19555546.89546  21970325.9454                   21970326.2624
 -30055300.66847 -23411363.66846  21825338.9694                   21825337.4144
 -17237595.25447 -13419602.08646  22099977.5634                   22099978.5634
 -12768222.64847  -9935671.96545  22632547.1954                   22632548.6334
 -22990278.23048 -17899514.55146  21649160.9454                   21649163.8834
  -2959148.72346  -2298222.55144  24184131.5944                   24184136.8244
 -31195098.13748 -24292960.71947  20507609.6484                   20507609.3204
 -15463274.69946 -12041890.54742  24200018.1884                   24200021.5394
 -10323104.97747  -8036204.74644  23253350.5474                   23253353.5314
 11  9 24  0  8 30.0000000  0  9G12G02G29G30G25G15G05G10G26
 -25059720.94548 -19512754.58646  21980776.4224                   21980777.3714
 -30034621.00847 -23395249.64146  21829273.9064                   21829272.8204
 -17337926.19147 -13497781.94546  22080885.2424                   22080886.1804
 -12807147.45746  -9966002.95345  22625140.2274                   22625141.2194
 -22988424.29348 -17898069.92246  21649513.4844                   21649516.2734
  -3078110.95346  -2390920.03544  24161493.3364                   24161498.3954
 -31180925.64548 -24281917.20347  20510306.9534                   20510306.2774
 -15377080.75446 -11974726.47743  24216420.5394                   24216423.7384
 -10438164.78147  -8125861.56244  23231456.3524                   23231459.3134
 11  9 24  0  9  0.0000000  0  9G12G02G29G30G25G15G05G10G26
 -25004449.09848 -19469685.65646  21991293.9224                   21991295.0514
 -30013824.16847 -23379044.31246  21833231.5004                   21833229.4924
 -17438087.28947 -13575829.44146  22061825.0314                   22061826.0664
 -12845465.82447  -9995861.40245  22617848.4924                   22617849.6484
 -22986006.05148 -17896185.59446  21649974.1484                   21649976.4064
  -3197108.85246  -2483645.29343  24138848.2114                   24138852.6334
 -31166256.09048 -24270486.35547  20513098.1804                   20513097.9064
 -15290780.78546 -11907479.77743  24232842.7274                   24232846.7344
 -10553038.29347  -8215373.24644  23209595.6954                   23209598.3554
 11  9 24  0  9 30.0000000  0  9G12G02G29G30G25G15G05G10G26
 -24948825.36747 -19426342.52746  22001879.2194                   22001880.0234
 -29992910.00847 -23362747.56245  21837211.1564                   21837209.1334
 -17538077.01247 -13653743.40646  22042797.1954                   22042798.4924
 -12883177.77047 -10025247.30945  22610672.3834                   22610673.9844
 -22983024.89148 -17893862.60946  21650541.2194                   21650543.5904
  -3316139.41846  -2576396.04743  24116197.4224                   24116202.0394
 -31151091.25848 -24258669.58647  20515984.0084                   20515983.5634
 -15204377.42246 -11840152.49643  24249284.7814                   24249288.3524
 -10667721.58647  -8304736.67244  23187772.5084                   23187775.5274
 11  9 24  0 10  0.0000000  0  9G12G02G29G30G25G15G05G10G26
 -24892852.14147 -19382727.06645  22012530.4614                   22012531.5274
 -29971878.34047 -23346359.25045  21841213.4774                   21841211.9304
 -17637892.55147 -13731521.64846  22023802.5084                   22023804.3324
 -12920282.73047 -10054160.23444  22603611.4534                   22603612.9964
 -22979481.79747 -17891101.77046  21651215.2504                   21651217.5664
  -3435199.80546  -2669170.06243  24093540.6254                   24093545.9924
 -31135432.41847 -24246467.87546  20518963.6024                   20518963.2154
 -15117872.52746 -11772746.09043  24265746.0164                   24265749.4614
 -10782210.71146  -8393948.84044  23165985.6564                   23165988.0514
 11  9 24  0 10 30.0000000  0  9G12G02G29G30G25G15G05G10G26
 -24836533.09048 -19338842.13746  22023247.6884                   22023248.3714
 -29950729.77047 -23329879.84046  21845238.2504                   21845236.2274
 -17737532.39148 -13809163.01646  22004842.6334                   22004842.7814
 -12956781.70347 -10082600.96944  22596665.8754                   22596667.4104
 -22975379.25848 -17887905.00846  21651996.1564                   21651999.0634
  -3554288.02746  -2761965.74243  24070878.2734                   24070884.3524
 -31119282.96548 -24233883.85947  20522036.7344                   20522036.2544
 -15031269.45346 -11705263.20743  24282225.8054                   24282228.7664
 -10896502.91847  -8483007.53544  23144236.5314                   23144238.8134
 11  9 24  0 11  0.0000000  0  9G12G02G29G30G25G15G05G10G26
 -24779871.48848 -19294690.27745  22034030.1334                   22034031.0394
 -29929464.54748 -23313309.52346  21849284.9304                   21849282.9924
 -17836994.82447 -13886666.15646  21985915.4924                   21985915.4694
 -12992675.10247 -10110569.80945  22589835.3284                   22589837.1684
 -22970718.98848 -17884273.64546  21652883.0004                   21652885.7774
  -3673401.30146  -2854780.96543  24048212.1094                   24048216.4924
 -31102644.89548 -24220919.12147  20525203.1804                   20525202.6524
 -14944570.89546 -11637705.89843  24298725.1564                   24298727.5664
 -11010594.89146  -8571910.18744  23122525.1484                   23122527.2424
 11  9 24  0 11 30.0000000  0  9G12G02G29G30G25G15G05G10G26
 -24722870.60948 -19250274.05146  22044877.4694                   22044878.1174
 -29908083.18748 -23296648.71945  21853353.4774                   21853351.2424
 -17936278.25447 -13964029.79345  21967022.0474                   21967022.5314
 -13027963.42647 -10138067.15645  22583120.1484                   22583121.8014
 -22965503.12948 -17880209.35946  21653875.6644                   21653877.9264
  -3792537.69146  -2947614.21543  24025540.4844                   24025544.0824
 -31085520.52748 -24207575.44547  20528461.6254                   20528460.9804
 -14857779.65646 -11570076.41044  24315240.2974                   24315243.8094
 -11124483.37947  -8660654.32844  23100852.9064                   23100855.3554
 11  9 24  0 12  0.0000000  0  9G12G02G29G30G25G15G05G10G26
 -24665535.73447 -19205597.56246  22055787.6804                   22055788.5354
 -29886587.66047 -23279898.95345  21857443.6484                   21857441.9414
 -18035383.12547 -14041254.27046  21948162.2664                   21948163.9494
 -13062648.94947 -10165094.81645  22576519.7814                   22576521.0234
 -22959735.31647 -17875714.97746  21654973.2894                   21654975.5124
  -3911696.47346  -3040464.89144  24002865.6804                   24002870.0984
 -31067914.07448 -24193856.10946  20531811.9694                   20531811.0784
 -14770900.45346 -11502378.37144  24331773.4304                   24331776.2894
 -11238166.78147  -8749238.64844  23079219.9614                   23079223.3054
 11  9 24  0 12 30.0000000  0  9G12G02G29G30G25G15G05G10G26
 -24607864.50048 -19160658.98046  22066762.1724                   22066762.8754
 -29864972.93448 -23263056.30945  21861556.7664                   21861554.8954
 -18134301.55948 -14118333.48446  21929339.3834                   21929340.1134
 -13096726.67247 -10191648.86345  22570035.1644                   22570036.1764
 -22953411.94148 -17870787.68746  21656176.5474                   21656178.9844
  -4030869.77747  -3133326.93044  23980187.0234                   23980191.5084
 -31049822.59848 -24179758.84447  20535254.4304                   20535254.0474
 -14683930.50446 -11434609.62543  24348323.1334                   24348325.2974
 -11351636.37947  -8837656.39144  23057627.1644                   23057629.1134
 11  9 24  0 13  0.0000000  0  9G12G02G29G30G25G15G05G10G26
 -24549864.21148 -19115463.98846  22077799.2274                   22077800.1884
 -29843242.93748 -23246123.84846  21865691.9384                   21865690.7114
 -18233035.57847 -14195269.03146  21910550.8134                   21910551.5164
 -13130200.73447 -10217732.50845  22563665.3754                   22563666.8404
 -22946538.73848 -17865431.95746  21657484.3054                   21657486.6524
  -4150058.51247  -3226200.96944  23957506.7584                   23957510.9384
 -31031252.01248 -24165288.24647  20538788.5394                   20538788.5124
 -14596876.28546 -11366775.23043  24364887.7974                   24364891.2664
 -11464892.34847  -8925907.67244  23036075.3134                   23036077.2114
 11  9 24  0 13 30.0000000  0  9G12G02G29G30G25G15G05G10G26
 -24491537.37547 -19070014.54346  22088898.3364                   22088899.2304
 -29821397.26248 -23229101.25045  21869849.0394                   21869847.5514
 -18331582.72347 -14272058.96946  21891797.8984                   21891798.4964
 -13163070.95747 -10243345.63745  22557409.5314                   22557411.7854
 -22939116.82848 -17859648.67246  21658896.7974                   21658899.8134
  -4269259.89847  -3319084.85244  23934822.2504                   23934827.1884
 -31012203.67248 -24150445.37546  20542413.4064                   20542412.9844
 -14509739.81246 -11298876.72343  24381470.6954                   24381473.7234
 -11577930.67247  -9013989.35544  23014564.3914                   23014566.2974
 11  9 24  0 14  0.0000000  0  9G12G02G29G30G25G15G05G10G26
 -24432885.39547 -19024311.74246  22100059.4924                   22100060.1214
 -29799434.86748 -23211987.68745  21874028.0004                   21874026.6764
 -18429939.69547 -14348700.71146  21873081.2344                   21873081.9104
 -13195336.47347 -10268487.59045  22551270.5394                   22551271.6914
 -22931146.94948 -17853438.38746  21660413.5864                   21660416.3754
  -4388469.78547  -3411975.41844  23912138.3364                   23912142.2974
 -30992678.88348 -24135231.23047  20546128.4534                   20546128.0704
 -14422522.28946 -11230915.10543  24398067.4694                   24398070.1884
 -11690746.93447  -9101897.98844  22993096.4614                   22993097.6954
 11  9 24  0 14 30.0000000  0  9G12G02G29G30G25G15G05G10G26
 -24373910.57047 -18978357.37546  22111282.4384                   22111282.8404
 -29777354.89548 -23194782.52745  21878230.2034                   21878228.0394
 -18528103.70747 -14425192.09046  21854401.0864                   21854402.1724
 -13226996.98047 -10293158.07845  22545244.8364                   22545246.9654
 -22922630.00848 -17846801.82446  21662033.9694                   21662036.3674
  -4507684.78147  -3504869.96944  23889451.7504                   23889455.9614
 -30972679.25448 -24119647.08247  20549934.6174                   20549933.9574
 -14335225.64846 -11162891.74642  24414679.6724                   24414682.2034
 -11803336.48047  -9189629.97344  22971670.6804                   22971673.2344
 11  9 24  0 15  0.0000000  0  9G12G02G29G30G25G15G05G10G26
 -24314616.06648 -18932153.91446  22122565.7814                   22122566.2234
 -29755157.23447 -23177485.65645  21882454.0474                   21882452.3714
 -18626072.28947 -14501531.19546  21835758.1954                   21835758.6484
 -13258052.44947 -10317357.11345  22539335.3284                   22539336.5664
 -22913567.61348 -17839740.23046  21663758.3284                   21663760.9574
  -4626901.98846  -3597766.21544  23866764.6174                   23866769.0634
 -30952206.49248 -24103694.27347  20553830.0164                   20553829.8554
 -14247851.82846 -11094808.28142  24431305.7034                   24431309.1414
 -11915695.50446  -9277182.31244  22950289.6724                   22950292.3094
 11  9 24  0 15 30.0000000  0  9G12G02G29G30G25G15G05G10G26
 -24255005.82847 -18885704.37945  22133909.3204                   22133909.2934
 -29732842.48448 -23160097.54746  21886700.3674                   21886698.8484
 -18723844.07447 -14577716.94146  21817153.0394                   21817153.6644
 -13288503.93747 -10341085.54345  22533541.1644                   22533542.1604
 -22903962.19948 -17832255.49246  21665586.4774                   21665589.3634
  -4746119.16046  -3690662.43744  23844079.0394                   23844082.7584
 -30931263.63348 -24087375.15246  20557815.3834                   20557815.2384
 -14160404.14846 -11026667.26242  24447946.3284                   24447949.5084
 -12027821.18747  -9364552.82445  22928952.5704                   22928955.0984
 11  9 24  0 16  0.0000000  0  9G12G02G29G30G25G15G05G10G26
 -24195081.34847 -18839010.02345  22145312.4144                   22145312.6094
 -29710409.28948 -23142617.14146  21890969.2274                   21890968.3204
 -18821415.68447 -14653746.69946  21798585.6094                   21798585.8754
 -13318350.74647 -10364342.77045  22527861.2504                   22527863.0514
 -22893814.35948 -17824348.09446  21667517.5084                   21667520.3134
  -4865332.25446  -3783555.47744  23821392.4534                   23821397.0744
 -30909851.15248 -24070690.07847  20561890.2734                   20561890.0314
 -14072883.65646 -10958469.47742  24464601.5944                   24464603.4104
 -12139708.52347  -9451737.60545  22907661.4304                   22907663.6994
 11  9 24  0 16 30.0000000  0  9G12G02G29G30G25G15G05G10G26
 -24134846.61347 -18792073.90245  22156774.5164                   22156775.4064
 -29687858.60548 -23125045.19945  21895260.5164                   21895259.4884
 -18918786.10247 -14729619.68046  21780056.7894                   21780056.8444
 -13347594.32847 -10387129.95745  22522296.3204                   22522297.7114
 -22883126.98848 -17816020.27046  21669551.0864                   21669553.9774
  -4984539.35246  -3876443.87944  23798708.0864                   23798712.2894
 -30887972.57048 -24053641.82447  20566053.8134                   20566053.3984
 -13985293.86346 -10890217.73842  24481269.6174                   24481272.2114
 -12251355.03947  -9538734.75044  22886415.6564                   22886417.3134
 11  9 24  0 17  0.0000000  0 10G12G02G29G30G25G15G05G10G26G21
 -24074307.27747 -18744900.42645  22168294.8834                   22168295.0664
 -29665193.12948 -23107383.79346  21899573.8054                   21899572.6374
 -19015955.60948 -14805336.10946  21761565.9224                   21761566.2114
 -13376237.47747 -10409449.26645  22516845.8054                   22516846.7424
 -22871904.39548 -17807275.39846  21671686.8364                   21671689.3054
  -5103740.74246  -3969327.80144  23776025.3204                   23776029.2854
 -30865632.41448 -24036233.89147  20570304.7664                   20570304.2624
 -13897639.60546 -10821915.71543  24497949.6254                   24497953.2114
 -12362759.66847  -9625543.40645  22865215.8834                   22865217.5394
   -117881.82856    -84417.94153  25106097.5784                   25106101.4494
 11  9 24  0 17 30.0000000  0 10G12G02G29G30G25G15G05G10G26G21
 -24013471.13347 -18697495.68745  22179871.9774                   22179873.1524
 -29642417.47748 -23089636.54346  21903907.9454                   21903906.5394
 -19112926.57047 -14880897.83646  21743112.7034                   21743113.6134
 -13404285.38347 -10431304.77345  22511507.7504                   22511509.1454
 -22860153.13748 -17798118.57046  21673923.0704                   21673925.6914
  -5222937.84847  -4062208.42644  23753342.0864                   23753346.3634
 -30842837.39148 -24018471.52347  20574642.5704                   20574642.1994
 -13809927.88346 -10753568.96543  24514640.9694                   24514643.5124
 -12473923.10247  -9712164.14144  22844061.8754                   22844063.7424
   -198165.74246   -146976.66043  25090820.3204                   25090824.6484
 11  9 24  0 18  0.0000000  0  9G12G02G29G30G25G15G05G26G21
 -23952345.14147 -18649865.06645  22191503.8444                   22191504.4344
 -29619536.04747 -23071806.85545  21908262.0554                   21908260.1134
 -19209701.41447 -14956306.72346  21724697.2974                   21724697.8244
 -13431742.97347 -10452700.24645  22506283.0784                   22506284.7114
 -22847879.53548 -17788554.71946  21676258.6254                   21676261.2584
  -5342132.57046  -4155087.16844  23730660.2584                   23730663.7304
 -30819594.47348 -24000360.14146  20579065.4924                   20579064.9224
 -12584846.52747  -9798597.84044  22822953.7894                   22822954.9774
   -278433.40246   -209522.72343  25075545.4844                   25075548.4654
 11  9 24  0 18 30.0000000  0  9G12G02G29G30G25G15G05G26G21
 -23890929.93047 -18602009.10245  22203190.8834                   22203191.0164
 -29596545.50447 -23053892.13345  21912636.9384                   21912635.4774
 -19306274.62148 -15031558.48446  21706319.7664                   21706320.2154
 -13458607.45347 -10473633.57045  22501170.9844                   22501172.7274
 -22835082.20348 -17778582.77346  21678693.7584                   21678696.7664
  -5461318.74247  -4247959.24244  23707979.2424                   23707983.2114
 -30795902.50448 -23981898.84046  20583573.8524                   20583573.8014
 -12695522.93047  -9884839.04744  22801892.5784                   22801893.9144
   -358681.90646   -272053.89543  25060274.4844                   25060277.5314
 11  9 24  0 19  0.0000000  0  9G12G02G29G30G25G15G05G26G21
 -23829216.65247 -18553920.87145  22214934.1724                   22214934.8284
 -29573433.86347 -23035883.06245  21917035.0784                   21917033.4734
 -19402632.48047 -15106642.45346  21687983.2974                   21687984.0204
 -13484867.74647 -10494096.10245  22496173.4534                   22496174.9844
 -22821751.38348 -17768195.12946  21681230.5634                   21681233.6414
  -5580481.47747  -4340813.07444  23685303.1094                   23685307.0124
 -30771751.91848 -23963080.17646  20588169.6644                   20588168.9184
 -12805936.78147  -9970875.69144  22780881.2504                   22780883.1604
   -438899.91846   -334561.28543  25045009.6024                   25045013.2894
 11  9 24  0 19 30.0000000  0  9G12G02G29G30G25G15G05G26G21
 -23767202.74247 -18505598.38745  22226735.1414                   22226736.0944
 -29550195.95347 -23017775.59045  21921457.1174                   21921455.0704
 -19498767.36747 -15181552.66846  21669689.3914                   21669689.3244
 -13510519.00047 -10514084.06645  22491292.7424                   22491293.9264
 -22807883.75048 -17757389.17246  21683869.6484                   21683872.2194
  -5699612.79346  -4433642.46144  23662633.7734                   23662636.4734
 -30747139.78548 -23943901.87146  20592853.0394                   20592852.7194
 -12916079.40647 -10056700.93444  22759921.6954                   22759924.0234
   -519082.82446   -397041.39543  25029751.7664                   25029754.8444
 11  9 24  0 20  0.0000000  0  9G12G02G29G30G25G15G05G26G21
 -23704892.91047 -18457045.32445  22238592.2894                   22238593.5164
 -29526833.10247 -22999570.76245  21925902.5864                   21925901.3594
 -19594678.84047 -15256288.79746  21651438.1484                   21651438.4964
 -13535563.53147 -10533599.23845  22486527.7504                   22486528.0124
 -22793482.82448 -17746167.68446  21686609.8054                   21686612.6134
  -5818711.49647  -4526446.43444  23639969.6724                   23639973.0474
 -30722069.78548 -23924366.78947  20597623.6724                   20597623.3244
 -13025948.62947 -10142313.18044  22739013.8524                   22739016.3364
   -599233.12946   -459495.99243  25014499.4614                   25014502.2814
 11  9 24  0 20 30.0000000  0  9G12G02G29G30G25G15G05G26G21
 -23642292.24647 -18408265.62945  22250504.8594                   22250505.9304
 -29503346.91047 -22981269.82045  21930372.0084                   21930370.4694
 -19690366.39147 -15330850.44146  21633229.3284                   21633229.7974
 -13560003.80147 -10552643.56245  22481875.8524                   22481877.2624
 -22778552.52748 -17734533.68046  21689451.0084                   21689453.9024
  -5937776.73847  -4619224.30944  23617312.1804                   23617314.8914
 -30696546.00448 -23904478.10247  20602481.0004                   20602480.3634
 -13135542.43047 -10227710.80145  22718158.8914                   22718160.6954
   -679353.00446   -521926.88343  24999252.6094                   24999255.6604
 11  9 24  0 21  0.0000000  0  9G12G02G29G30G25G15G05G26G21
 -23579406.05947 -18359263.42245  22262471.5394                   22262472.7814
 -29479740.29347 -22962875.03545  21934864.0394                   21934862.5634
 -19785830.28947 -15405237.80146  21615063.0864                   21615062.8874
 -13583842.93047 -10571219.45345  22477339.6254                   22477340.9184
 -22763097.16848 -17722490.55946  21692392.0164                   21692394.7624
  -6056807.92247  -4711975.62144  23594660.5474                   23594663.2274
 -30670573.05948 -23884239.42246  20607423.3444                   20607422.5164
 -13244859.91447 -10312893.12145  22697356.9064                   22697358.1334
   -759445.43446   -584336.46143  24984012.0474                   24984014.8714
 11  9 24  0 21 30.0000000  0  9G12G02G29G30G25G15G05G26G21
 -23516236.65247 -18310040.56645  22274492.8984                   22274493.1884
 -29456012.13347 -22944385.54345  21939379.7034                   21939377.8404
 -19881067.21147 -15479448.30546  21596939.9454                   21596940.2974
 -13607080.52747 -10589326.62545  22472917.5004                   22472919.3714
 -22747118.07048 -17710039.32846  21695432.8674                   21695435.7734
  -6175801.46147  -4804697.63344  23572016.5784                   23572018.7774
 -30644152.55548 -23863652.00446  20612450.9694                   20612450.1604
 -13353896.60547 -10397856.62145  22676607.7584                   22676610.1254
   -839510.09046   -646724.36343  24968775.5004                   24968779.1374
 11  9 24  0 22  0.0000000  0  9G12G02G29G30G25G15G05G26G21
 -23452789.36347 -18260601.16845  22286566.6724                   22286567.1094
 -29432164.40647 -22925802.88345  21943917.6254                   21943915.7584
 -19976077.52747 -15553482.23046  21578860.3834                   21578860.3794
 -13629719.57046 -10606967.37544  22468609.3754                   22468610.6724
 -22730619.28548 -17697183.15246  21698572.4774                   21698575.1954
  -6294756.58247  -4897389.70744  23549380.0474                   23549382.8244
 -30617288.85548 -23842719.23846  20617562.9454                   20617562.3554
 -13462650.73847 -10482599.98445  22655912.4454                   22655914.1804
   -919549.40246   -709092.50042  24953544.9844                   24953547.4494
 11  9 24  0 22 30.0000000  0  9G12G02G29G30G25G15G05G26G21
 -23389067.34847 -18210947.69945  22298691.6804                   22298692.2814
 -29408196.84047 -22907126.83245  21948478.4694                   21948477.2384
 -20070858.94548 -15627337.80146  21560823.8594                   21560823.9844
 -13651760.86347 -10624142.34445  22464415.3594                   22464416.2624
 -22713602.98448 -17683923.72746  21701810.4224                   21701813.3874
  -6413670.39847  -4990049.57044  23526751.1884                   23526754.9104
 -30589984.02048 -23821442.71546  20622758.7274                   20622758.0204
 -13571118.77347 -10567120.39545  22635271.6254                   22635273.8164
   -999564.32445   -771441.66842  24938318.4534                   24938320.0274
 11  9 24  0 23  0.0000000  0  9G12G02G29G30G25G15G05G26G21
 -23325073.46547 -18161082.37945  22310869.7274                   22310870.8244
 -29384109.50447 -22888357.44145  21953061.8364                   21953060.4104
 -20165409.34848 -15701013.35246  21542831.2584                   21542831.4384
 -13673205.12947 -10640852.11344  22460333.7194                   22460335.4884
 -22696071.22748 -17670262.63346  21705146.8284                   21705149.9024
  -6532539.76247  -5082674.84844  23504130.9844                   23504135.0234
 -30562240.63348 -23799824.48846  20628038.2344                   20628037.4694
 -13679297.11347 -10651415.05944  22614685.1024                   22614687.1174
  -1079555.36346   -833772.16442  24923095.9774                   24923098.5944
 11  9 24  0 23 30.0000000  0  9G12G02G29G30G25G15G05G26G21
 -23260809.85947 -18111006.89845  22323098.7664                   22323099.9614
 -29359901.77347 -22869494.25845  21957668.3754                   21957667.2384
 -20259725.57847 -15774506.44146  21524883.3284                   21524883.4224
 -13694052.28147 -10657096.57445  22456366.5314                   22456368.1524
 -22678025.34448 -17656200.94546  21708580.4614                   21708583.3404
  -6651361.15247  -5175262.74644  23481520.6024                   23481523.1294
 -30534059.86348 -23777865.42246  20633400.7504                   20633399.8484
 -13787181.47347 -10735480.64844  22594155.1884                   22594156.9344
  -1159522.18045   -896083.79343  24907878.2344                   24907881.8874
 11  9 24  0 24  0.0000000  0  9G12G02G29G30G25G15G05G26G21
 -23196280.02047 -18060723.97345  22335378.5704                   22335379.5234
 -29335573.16847 -22850536.88345  21962297.7974                   21962296.5784
 -20353805.21547 -15847815.16446  21506980.4614                   21506981.0594
 -13714303.10946 -10672876.37145  22452513.3444                   22452515.1254
 -22659467.31248 -17641740.16846  21712112.4454                   21712115.1254
  -6770131.44147  -5267810.79744  23458919.0554                   23458921.9344
 -30505444.12548 -23755567.43446  20638846.0634                   20638845.3874
 -13894767.93047 -10819314.12144  22573682.4924                   22573683.7114
  -1239465.34845   -958377.04742  24892666.2734                   24892668.9844
 11  9 24  0 24 30.0000000  0  9G12G02G29G30G25G15G05G26G21
 -23131489.02347 -18010237.52745  22347707.8524                   22347708.6094
 -29311125.33647 -22831486.61345  21966950.1334                   21966948.6024
 -20447648.09448 -15920939.40246  21489123.1024                   21489123.3054
 -13733960.53147 -10688193.80145  22448772.8754                   22448773.6844
 -22640401.42648 -17626883.67246  21715740.4064                   21715743.5234
  -6888850.46147  -5360318.89144  23436327.0704                   23436330.7074
 -30476397.84448 -23732933.94546  20644373.6564                   20644372.8164
 -14002054.80147 -10902914.15245  22553266.7814                   22553268.5514
  -1319387.34046  -1020653.70343  24877456.9534                   24877460.6884
 11  9 24  0 25  0.0000000  0  9G12G02G29G30G25G15G05G26G21
 -23066438.32447 -17959548.72745  22360086.4064                   22360087.4264
 -29286557.23447 -22812342.60545  21971625.8524                   21971623.7624
 -20541250.71548 -15993876.43746  21471311.0784                   21471310.9694
 -13753024.10547 -10703048.47345  22445145.3134                   22445146.2464
 -22620828.47748 -17611632.06646  21719465.2114                   21719468.2774
  -7007513.64147  -5452783.50444  23413746.3364                   23413748.9964
 -30446921.96148 -23709965.70346  20649982.3984                   20649981.7114
 -14109037.23447 -10986276.96945  22532908.6094                   22532910.2234
  -1399287.57446  -1082913.44943  24862253.2194                   24862255.2114
 11  9 24  0 25 30.0000000  0  9G12G02G29G30G25G15G05G26G21
 -23001130.66447 -17908659.71145  22372514.7894                   22372514.7854
 -29261868.09447 -22793104.28545  21976323.4304                   21976322.2424
 -20634610.14848 -16066623.95346  21453544.9224                   21453545.2074
 -13771493.92647 -10717440.49645  22441630.3054                   22441631.7584
 -22600749.96548 -17595986.50046  21723286.0084                   21723288.6604
  -7126116.92247  -5545201.44144  23391176.3204                   23391179.2504
 -30417017.98848 -23686663.89546  20655672.9384                   20655672.1524
 -14215710.85947 -11069399.13345  22512609.6484                   22512610.7664
  -1479165.76245  -1145155.99643  24847051.4454                   24847054.2894
 11  9 24  0 26  0.0000000  0  9G12G02G29G30G25G15G05G26G21
 -22935569.32047 -17857573.00045  22384990.5474                   22384991.1844
 -29237058.18447 -22773771.86745  21981044.9064                   21981043.0984
 -20727724.91848 -16139180.83246  21435825.8914                   21435825.4614
 -13789371.64847 -10731371.14545  22438228.2894                   22438229.6414
 -22580168.80948 -17579949.27746  21727202.5314                   21727205.1134
  -7244658.39846  -5637571.19144  23368618.7114                   23368620.6374
 -30386689.18048 -23663031.03146  20661444.3754                   20661443.5984
 -14322072.89147 -11152278.50845  22492369.0004                   22492370.5944
  -1559023.02046  -1207382.20743  24831855.8134                   24831858.0164
 11  9 24  0 26 30.0000000  0  9G12G02G29G30G25G15G05G26G21
 -22869758.06247 -17806291.56645  22397513.5864                   22397514.8524
 -29212127.43747 -22754345.29745  21985789.2974                   21985787.3404
 -20820592.75448 -16211545.29746  21418153.6414                   21418153.8364
 -13806658.24647 -10744841.17645  22434938.8284                   22434939.9654
 -22559087.25848 -17563522.13346  21731214.1414                   21731216.9104
  -7363135.29747  -5729890.64145  23346073.7194                   23346076.4804
 -30355937.42248 -23639068.61346  20667296.0314                   20667295.3714
 -14428119.68447 -11234912.25045  22472188.1414                   22472191.0084
  -1638860.27746  -1269592.82843  24816663.0234                   24816665.9964
 11  9 24  0 27  0.0000000  0  9G12G02G29G30G25G15G05G26G21
 -21228281.35547 -16527218.85945  22709876.2424                   22709877.3524
 -27611655.69147 -21507224.44945  22290349.1094                   22290347.1214
 -19337787.44948 -15056112.51246  21700322.2194                   21700322.4534
 -12247933.48447  -9530250.43045  22731553.7894                   22731555.4654
 -20962087.56248 -16319106.81646  22035113.1024                   22035115.8984
  -5906119.72746  -4594553.62144  23623333.4924                   23623336.7194
 -28749345.87548 -22387179.06646  20973020.3364                   20973019.6724
 -12958423.19947 -10089694.08245  22751862.3204                   22751864.2894
   -143254.40646   -104185.45343  25101266.8054                   25101270.0744
 11  9 24  0 27 30.0000000  0  9G12G02G29G30G25G15G05G26G21
 -21161977.21147 -16475553.37145  22722493.4304                   22722494.9734
 -27586481.17247 -21487607.92645  22295139.0314                   22295137.3134
 -19430152.61348 -15128085.28946  21682745.5554                   21682745.7114
 -12264039.02347  -9542800.15645  22728488.9144                   22728490.6524
 -20940010.09448 -16301903.62546  22039314.3984                   22039317.5044
  -6024456.18447  -4686763.63344  23600814.7664                   23600817.2154
 -28717754.40648 -22362562.32446  20979032.2894                   20979031.5434
 -13063826.63747 -10171826.47745  22731804.8754                   22731806.1954
   -223051.02046   -166364.41443  25086082.3914                   25086085.0744
 11  9 24  0 28  0.0000000  0  9G12G02G29G30G25G15G05G26G21
 -21095430.03147 -16423698.51645  22735157.4774                   22735157.8984
 -27561183.10948 -21467895.12945  22299953.1724                   22299951.9924
 -19522261.88748 -15199858.67246  21665217.5164                   21665217.3364
 -12279553.94547  -9554889.69545  22725537.2664                   22725537.9494
 -20917436.61748 -16284313.92646  22043609.7814                   22043612.8524
  -6142717.03546  -4778914.75044  23578310.3754                   23578312.8834
 -28685744.99248 -22337619.89846  20985123.3524                   20985122.5514
 -13168901.51647 -10253702.85545  22711809.8284                   22711811.0944
   -302826.53546   -228526.93743  25070901.3444                   25070904.7974
 11  9 24  0 28 30.0000000  0  9G12G02G29G30G25G15G05G26G21
 -21028642.59847 -16371656.40645  22747866.4064                   22747867.6954
 -27535761.23047 -21448085.86345  22304790.8674                   22304789.1684
 -19614112.52748 -15271430.53546  21647739.0314                   21647739.1374
 -12294479.41847  -9566519.91845  22722696.8364                   22722697.7034
 -20894369.38748 -16266339.48846  22047999.7034                   22048002.0704
  -6260898.96947  -4871004.34444  23555821.3204                   23555823.2544
 -28653319.59448 -22312353.34446  20991293.3984                   20991292.5204
 -13273644.05547 -10335320.29345  22691877.7114                   22691879.5984
   -382581.61746   -290673.56644  25055724.7974                   25055727.7464
 11  9 24  0 29  0.0000000  0  9G12G02G29G30G25G15G05G26G21
 -20961619.01247 -16319430.30945  22760620.8284                   22760622.2234
 -27510216.46148 -21428180.84445  22309651.9924                   22309650.2974
 -19705703.60248 -15342800.12946  21630309.8134                   21630309.9104
 -12308817.42647  -9577692.37145  22719967.9694                   22719969.5084
 -20870811.64148 -16247982.81246  22052482.4694                   22052485.5904
  -6378999.81647  -4963030.78944  23533346.6804                   23533349.6994
 -28620481.96148 -22286765.55946  20997542.2424                   20997541.8954
 -13378051.64147 -10416676.73845  22672009.7274                   22672010.6174
   -462317.72746   -352805.39543  25040551.1254                   25040553.9454
 11  9 24  0 29 30.0000000  0  9G12G02G29G30G25G15G05G26G21
 -20894364.53547 -16267024.29345  22773419.0704                   22773420.2814
 -27484550.46547 -21408181.35545  22314535.8524                   22314534.7114
 -19797034.54748 -15413967.03146  21612929.9774                   21612930.1954
 -12322570.91047  -9588409.36345  22717350.9534                   22717351.6564
 -20846767.58648 -16229247.20746  22057058.1414                   22057061.2194
  -6497018.66447  -5054993.32044  23510888.7274                   23510891.4454
 -28587236.62948 -22260860.10246  21003869.0234                   21003868.4534
 -13482122.62147 -10497770.89145  22652205.7584                   22652206.7464
   -542037.36746   -414924.36343  25025380.0864                   25025382.7894
 11  9 24  0 30  0.0000000  0  9G12G02G29G30G25G15G05G26G21
 -20826881.06247 -16214439.83245  22786260.7894                   22786261.8594
 -27458762.03547 -21388086.46145  22319443.3914                   22319441.3634
 -19888102.57448 -15484929.07046  21595600.5164                   21595599.5434
 -12335740.16847  -9598671.10245  22714844.9614                   22714845.8674
 -20822238.79748 -16210133.85546  22061725.5004                   22061728.1254
  -6614951.78547  -5146889.09444  23488446.7114                   23488447.7664
 -28553584.79348 -22234637.86746  21010272.4774                   21010271.8524
 -13585852.37147 -10578599.15245  22632466.4144                   22632467.7034
   -621740.42646   -477030.46943  25010213.2344                   25010215.6844
 11  9 24  0 30 30.0000000  0  9G12G02G29G30G25G15G05G26G21
 -20759169.78147 -16161677.83245  22799145.8524                   22799146.6094
 -27432849.19547 -21367894.63345  22324374.6884                   22324372.6134
 -19978903.01648 -15555682.59446  21578321.6724                   21578321.1024
 -12348324.48447  -9608477.05145  22712450.1724                   22712451.6564
 -20797225.72748 -16190643.15646  22066485.2274                   22066488.2154
  -6732794.57847  -5238714.46144  23466022.2424                   23466023.1024
 -28519526.87948 -22208099.21946  21016753.7894                   21016752.9304
 -13689235.48447 -10659157.28145  22612792.5784                   22612794.9844
   -701425.19947   -539122.36343  24995050.3284                   24995052.0124
 11  9 24  0 31  0.0000000  0  9G12G02G29G30G25G15G05G26G21
 -20691237.17247 -16108743.37945  22812073.1334                   22812073.6914
 -27406814.60547 -21347607.93445  22329328.3754                   22329326.8324
 -20069436.69548 -15626228.25046  21561093.3674                   21561093.2894
 -12360327.80147  -9617830.27045  22710166.2194                   22710167.6024
 -20771733.52348 -16170779.09046  22071336.2194                   22071339.3554
  -6850546.43047  -5330468.98444  23443614.1954                   23443615.9224
 -28485068.19148 -22181248.27046  21023310.6484                   21023310.4104
 -13792271.30547 -10739444.78945  22593185.6644                   22593187.7114
   -781095.23847   -601202.74243  24979888.7504                   24979891.1994
 11  9 24  0 31 30.0000000  0  9G12G02G29G30G25G15G05G26G21
 -20623083.25447 -16055636.48045  22825042.0704                   22825042.8444
 -27380655.34447 -21327224.07845  22334306.3834                   22334304.8134
 -20159698.30148 -15696561.91446  21543916.6644                   21543916.8794
 -12371748.45347  -9626729.46945  22707992.6024                   22707993.3484
 -20745761.87148 -16150541.44146  22076278.6644                   22076281.3984
  -6968201.77747  -5422148.28544  23421225.2344                   23421227.2384
 -28450208.14148 -22154084.57446  21029944.1724                   21029943.8674
 -13894953.30147 -10819456.58245  22573645.3914                   22573647.4024
   -860747.96946   -663269.62943  24964731.6174                   24964734.2304
 11  9 24  0 32  0.0000000  0  9G12G02G29G30G25G15G05G26G21
 -20554713.07047 -16002361.05945  22838052.6954                   22838053.6294
 -27354373.06248 -21306744.37945  22339308.2034                   22339306.7704
 -20249687.57848 -15766683.37146  21526792.6024                   21526792.5864
 -12382589.74647  -9635177.21145  22705929.6174                   22705930.9924
 -20719315.06248 -16129933.52346  22081311.1884                   22081314.1724
  -7085759.43447  -5513751.48444  23398854.5314                   23398856.5704
 -28414951.42248 -22126611.79746  21036653.7274                   21036653.2194
 -13997279.73047 -10899191.33645  22554174.1564                   22554175.0474
   -940386.30946   -725325.32043  24949576.2424                   24949578.5984
 11  9 24  0 32 30.0000000  0  9G12G02G29G30G25G15G05G26G21
 -20486129.60247 -15948919.44945  22851103.6644                   22851104.4804
 -27327967.80147 -21286168.84845  22344332.2974                   22344330.9104
 -20339402.37948 -15836590.95346  21509720.4224                   21509720.7234
 -12392852.84047  -9643174.39845  22703976.8674                   22703977.7194
 -20692395.48848 -16108957.22346  22086433.7734                   22086436.6484
  -7203216.37547  -5605276.19145  23376502.4454                   23376506.0084
 -28379300.13348 -22098831.54746  21043437.6334                   21043437.1524
 -14099247.13347 -10978646.32445  22534769.8364                   22534771.5394
  -1020010.31246   -787369.84443  24934424.7194                   24934426.2304
 11  9 24  0 33  0.0000000  0  9G12G02G29G30G25G15G05G26G21
 -20417335.10247 -15895313.38745  22864194.8364                   22864196.0744
 -27301438.67647 -21265496.80145  22349380.8674                   22349379.9104
 -20428839.44148 -15906282.13746  21492701.3524                   21492701.2234
 -12402538.00447  -9650721.27045  22702134.0004                   22702134.8164
 -20665004.69548 -16087613.73446  22091646.2344                   22091648.6804
  -7320568.89847  -5696719.51645  23354171.1644                   23354174.3834
 -28343255.83648 -22070745.07446  21050296.6334                   21050295.8834
 -14200850.91047 -11057817.97745  22515435.2194                   22515436.6914
  -1099619.53546   -849402.86343  24919275.0784                   24919277.4264
 11  9 24  0 33 30.0000000  0  9G12G02G29G30G25G15G05G26G21
 -20348335.20347 -15841547.30145  22877325.4614                   22877326.6214
 -27274786.92247 -21244729.18745  22354453.3204                   22354450.9104
 -20517998.78948 -15975756.90646  21475734.5234                   21475734.8554
 -12411648.96947  -9657820.70745  22700400.1094                   22700400.6174
 -20637147.43747 -16065906.77346  22096947.2894                   22096950.4264
  -7437815.84847  -5788080.63745  23331859.7734                   23331862.0664
 -28306823.25448 -22042356.04346  21057229.6954                   21057229.0864
 -14302089.84047 -11136705.33245  22496169.7504                   22496171.0824
  -1179217.27046   -911426.92643  24904128.5864                   24904130.7274
 11  9 24  0 34  0.0000000  0  9G12G02G29G30G25G15G05G26G21
 -20279130.50447 -15787621.62545  22890494.1644                   22890495.7814
 -27248010.19947 -21223864.22345  22359547.6254                   22359546.4144
 -20606875.44948 -16045011.39146  21458822.0164                   21458822.1914
 -12420184.35947  -9664471.62545  22698775.7504                   22698776.8444
 -20608823.59448 -16043836.21946  22102337.2114                   22102339.7584
  -7554952.00047  -5879355.34445  23309569.2194                   23309572.0704
 -28270002.24648 -22013664.32446  21064236.6094                   21064235.5474
 -14402957.46547 -11215303.34845  22476975.5864                   22476976.1954
  -1258801.16046   -973440.18043  24888983.9144                   24888985.9924
 11  9 24  0 34 30.0000000  0  9G12G02G29G30G25G15G05G26G21
 -20209724.57047 -15733539.11345  22903701.5634                   22903703.2384
 -27221108.73047 -21202902.04745  22364667.0164                   22364665.5314
 -20695467.69948 -16114044.28146  21441963.4694                   21441963.2894
 -12428146.28147  -9670675.69145  22697260.6024                   22697261.5944
 -20580036.41448 -16021404.64146  22107815.0004                   22107817.9344
  -7671975.08247  -5970541.97745  23287300.6174                   23287303.0594
 -28232795.94548 -21984672.39846  21071316.6564                   21071315.6214
 -14503451.05547 -11293609.92645  22457851.9304                   22457853.0554
  -1338372.30145  -1035443.46943  24873841.4844                   24873844.4064
 11  9 24  0 35  0.0000000  0  9G12G02G29G30G25G15G05G26G21
 -20140119.39847 -15679301.38345  22916946.7584                   22916948.5784
 -27194081.69547 -21181842.03145  22369810.6644                   22369808.5434
 -20783772.57048 -16182853.24246  21425159.4224                   21425159.0664
 -12435535.18747  -9676433.25845  22695854.3444                   22695856.0044
 -20550787.49248 -15998613.25446  22113381.0554                   22113383.4104
  -7788881.02746  -6061637.34044  23265054.2664                   23265056.1644
 -28195205.93447 -21955381.47746  21078469.9614                   21078469.3674
 -14603566.27747 -11371621.68745  22438800.6724                   22438801.9694
  -1417930.56646  -1097436.77343  24858702.0864                   24858704.8954
 11  9 24  0 35 30.0000000  0  9G12G02G29G30G25G15G05G26G21
 -20070318.31647 -15624910.99245  22930230.2194                   22930231.6334
 -27166928.56647 -21160683.75445  22374977.5164                   22374975.9344
 -20871787.16848 -16251435.99646  21408410.9454                   21408410.8134
 -12442352.16447  -9681745.16445  22694557.1024                   22694558.6414
 -20521078.96148 -15975463.74646  22119034.0314                   22119037.1024
  -7905666.64146  -6152638.95745  23242830.4924                   23242832.8794
 -28157234.00048 -21925792.95346  21085695.7584                   21085694.9734
 -14703299.07047 -11449335.43745  22419822.0554                   22419823.6914
  -1497475.99245  -1159420.07043  24843565.0554                   24843567.3754
 11  9 24  0 36  0.0000000  0  9G12G02G29G30G25G15G05G26G21
 -20000326.54347 -15570371.98445  22943549.7814                   22943551.2734
 -27139651.52347 -21139428.91845  22380167.8054                   22380166.7894
 -20959511.71548 -16319792.75446  21391717.5084                   21391716.9144
 -12448601.20747  -9686614.51645  22693367.6094                   22693369.0394
 -20490916.11348 -15951960.21146  22124773.7974                   22124776.7774
  -8022331.19547  -6243546.21545  23220629.7974                   23220631.7074
 -28118885.48048 -21895910.97346  21092992.9064                   21092992.2934
 -14802648.62547 -11526750.54745  22400916.1024                   22400917.4614
  -1577011.62546  -1221395.67642  24828429.4304                   24828431.8984
 11  9 24  0 36 30.0000000  0  9G12G02G29G30G25G15G05G26G21
 -19930145.16047 -15515685.25045  22956904.3284                   22956905.8484
 -27112247.97347 -21118075.52745  22385382.7114                   22385381.0204
 -21046941.76648 -16387920.01646  21375079.8444                   21375079.3754
 -12454281.22747  -9691040.47745  22692287.1804                   22692288.2814
 -20460298.79348 -15928102.55946  22130600.6094                   22130603.3634
  -8138869.48847  -6334355.10244  23198453.3134                   23198454.1254
 -28080160.44148 -21865735.60946  21100362.0944                   21100361.4804
 -14901608.78547 -11603862.24245  22382085.0164                   22382086.0234
  -1656535.49646  -1283362.16043  24813297.2974                   24813297.4304
 11  9 24  0 37  0.0000000  0  9G12G02G29G30G25G15G05G26G21
 -19859775.77047 -15460851.99645  22970295.7194                   22970296.1954
 -27084716.38747 -21096622.35545  22390621.7114                   22390619.3094
 -21134073.60248 -16455814.91446  21358499.1024                   21358499.0124
 -12459392.48047  -9695023.25445  22691314.3674                   22691315.2194
 -20429228.38348 -15903891.84046  22136512.7114                   22136515.5664
  -8255277.16447  -6425062.22344  23176301.4534                   23176302.5704
 -28041059.68047 -21835267.46946  21107802.6954                   21107801.5394
 -15000174.48048 -11680666.59445  22363328.7664                   22363330.1804
  -1736046.91446  -1345318.94142  24798165.9454                   24798167.3714
 11  9 24  0 37 30.0000000  0  9G12G02G29G30G25G15G05G26G21
 -19789222.53947 -15405875.48445  22983721.3364                   22983722.4614
 -27057057.91847 -21075070.27345  22395885.2194                   22395883.1914
 -21220906.44548 -16523476.82446  21341975.5944                   21341975.1174
 -12463937.94147  -9698565.14845  22690449.7584                   22690450.5744
 -20397709.02047 -15879331.28546  22142510.9694                   22142513.6454
  -8371552.46147  -6515666.17245  23154174.8444                   23154176.0354
 -28001587.31248 -21804509.76646  21115314.0634                   21115313.2344
 -15098344.12548 -11757162.32845  22344647.6174                   22344648.2234
  -1815547.60246  -1407267.32843  24783036.7344                   24783039.2304
 11  9 24  0 38  0.0000000  0  9G12G02G29G30G25G15G05G26G21
 -19718487.71947 -15350757.50445  22997181.5554                   22997182.7624
 -27029270.71147 -21053417.90645  22401172.9844                   22401171.4964
 -21307436.36747 -16590902.69546  21325508.9304                   21325509.1254
 -12467917.50447  -9701666.09045  22689691.8914                   22689693.0554
 -20365741.64847 -15854421.66446  22148594.0864                   22148596.8554
  -8487690.94547  -6606163.50844  23132074.3284                   23132075.3524
 -27961744.14548 -21773463.13746  21122895.8204                   21122895.4964
 -15196112.29747 -11833345.19945  22326042.3754                   22326043.5354
  -1895036.84846  -1469206.90643  24767911.1174                   24767912.7424
 11  9 24  0 38 30.0000000  0 10G12G02G29G30G25G15G05G18G26G21
 -19647577.12547 -15295502.52345  23010675.8984                   23010676.5234
 -27001357.43047 -21031667.30145  22406484.6954                   22406482.8954
 -21393663.72348 -16658092.79346  21309100.9064                   21309100.6254
 -12471335.47347  -9704329.40245  22689041.5554                   22689042.4924
 -20333331.64548 -15829167.11346  22154761.6024                   22154764.3164
  -8603692.08247  -6696553.82445  23109999.3914                   23110000.9304
 -27921535.42248 -21742131.65646  21130547.5864                   21130547.1954
   1412925.71156   1111262.06353  24725308.6884                   24725312.3524
 -15293478.03147 -11909214.50445  22307514.5234                   22307514.7234
  -1974517.55546  -1531139.73843  24752786.1884                   24752787.8204
 11  9 24  0 39  0.0000000  0 10G12G02G29G30G25G15G05G18G26G21
 -19576500.49647 -15240118.16845  23024200.9614                   23024202.2274
 -26973324.73047 -21009823.61345  22411818.9064                   22411817.3834
 -21479593.18447 -16725050.75046  21292749.2894                   21292748.5864
 -12474200.37547  -9706561.79745  22688496.8364                   22688497.6024
 -20300488.58647 -15803575.11746  22161011.1094                   22161014.3404
  -8719560.00847  -6786840.36745  23087950.4534                   23087952.1994
 -27880970.43748 -21710522.57446  21138266.9064                   21138265.8954
   1301946.64846   1024785.28543  24704190.0944                   24704194.7074
 -15390445.12947 -11984773.17645  22289061.8754                   22289062.7424
  -2053997.35946  -1593071.91443  24737662.2034                   24737662.3714
 11  9 24  0 39 30.0000000  0 10G12G02G29G30G25G15G05G18G26G21
 -19505262.39547 -15184607.99245  23037756.5944                   23037758.2934
 -26945173.74247 -20987887.76645  22417176.2664                   22417174.4614
 -21565223.81648 -16791775.87146  21276453.9614                   21276453.5204
 -12476515.12547  -9708365.46945  22688056.2274                   22688057.2034
 -20267216.44548 -15777648.78146  22167342.7814                   22167345.9224
  -8835293.05947  -6877021.78945  23065927.1954                   23065929.2114
 -27840053.00047 -21678638.84046  21146053.1564                   21146052.0274
   1191139.00446    938441.98843  24683103.6564                   24683107.9414
 -15487011.27747 -12060019.41045  22270685.9144                   22270687.1684
  -2133478.10546  -1655004.80143  24722536.9304                   24722538.0554
 11  9 24  0 40  0.0000000  0 10G12G02G29G30G25G15G05G18G26G21
 -19433866.38347 -15128974.77045  23051342.5474                   23051344.8054
 -26916904.57847 -20965859.82445  22422555.5784                   22422554.2464
 -21650553.84048 -16858266.73846  21260216.2424                   21260216.2734
 -12478281.72747  -9709742.03545  22687719.2734                   22687720.9574
 -20233518.28548 -15751390.49246  22173755.2814                   22173758.2304
  -8950888.59847  -6967096.03945  23043930.4064                   23043931.6094
 -27798786.03948 -21646482.75446  21153905.8134                   21153905.1914
   1080503.87546    852233.24643  24662050.2034                   24662053.9734
 -15583173.43747 -12134950.85545  22252386.9844                   22252388.0124
  -2212960.59046  -1716939.10243  24707412.1484                   24707413.0274
 11  9 24  0 40 30.0000000  0 10G12G02G29G30G25G15G05G18G26G21
 -19362310.78947 -15073217.21145  23064959.9144                   23064961.5044
 -26888512.33647 -20943735.97745  22427958.2734                   22427956.6094
 -21735576.10547 -16924517.78546  21244036.6094                   21244036.2894
 -12479497.18447  -9710689.14845  22687488.7504                   22687489.7274
 -20199392.12147 -15724798.69146  22180249.1094                   22180251.6024
  -9066338.72347  -7057056.99245  23021960.6094                   23021961.7854
 -27757167.16848 -21614052.45346  21161825.7194                   21161825.1604
    970047.00446    766163.31643  24641030.8754                   24641034.0274
 -15678923.39547 -12209561.10545  22234166.0314                   22234166.7274
  -2292440.37546  -1778871.28543  24692287.0704                   24692288.5984
 11  9 24  0 41  0.0000000  0 10G12G02G29G30G25G15G05G18G26G21
 -19290597.12147 -15017336.46544  23078606.0084                   23078607.4844
 -26859995.10247 -20921514.73445  22433385.0004                   22433383.5274
 -21820286.74647 -16990526.00846  21227917.0084                   21227916.4024
 -12480161.52747  -9711206.81245  22687361.8594                   22687363.0394
 -20164838.99247 -15697874.18046  22186824.5004                   22186827.4804
  -9181638.78947  -7146901.03945  23000019.9694                   23000020.5634
 -27715197.70348 -21581348.95746  21169812.1884                   21169811.2894
    859771.19146    680234.49243  24620045.3204                   24620048.6724
 -15774255.89847 -12283846.05945  22216025.2814                   22216025.7074
  -2371916.86746  -1840800.86743  24677162.8364                   24677165.0354
 11  9 24  0 41 30.0000000  0 10G12G02G29G30G25G15G05G18G26G21
 -19218726.63347 -14961333.54745  23092283.0164                   23092284.6644
 -26831350.63347 -20899194.31645  22438835.8914                   22438833.4344
 -21904681.39547 -17056288.00846  21211857.3444                   21211856.7034
 -12480274.49247  -9711294.84445  22687340.2034                   22687341.2544
 -20129859.68747 -15670617.60546  22193480.8754                   22193483.6134
  -9296783.79347  -7236624.26245  22978107.7664                   22978109.2034
 -27672877.77747 -21548372.39146  21177865.2814                   21177864.3324
    749680.11746    594449.58643  24599095.1644                   24599098.9844
 -15869165.58247 -12357801.56245  22197963.8914                   22197965.0704
  -2451388.12146  -1902726.41443  24662040.3914                   24662041.1954
 11  9 24  0 42  0.0000000  0 10G12G02G29G30G25G15G05G18G26G21
 -19146704.36347 -14905212.36345  23105989.3284                   23105990.6214
 -26802580.56247 -20876776.03945  22444310.5394                   22444308.3014
 -21988759.52348 -17121803.35946  21195857.3054                   21195857.5744
 -12479839.67247  -9710956.03545  22687423.0944                   22687424.3014
 -20094458.73447 -15643032.46146  22200216.9774                   22200219.8054
  -9411772.62946  -7326225.77745  22956225.6884                   22956227.5434
 -27630211.84048 -21515126.19146  21185984.3674                   21185983.3754
    639772.49646    508807.64842  24578180.2814                   24578183.6454
 -15963650.84847 -12431426.35545  22179983.9694                   22179985.2344
  -2530856.66046  -1964649.82843  24646917.7664                   24646918.8524
 11  9 24  0 42 30.0000000  0 10G12G02G29G30G25G15G05G18G26G21
 -19074529.50447 -14848972.22345  23119723.6094                   23119725.1024
 -26773681.12147 -20854256.95745  22449809.4534                   22449807.9454
 -22072515.42648 -17187067.62146  21179919.2194                   21179918.8054
 -12478855.17247  -9710188.91845  22687611.0314                   22687611.9614
 -20058635.34048 -15615118.15246  22207034.6804                   22207037.2584
  -9526598.67647  -7415700.45745  22934375.1174                   22934375.4614
 -27587198.36348 -21481609.19546  21194169.5704                   21194168.9924
    530053.24646    423312.47342  24557301.4844                   24557304.3444
 -16057704.90247 -12504715.14845  22162085.8754                   22162086.9304
  -2610319.20746  -2026568.55543  24631796.2814                   24631798.2234
 11  9 24  0 43  0.0000000  0 10G12G02G29G30G25G15G05G18G26G21
 -19002205.46547 -14792615.89845  23133485.9844                   23133486.5554
 -26744651.53947 -20831636.46145  22455333.5554                   22455332.4804
 -22155946.50848 -17252078.79346  21164042.5394                   21164042.2154
 -12477322.43747  -9708994.60245  22687902.4534                   22687903.2774
 -20022391.84847 -15586876.48846  22213931.3984                   22213933.8914
  -9641258.60247  -7505045.69945  22912556.1724                   22912557.3134
 -27543840.26248 -21447823.65246  21202420.3524                   21202419.3874
    420523.98045    337965.31342  24536458.1174                   24536460.7194
 -16151323.66447 -12577664.70345  22144270.5394                   22144271.5984
  -2689776.00046  -2088482.78943  24616676.3524                   24616678.0554
 11  9 24  0 43 30.0000000  0 10G12G02G29G30G25G15G05G18G26G21
 -18929736.28547 -14736146.44545  23147276.0234                   23147277.9844
 -26715493.36347 -20808915.77345  22460882.7974                   22460880.9694
 -22239051.92248 -17316836.19146  21148228.3204                   21148228.2624
 -12475244.77047  -9707375.66845  22688298.1254                   22688298.6414
 -19985732.59047 -15558310.86746  22220907.6644                   22220910.2344
  -9755750.71947  -7594260.18045  22890769.1334                   22890769.7704
 -27500141.11348 -21413772.35246  21210735.8284                   21210734.9924
    311184.67245    252766.28142  24515650.3754                   24515654.0474
 -16244505.43047 -12650273.78945  22126538.8834                   22126539.2664
  -2769229.10546  -2150394.16443  24601556.5004                   24601557.8634
 11  9 24  0 44  0.0000000  0 10G12G02G29G30G25G15G05G18G26G21
 -18857125.40647 -14679566.58645  23161094.1334                   23161095.5554
 -26686206.22747 -20786094.60545  22466455.7664                   22466454.2584
 -22321829.30548 -17381337.98046  21132476.0704                   21132476.0474
 -12472623.94147  -9705333.50845  22688796.6174                   22688797.5124
 -19948660.28948 -15529423.37545  22227962.1644                   22227965.1954
  -9870072.02347  -7683341.53545  22869014.4304                   22869016.1414
 -27456103.62948 -21379457.41846  21219115.9454                   21219115.5164
    202036.57045    167716.14542  24494880.9144                   24494882.4494
 -16337246.58247 -12722539.54345  22108891.4384                   22108891.8014
  -2848679.05546  -2212303.04743  24586437.0554                   24586438.0124
 11  9 24  0 44 30.0000000  0 10G12G02G29G30G25G15G05G18G26G21
 -18784375.76647 -14622878.61345  23174937.1564                   23174939.6454
 -26656789.72747 -20763172.63745  22472053.5554                   22472051.5004
 -22404276.58247 -17445582.55146  21116786.8594                   21116786.7384
 -12469461.96947  -9702869.66445  22689398.4144                   22689399.6334
 -19911177.83647 -15500216.29346  22235094.9534                   22235097.3364
  -9984219.62947  -7772287.53145  22847292.5164                   22847292.8404
 -27411730.06248 -21344880.60546  21227559.6254                   21227559.2154
     93080.45755     82815.62952  24474146.2424                   24474148.7734
 -16429543.80947 -12794459.35945  22091327.3444                   22091328.3284
  -2928126.40246  -2274209.88343  24571318.9454                   24571320.3634
 11  9 24  0 45  0.0000000  0 10G12G02G29G30G25G15G05G18G26G21
 -18711492.41847 -14566086.45745  23188806.7344                   23188808.9734
 -26627245.47747 -20740151.13345  22477675.6954                   22477673.8674
 -22486393.32448 -17509569.57046  21101160.6804                   21101160.2424
 -12465762.47747  -9699986.97345  22690102.6804                   22690103.9734
 -19873289.85547 -15470693.22346  22242304.9384                   22242307.5514
 -10098192.25847  -7861097.19145  22825603.9144                   22825605.3014
 -27367024.80548 -21310045.33646  21236067.1254                   21236066.4224
    -15684.36346     -1935.84443  24453448.8364                   24453453.2974
 -16521395.79747 -12866032.25045  22073848.5234                   22073848.9414
  -3007573.28546  -2336116.35244  24556201.1254                   24556202.7504
 11  9 24  0 45 30.0000000  0 10G12G02G29G30G25G15G05G18G26G21
 -18638474.73447 -14509189.61745  23202701.3134                   23202703.3554
 -26597569.60247 -20717027.06245  22483322.6024                   22483320.8754
 -22568173.12548 -17573294.03146  21085598.4774                   21085597.8794
 -12461523.43747  -9696683.84845  22690908.9844                   22690910.4104
 -19834995.34047 -15440853.37546  22249592.1334                   22249594.4064
 -10211982.91447  -7949765.07045  22803950.1334                   22803951.7234
 -27321986.58248 -21274950.60546  21244637.6884                   21244637.0824
   -124252.84046    -86534.32043  24432789.5234                   24432793.8284
 -16612794.99247 -12937252.32845  22056455.7974                   22056456.1024
  -3087016.20346  -2398019.74644  24541083.5234                   24541085.7234
 11  9 24  0 46  0.0000000  0 10G12G02G29G30G25G15G05G18G26G21
 -18565326.23847 -14452190.84444  23216621.5164                   23216622.7974
 -26567762.30547 -20693800.58245  22488994.8364                   22488992.8874
 -22649614.59047 -17636754.87146  21070100.2734                   21070099.8914
 -12456747.54747  -9692962.41845  22691818.2664                   22691818.6804
 -19796297.73447 -15410699.42646  22256955.9614                   22256958.9264
 -10325589.41447  -8038289.45345  22782331.6564                   22782332.5434
 -27276618.52748 -21239598.85546  21253271.0864                   21253269.9654
   -232624.28946   -170979.30943  24412166.8054                   24412170.0124
 -16703738.71547 -13008117.46945  22039149.5084                   22039149.7114
  -3166456.40646  -2459921.01244  24525966.6564                   24525968.6914
 11  9 24  0 46 30.0000000  0 10G12G02G29G30G25G15G05G18G26G21
 -18492050.00047 -14395092.53944  23230565.5084                   23230565.9384
 -26537823.21947 -20670471.42645  22494691.6644                   22494690.4064
 -22730715.11348 -17699950.03546  21054667.7424                   21054667.1884
 -12451436.34047  -9688823.85945  22692828.6954                   22692828.8014
 -19757199.69947 -15380233.45746  22264396.1174                   22264398.4344
 -10439008.15647  -8126667.54745  22760748.8984                   22760749.8014
 -27230922.91848 -21203991.85946  21261966.6644                   21261965.6094
   -340797.64546   -255269.93743  24391580.8674                   24391585.5944
 -16794223.53147 -13078625.02045  22021930.8284                   22021930.9924
  -3245894.10946  -2521820.32844  24510849.5004                   24510851.7384
 11  9 24  0 47  0.0000000  0 10G12G02G29G30G25G15G05G18G26G21
 -18418651.74247 -14337899.15244  23244532.7424                   23244532.9414
 -26507754.57047 -20647041.32845  22500414.0314                   22500411.8054
 -22811474.86348 -17762879.67246  21039299.5084                   21039299.3484
 -12445594.46947  -9684271.78945  22693940.4144                   22693941.0234
 -19717706.64847 -15349459.69546  22271911.3134                   22271914.2034
 -10552239.05147  -8214899.25445  22739201.7814                   22739202.5784
 -27184904.83248 -21168133.59446  21270723.1954                   21270722.3444
   -448774.05146   -339407.10544  24371034.6954                   24371037.2584
 -16884248.56247 -13148774.29345  22004799.5314                   22004800.0204
  -3325332.67246  -2583720.30944  24495732.4224                   24495733.9344
 11  9 24  0 47 30.0000000  0 10G12G02G29G30G25G15G05G18G26G21
 -18345133.02747 -14280611.88345  23258522.6884                   23258525.0004
 -26477554.69547 -20623508.98445  22506160.4384                   22506159.4384
 -22891890.64848 -17825541.27046  21023996.8284                   21023996.1954
 -12439222.53147  -9679306.66845  22695153.1564                   22695154.2074
 -19677820.11347 -15318379.30145  22279501.4454                   22279504.4654
 -10665277.45347  -8302980.97745  22717690.8134                   22717692.0984
 -27138565.37548 -21132024.89546  21279541.3284                   21279540.6524
   -556551.09446   -423388.94543  24350525.1884                   24350526.9304
 -16973809.20347 -13218561.70745  21987756.7034                   21987757.7894
  -3404770.89846  -2645620.00443  24480616.0394                   24480616.8284
 11  9 24  0 48  0.0000000  0 10G12G02G29G30G25G15G05G18G26G21
 -18271495.68447 -14223232.20744  23272535.6094                   23272537.6804
 -26447222.00447 -20599873.12545  22511932.7034                   22511931.3324
 -22971958.52048 -17887931.77046  21008760.4534                   21008760.2464
 -12432321.05547  -9673928.91445  22696465.9694                   22696467.5554
 -19637541.50448 -15286993.40646  22287165.9924                   22287168.7774
 -10778118.83647  -8390909.16045  22696217.4774                   22696218.6454
 -27091905.63348 -21095666.63746  21288420.6414                   21288419.7274
   -664126.15246   -507213.36344  24330053.9064                   24330056.5124
 -17062900.57847 -13287983.46545  21970803.2734                   21970803.4024
  -3484207.64846  -2707518.57043  24465498.7504                   24465500.2704
 11  9 24  0 48 30.0000000  0 10G12G02G29G30G25G15G05G18G26G21
 -18197743.29347 -14165762.86344  23286570.5394                   23286571.8404
 -26416756.71947 -20576133.95745  22517730.0944                   22517728.0394
 -23051676.55948 -17950049.67646  20993590.7974                   20993590.0164
 -12424892.56247  -9668140.49245  22697879.9534                   22697880.9024
 -19596874.17647 -15255304.61346  22294905.1254                   22294907.7584
 -10890760.80547  -8478681.97345  22674781.8984                   22674783.0784
 -27044928.63748 -21059061.15246  21297360.2344                   21297359.3204
   -771498.67246   -590879.99643  24309620.9694                   24309624.5664
 -17151520.09847 -13357037.53545  21953939.2034                   21953939.5594
  -3563643.91046  -2769416.74643  24450382.7194                   24450384.2154
 11  9 24  0 49  0.0000000  0 10G12G02G29G30G25G15G05G18G26G21
 -18123879.59447 -14108206.78545  23300626.0234                   23300627.3204
 -26386158.73447 -20552291.39545  22523553.2034                   22523550.7814
 -23131043.05547 -18011893.66046  20978487.3834                   20978487.6054
 -12416939.65647  -9661943.44544  22699393.4774                   22699393.8714
 -19555821.64847 -15223315.66845  22302717.1254                   22302720.3014
 -11003200.55947  -8566297.21545  22653385.4844                   22653386.3594
 -26997637.46148 -21022210.85946  21306359.2274                   21306358.4024
   -878668.46546   -674388.69543  24289227.1094                   24289230.2974
 -17239664.78547 -13425721.61745  21937166.0704                   21937166.5824
  -3643081.03546  -2831315.62143  24435266.3754                   24435267.5594
 11  9 24  0 49 30.0000000  0 10G12G02G29G30G25G15G05G18G26G21
 -18049907.24247 -14050566.03545  23314703.1484                   23314703.8284
 -26355427.98447 -20528345.35945  22529400.8834                   22529398.6254
 -23210055.73448 -18073461.94546  20963452.1884                   20963451.8134
 -12408464.03547  -9655339.07445  22701006.2734                   22701007.1884
 -19514386.43747 -15191028.52345  22310601.9924                   22310604.3554
 -11115434.88347  -8653752.39545  22632028.0944                   22632029.7464
 -26950034.14848 -20985117.33646  21315417.6564                   21315416.7304
   -985633.48846   -757737.77743  24268873.0234                   24268875.3954
 -17327331.09847 -13494032.93745  21920483.3594                   21920484.1884
  -3722518.53946  -2893214.77343  24420150.5704                   24420151.6174
 11  9 24  0 50  0.0000000  0 10G12G02G29G30G25G15G05G18G26G21
 -17975828.60547 -13992842.48444  23328798.9694                   23328800.4454
 -26324563.32847 -20504294.97745  22535273.9144                   22535272.4844
 -23288711.43048 -18134752.05546  20948484.4454                   20948483.8794
 -12399467.26247  -9648328.60545  22702718.3054                   22702719.7544
 -19472570.94547 -15158445.04745  22318559.3914                   22318562.0204
 -11227460.36347  -8741044.81245  22610710.3284                   22610711.1024
 -26902120.35948 -20947781.87946  21324535.5944                   21324534.4534
  -1092392.32446   -840926.23443  24248556.1644                   24248559.3014
 -17414515.37947 -13561968.64545  21903892.6334                   21903893.2664
  -3801957.05146  -2955114.71943  24405033.1804                   24405034.3164
 11  9 24  0 50 30.0000000  0 10G12G02G29G30G25G15G05G18G26G21
 -17901649.06647 -13935040.33245  23342915.5864                   23342916.7624
 -26293566.33247 -20480141.47345  22541172.6644                   22541171.1604
 -23367009.84848 -18195763.77346  20933584.4224                   20933584.4024
 -12389953.43747  -9640915.22745  22704527.9224                   22704530.0984
 -19430380.04747 -15125569.05145  22326587.6484                   22326591.6174
 -11339275.99647  -8828173.74645  22589432.0084                   22589432.7624
 -26853901.25048 -20910208.51646  21333710.9304                   21333710.1844
  -1198945.87146   -923954.70343  24228280.1954                   24228283.4924
 -17501216.16047 -13629527.61745  21887393.8754                   21887394.1844
  -3881398.48046  -3017016.94143  24389915.7974                   24389917.2114
 11  9 24  0 51  0.0000000  0 10G12G02G29G30G25G15G05G18G26G21
 -17827370.34447 -13877160.86344  23357050.2504                   23357052.1954
 -26262435.58247 -20455883.74645  22547096.5634                   22547095.1254
 -23444947.54348 -18256494.40246  20918753.7974                   20918752.8054
 -12379923.30147  -9633099.53945  22706437.4064                   22706438.8524
 -19387815.41047 -15092401.83645  22334687.7424                   22334689.9844
 -11450877.18047  -8915135.57045  22568195.3914                   22568196.6484
 -26805377.88748 -20872398.07846  21342945.0864                   21342944.3164
  -1305291.84045  -1006821.41042  24208042.4534                   24208044.5634
 -17587429.02047 -13696706.39845  21870988.4144                   21870988.7704
  -3960842.25846  -3078920.97743  24374797.5234                   24374799.1684
 11  9 24  0 51 30.0000000  0 10G12G02G29G30G25G15G05G18G26G21
 -17752994.83247 -13819205.94944  23371203.7734                   23371205.8094
 -26231170.53147 -20431521.35545  22553045.6724                   22553044.2114
 -23522522.06248 -18316942.03546  20903991.5004                   20903991.0124
 -12369378.70347  -9624882.96545  22708443.6954                   22708445.6374
 -19344879.61747 -15058945.41045  22342858.0704                   22342861.0434
 -11562260.41847  -9001927.56245  22546999.7894                   22547000.1644
 -26756552.32048 -20834352.15246  21352236.3134                   21352235.3204
  -1411428.87945  -1089525.34043  24187846.0004                   24187846.9924
 -17673150.44947 -13763502.22345  21854676.0864                   21854676.1954
  -4040288.02046  -3140826.61743  24359680.1644                   24359680.4454
 11  9 24  0 52  0.0000000  0 10G12G02G29G30G25G15G05G18G26G21
 -17678526.02746 -13761178.36344  23385373.9844                   23385376.5864
 -26199770.91447 -20407054.14845  22559021.3754                   22559019.7074
 -23599730.82048 -18377104.66046  20889298.9774                   20889298.8954
 -12358321.70747  -9616267.10545  22710547.9144                   22710549.1334
 -19301575.62547 -15025202.05145  22351098.4774                   22351101.3404
 -11673422.66047  -9088547.37945  22525846.1174                   22525847.5434
 -26707426.81248 -20796072.52046  21361584.0864                   21361583.4694
  -1517355.89146  -1172065.69942  24167688.2344                   24167688.9024
 -17758376.91847 -13829912.37145  21838457.6804                   21838458.2504
  -4119736.54346  -3202734.39843  24344561.4774                   24344560.9614
 11  9 24  0 52 30.0000000  0 10G12G02G29G30G25G15G05G18G26G21
 -17603967.26647 -13703080.70344  23399562.8054                   23399563.7974
 -26168236.83647 -20382482.11745  22565021.4384                   22565019.9804
 -23676572.25848 -18436981.05546  20874676.7584                   20874675.8874
 -12346755.12547  -9607254.16845  22712749.1174                   22712750.2344
 -19257906.92247 -14991174.52745  22359408.5634                   22359411.3054
 -11784361.54347  -9174993.12545  22504735.0554                   22504735.6334
 -26658004.38748 -20757561.51646  21370989.1884                   21370988.0904
  -1623072.13746  -1254441.76243  24147570.3284                   24147571.4734
 -17843106.04347 -13895934.99245  21822334.3054                   21822334.1214
  -4199188.67246  -3264644.99243  24329441.8914                   24329442.0904
 11  9 24  0 53  0.0000000  0 10G12G02G29G30G25G15G05G18G26G21
 -17529320.64847 -13644914.57845  23413767.0474                   23413768.5594
 -26136566.99247 -20357804.33245  22571048.4144                   22571047.1954
 -23753043.20348 -18496568.75846  20860124.8284                   20860124.0944
 -12334680.13746  -9597845.08244  22715046.6564                   22715047.9304
 -19213875.50047 -14956864.34046  22367787.4534                   22367790.3404
 -11895072.95747  -9261261.62145  22483667.2034                   22483668.2384
 -26608286.77348 -20718820.50046  21380449.9224                   21380448.9654
  -1728575.65646  -1336652.07843  24127493.4064                   24127494.6954
 -17927333.47747 -13961566.67645  21806306.4144                   21806306.4454
  -4278643.59446  -3326557.75843  24314322.4144                   24314321.6484
 11  9 24  0 53 30.0000000  0 10G12G02G29G30G25G15G05G18G26G21
 -17454588.85946 -13586682.09444  23427988.6564                   23427989.6484
 -26104760.70747 -20333020.21145  22577101.1644                   22577099.7974
 -23829141.10948 -18555865.78547  20845643.8284                   20845643.0274
 -12322098.68046  -9588041.33645  22717440.3674                   22717442.2974
 -19169484.06247 -14922273.62945  22376234.7344                   22376237.3524
 -12005553.58647  -9347350.30545  22462643.3914                   22462643.9304
 -26558276.08648 -20679851.11346  21389966.4304                   21389965.5274
  -1833865.10946  -1418695.60543  24107457.3754                   24107459.2274
 -18011055.72348 -14026804.71145  21790374.7664                   21790374.8754
  -4358101.63746  -3388472.97343  24299201.8674                   24299201.1994
 11  9 24  0 54  0.0000000  0 10G12G02G29G30G25G15G05G18G26G21
 -17379775.23446 -13528385.81644  23442224.9064                   23442225.7584
 -26072817.96947 -20308129.75445  22583179.6884                   22583177.5474
 -23904863.54348 -18614870.23046  20831234.1414                   20831233.5474
 -12309012.86347  -9577844.56645  22719930.8594                   22719932.3524
 -19124735.44547 -14887404.59845  22384750.0784                   22384753.1764
 -12115800.10547  -9433256.54345  22441663.8444                   22441663.9304
 -26507974.61348 -20640655.12546  21399538.6724                   21399537.9654
  -1938939.73046  -1500571.69943  24087463.0084                   24087465.3164
 -18094269.70347 -14091646.69945  21774539.2734                   21774539.7704
  -4437562.84047  -3450390.66043  24284080.2584                   24284080.1604
 11  9 24  0 54 30.0000000  0 10G12G02G29G30G25G15G05G18G26G21
 -17304884.55946 -13470029.47744  23456476.2894                   23456477.5864
 -26040739.96147 -20283133.91445  22589283.5474                   22589281.5354
 -23980210.32448 -18673581.96146  20816896.1724                   20816895.7154
 -12295426.88347  -9567258.08245  22722516.7194                   22722517.1844
 -19079634.63747 -14852261.13345  22393332.4614                   22393335.7114
 -12225811.57847  -9518979.64145  22420729.8524                   22420730.2114
 -26457386.71548 -20601235.96946  21409164.9534                   21409164.5514
  -2043800.07846  -1582280.83243  24067507.2664                   24067510.5044
 -18176974.16847 -14156091.66445  21758801.2814                   21758801.2704
  -4517029.94947  -3512312.91844  24268957.6024                   24268959.2304
 11  9 24  0 55  0.0000000  0 10G12G02G29G30G25G15G05G18G26G21
 -17229920.46546 -13411615.98444  23470741.6414                   23470743.8834
 -26008527.29747 -20258033.13345  22595413.7424                   22595411.5704
 -24055179.75848 -18731999.64146  20802629.9454                   20802629.5004
 -12281343.75447  -9556284.19545  22725196.4224                   22725197.4574
 -19034185.31247 -14816846.09445  22401981.6334                   22401984.1884
 -12335585.59847  -9604517.71545  22399839.7114                   22399840.4734
 -26406515.61348 -20561596.14146  21418845.3284                   21418844.6764
  -2148445.90646  -1663822.82043  24047594.7424                   24047595.9924
 -18259166.50447 -14220137.55145  21743160.4384                   21743160.8204
  -4596503.80946  -3574240.45344  24253835.4304                   24253836.0474
 11  9 24  0 55 30.0000000  0 10G12G02G29G30G25G15G05G18G26G21
 -17154882.19547 -13353144.64844  23485020.8674                   23485022.6054
 -25976176.05947 -20232824.37945  22601570.1414                   22601568.4224
 -24129765.90248 -18790118.66046  20788436.3524                   20788436.1024
 -12266762.23447  -9544921.96545  22727971.0554                   22727972.0394
 -18988386.95347 -14781159.06645  22410696.7424                   22410699.8324
 -12445115.56647  -9689865.63345  22378997.2584                   22378997.5904
 -26355360.10548 -20521734.68746  21428580.3914                   21428579.6454
  -2252872.82846  -1745194.23043  24027723.1094                   24027724.7704
 -18340840.21147 -14283779.31645  21727618.0004                   21727618.5554
  -4675981.55946  -3636171.02043  24238710.4614                   24238710.8444
 11  9 24  0 56  0.0000000  0 10G12G02G29G30G25G15G05G18G26G21
 -17079774.75046 -13294619.45744  23499314.0164                   23499314.5164
 -25943687.59847 -20207508.72745  22607752.3914                   22607751.6414
 -24203968.69948 -18847938.96147  20774316.0164                   20774315.5204
 -12251686.20747  -9533174.38745  22730839.9534                   22730840.8754
 -18942244.18747 -14745203.67245  22419477.1024                   22419480.3444
 -12554400.07447  -9775022.27045  22358201.3134                   22358201.7034
 -26303925.05948 -20481655.41046  21438368.0554                   21438367.0744
  -2357081.12946  -1826395.29743  24007891.8984                   24007894.2734
 -18421993.76247 -14347015.77345  21712174.9534                   21712175.7034
  -4755464.91846  -3698105.99243  24223585.3834                   24223585.2894
 11  9 24  0 56 30.0000000  0 10G12G02G29G30G25G15G05G18G26G21
 -17004603.04346 -13236044.13344  23513618.0234                   23513619.3754
 -25911063.28147 -20182087.19945  22613960.6644                   22613958.4884
 -24277787.28948 -18905459.88746  20760269.0554                   20760268.3984
 -12236119.50847  -9521044.45745  22733802.4144                   22733803.1174
 -18895761.63347 -14708983.51645  22428322.5784                   22428325.1884
 -12663437.65647  -9859986.49245  22337451.8834                   22337451.3954
 -26252214.03548 -20441361.08646  21448208.1334                   21448207.4304
  -2461071.64546  -1907426.65644  23988103.2114                   23988104.9024
 -18502625.56247 -14409845.65245  21696831.4774                   21696831.3054
  -4834955.99646  -3760046.95743  24208458.7274                   24208458.4844
 11  9 24  0 57  0.0000000  0 10G12G02G29G30G25G15G05G18G26G21
 -16929367.80146 -13177419.30944  23527935.3754                   23527936.5234
 -25878300.94947 -20156558.09845  22620194.9224                   22620192.7664
 -24351217.83248 -18962678.42246  20746295.5084                   20746294.6564
 -12220063.00047  -9508532.87945  22736857.5944                   22736858.6334
 -18848940.73847 -14672499.71545  22437232.1484                   22437235.0634
 -12772223.66447  -9944754.69945  22316750.1484                   22316750.4774
 -26200227.65648 -20400852.21146  21458100.9304                   21458099.5234
  -2564841.76646  -1988286.30944  23968357.0164                   23968358.1564
 -18582731.26247 -14472265.58645  21681587.8594                   21681587.6024
  -4914453.63746  -3821993.00443  24193329.6884                   24193331.1844
 11  9 24  0 57 30.0000000  0 10G12G02G29G30G25G15G05G18G26G21
 -16854074.11747 -13118748.93044  23542262.6094                   23542264.3204
 -25845401.75847 -20130922.36745  22626455.5004                   22626453.5984
 -24424259.32848 -19019593.81647  20732396.0314                   20732395.4804
 -12203520.24247  -9495642.39845  22740005.6804                   22740006.5394
 -18801785.76247 -14635755.58245  22446205.6094                   22446208.8204
 -12880756.28947 -10029325.44945  22296097.1254                   22296097.8404
 -26147969.79748 -20360131.78146  21468045.1954                   21468044.4454
  -2668391.70746  -2068974.37944  23948651.5314                   23948653.5784
 -18662308.72347 -14534273.90245  21666444.7274                   21666445.2424
  -4993959.17246  -3883945.25843  24178201.1564                   24178201.6954
 11  9 24  0 58  0.0000000  0 10G12G02G29G30G25G15G05G18G26G21
 -16778721.88747 -13060032.98444  23556601.9384                   23556604.3554
 -25812362.98847 -20105177.88345  22632742.8984                   22632740.8054
 -24496907.02348 -19076202.34047  20718571.4614                   20718571.0514
 -12186491.27047  -9482373.05145  22743245.5314                   22743247.2464
 -18754297.47747 -14598751.75445  22455242.7664                   22455245.0084
 -12989030.17647 -10113694.62145  22275492.7974                   22275493.8874
 -26095440.59048 -20319199.91846  21478041.0474                   21478039.9924
  -2771718.09846  -2149488.26243  23928988.8834                   23928989.9774
 -18741352.58247 -14595866.43445  21651402.5164                   21651403.0164
  -5073470.47746  -3945901.96944  24163070.6414                   24163070.4654
 11  9 24  0 58 30.0000000  0 10G12G02G29G30G25G15G05G18G26G21
 -16703316.66846 -13001275.75844  23570950.8594                   23570953.6884
 -25779186.46147 -20079326.06245  22639055.8674                   22639054.0514
 -24569160.97748 -19132504.05947  20704822.4534                   20704821.4534
 -12168980.62947  -9468728.38345  22746578.0004                   22746578.9804
 -18706480.92247 -14561492.12145  22464340.9534                   22464343.9454
 -13097044.16847 -10197861.23845  22254938.7504                   22254938.7624
 -26042644.76648 -20278060.30546  21488087.8984                   21488087.5084
  -2874822.35546  -2229829.01644  23909369.2424                   23909370.1134
 -18819861.95347 -14657042.48445  21636463.2034                   21636462.6484
  -5152990.37546  -4007865.40643  24147938.3914                   24147938.3634
 11  9 24  0 59  0.0000000  0 10G12G02G29G30G25G15G05G18G26G21
 -16627858.62546 -12942477.33644  23585310.4144                   23585312.3324
 -25745869.04747 -20053364.42645  22645395.7734                   22645394.5084
 -24641016.46148 -19188495.29346  20691148.4304                   20691147.7274
 -12150987.99647  -9454708.12945  22750001.9844                   22750002.9924
 -18658336.66047 -14523977.12945  22473502.7894                   22473505.9384
 -13204792.56247 -10281820.89845  22234434.7734                   22234435.1524
 -25989581.83648 -20236712.55946  21498185.5554                   21498184.5594
  -2977700.92646  -2309993.94143  23889791.3364                   23889793.2384
 -18897831.39547 -14717797.80545  21621626.0474                   21621625.7154
  -5232516.45346  -4069833.66844  24132804.9144                   24132804.9734
 11  9 24  0 59 30.0000000  0 10G12G02G29G30G25G15G05G18G26G21
 -16552352.75847 -12883641.65644  23599679.0944                   23599680.3554
 -25712412.10247 -20027294.07445  22651762.7274                   22651760.9734
 -24712472.75448 -19244175.45747  20677550.7664                   20677549.9494
 -12132517.66447  -9440315.61345  22753516.4844                   22753518.2544
 -18609869.39147 -14486210.46145  22482726.5164                   22482729.7854
 -13312274.26647 -10365572.75445  22213981.7114                   22213982.3594
 -25936256.18748 -20195160.09046  21508332.8984                   21508332.1764
  -3080354.47345  -2389983.52043  23870256.3914                   23870258.6414
 -18975259.51647 -14778131.33245  21606891.9774                   21606891.3754
  -5312050.74646  -4131808.27344  24117669.7734                   24117670.0904
 11  9 24  1  0  0.0000000  0 10G12G02G29G30G25G15G05G18G26G21
 -16476801.19947 -12824770.35544  23614055.2274                   23614057.2464
 -25678814.79747 -20001114.35245  22658156.1024                   22658153.9184
 -24783527.12548 -19299542.43446  20664029.4694                   20664028.6804
 -12113571.32447  -9425552.19945  22757122.3754                   22757123.2234
 -18561081.59047 -14448194.02045  22492010.0314                   22492013.0354
 -13419485.52347 -10449113.86745  22193580.2344                   22193580.2974
 -25882669.55548 -20153404.26246  21518530.5164                   21518528.9064
  -3182781.06246  -2469796.27343  23850765.2274                   23850766.6764
 -19052142.76248 -14838040.27345  21592261.4144                   21592261.4144
  -5391593.09447  -4193789.21544  24102533.7894                   24102533.4654
 11  9 24  1  0 30.0000000  0 10G12G02G29G30G25G15G05G18G26G21
 -16401209.70346 -12765867.98044  23628439.4454                   23628442.4844
 -25645079.80547 -19974827.32045  22664575.5314                   22664573.5824
 -24854180.60248 -19354597.03146  20650584.2424                   20650583.4304
 -12094154.38347  -9410422.06245  22760817.1414                   22760818.2304
 -18511979.22347 -14409932.46945  22501353.9384                   22501356.1804
 -13526426.21947 -10532444.18445  22173229.8204                   22173230.1024
 -25828827.38748 -20111449.30946  21528776.1644                   21528774.4844
  -3284983.12546  -2549434.06643  23831316.8134                   23831318.7304
 -19128481.14847 -14897524.65646  21577734.8524                   21577734.3714
  -5471146.46147  -4255778.70344  24087394.8674                   24087395.3404
 11  9 24  1  1  0.0000000  0 10G12G02G29G30G25G15G05G18G26G21
 -16325580.26646 -12706936.05144  23642832.6884                   23642834.6954
 -25611205.68447 -19948431.87945  22671021.4694                   22671019.8444
 -24924429.58248 -19409336.44546  20637216.5314                   20637215.9414
 -12074268.21947  -9394926.29344  22764601.1094                   22764601.8524
 -18462564.28147 -14371427.34445  22510756.8754                   22510760.4884
 -13633092.34047 -10615560.54345  22152932.0394                   22152931.5864
 -25774730.74248 -20069296.05946  21539070.4614                   21539069.2544
  -3386958.48846  -2628895.19543  23811911.8754                   23811912.8164
 -19204270.42247 -14956581.18045  21563312.2114                   21563311.4454
  -5550710.19146  -4317776.29344  24072253.8984                   24072253.7774
 11  9 24  1  1 30.0000000  0 10G12G02G29G30G25G15G05G18G26G21
 -16249912.69147 -12647974.38344  23657231.1884                   23657233.0514
 -25577188.98047 -19921925.33645  22677495.0784                   22677493.4494
 -24994269.10548 -19463756.78146  20623926.4144                   20623925.8404
 -12053912.27047  -9379064.46544  22768474.7894                   22768476.0354
 -18412836.75847 -14332678.66845  22520220.3204                   22520224.3984
 -13739477.75847 -10698458.15245  22132687.2814                   22132686.5124
 -25720379.05948 -20026944.08646  21549413.1804                   21549412.3834
  -3488703.20746  -2708176.59443  23792550.8674                   23792552.1214
 -19279504.79347 -15015205.29745  21548995.5554                   21548995.9454
  -5630281.58246  -4379779.82043  24057111.7274                   24057112.2274
 11  9 24  1  2  0.0000000  0 10G12G02G29G30G25G15G05G18G26G21
 -16174210.32847 -12588985.54344  23671637.5784                   23671639.0434
 -25543030.02047 -19895307.95345  22683994.8284                   22683993.2034
 -25063697.35948 -19517856.66446  20610714.5864                   20610713.7624
 -12033089.61347  -9362838.96144  22772437.1724                   22772438.2894
 -18362800.38347 -14293689.30545  22529741.6564                   22529744.7934
 -13845579.89147 -10781135.05145  22112496.3984                   22112496.3954
 -25665775.59048 -19984395.91046  21559803.4064                   21559802.6524
  -3590216.58646  -2787277.75443  23773233.3444                   23773234.4064
 -19354181.76648 -15073395.07845  21534785.1484                   21534784.3554
  -5709861.55547  -4441790.02044  24041968.4454                   24041969.0204
 11  9 24  1  2 30.0000000  0 10G12G02G29G30G25G15G05G18G26G21
 -16098477.94147 -12529973.34044  23686048.4384                   23686050.5474
 -25508729.41447 -19868580.18045  22690522.0084                   22690519.5084
 -25132712.97348 -19571635.00447  20597581.2344                   20597580.5274
 -12011803.60947  -9346252.39544  22776487.8524                   22776488.8404
 -18312458.96147 -14254462.26245  22539321.3914                   22539324.1564
 -13951396.48847 -10863589.43445  22092359.9774                   22092360.2194
 -25610923.32448 -19941653.87946  21570241.3914                   21570240.8794
  -3691498.78546  -2866198.74243  23753958.9384                   23753959.9924
 -19428299.55547 -15131149.15245  21520680.8594                   21520680.6844
  -5789451.12146  -4503807.74243  24026822.3204                   24026823.1994
 11  9 24  1  3  0.0000000  0 10G12G02G29G30G25G15G05G18G26G21
 -16022718.97746 -12470940.46144  23700465.1804                   23700466.9384
 -25474287.75447 -19841742.50444  22697076.2114                   22697073.8914
 -25201315.03548 -19625091.09846  20584526.6094                   20584525.5664
 -11990057.87947  -9329307.62944  22780625.5784                   22780625.8524
 -18261816.84447 -14215000.91045  22548958.4844                   22548961.6524
 -14056925.62547 -10945819.82845  22072278.5474                   22072278.6564
 -25555826.01648 -19898720.90246  21580726.5314                   21580725.1644
  -3792550.56246  -2944940.24243  23734729.4774                   23734730.2664
 -19501856.31647 -15188466.04745  21506683.6954                   21506682.8524
  -5869051.64846  -4565834.00843  24011674.8524                   24011675.8794
 11  9 24  1  3 30.0000000  0 10G12G02G29G30G25G15G05G18G26G21
 -15946935.59446 -12411888.49244  23714886.8134                   23714888.0554
 -25439703.71147 -19814793.87144  22703656.9614                   22703655.1484
 -25269500.62948 -19678222.66846  20571551.3054                   20571550.4574
 -11967854.44546  -9312006.21144  22784850.7814                   22784851.7584
 -18210876.52047 -14175307.18045  22558651.9304                   22558655.5744
 -14162163.68747 -11027823.39845  22052252.1174                   22052252.6294
 -25500485.52348 -19855598.42246  21591256.6804                   21591256.3244
  -3893370.21546  -3023500.87143  23715544.1254                   23715544.3954
 -19574848.56248 -15245343.05945  21492792.9454                   21492793.4734
  -5948663.21147  -4627868.89844  23996525.1254                   23996525.4024
 11  9 24  1  4  0.0000000  0 10G12G02G29G30G25G15G05G18G26G21
 -15871130.71547 -12352819.79344  23729311.0634                   23729311.9574
 -25404977.53547 -19787734.48044  22710265.1094                   22710263.5864
 -25337267.65648 -19731028.09446  20558655.8364                   20558654.9384
 -11945195.78147  -9294350.03944  22789162.4614                   22789164.1914
 -18159640.96947 -14135383.39845  22568401.7504                   22568405.4534
 -14267107.50047 -11109597.69145  22032282.1644                   22032282.4614
 -25444904.14848 -19812288.24646  21601833.8834                   21601833.0984
  -3993956.57847  -3101879.68743  23696403.7344                   23696404.7034
 -19647273.30547 -15301777.85945  21479011.2584                   21479011.6604
  -6028285.54747  -4689912.16844  23981374.0314                   23981374.0004
 11  9 24  1  4 30.0000000  0 10G12G02G29G30G25G15G05G18G26G21
 -15795307.46147 -12293736.78944  23743740.4694                   23743741.0704
 -25370108.58247 -19760563.85544  22716900.3914                   22716899.3634
 -25404614.11748 -19783505.80147  20545840.3444                   20545839.3594
 -11922084.56647  -9276341.25844  22793560.9534                   22793561.8634
 -18108113.33647 -14095232.02745  22578207.6884                   22578210.6994
 -14371754.25847 -11191140.52046  22012368.6954                   22012368.4344
 -25389084.10548 -19768792.10946  21612456.4534                   21612455.3094
  -4094308.86746  -3180076.12144  23677306.8594                   23677308.4384
 -19719127.87147 -15357768.35545  21465337.8524                   21465337.3794
  -6107919.32847  -4751964.37544  23966220.0004                   23966220.6254
 11  9 24  1  5  0.0000000  0 10G12G02G29G30G25G15G05G18G26G21
 -15719471.32046 -12234643.74244  23758171.2664                   23758172.5004
 -25335099.28147 -19733283.87544  22723562.6884                   22723561.1564
 -25471540.44548 -19835656.13347  20533104.6644                   20533103.7274
 -11898525.84446  -9257983.76644  22798043.3364                   22798044.2504
 -18056299.31247 -14054857.49245  22588067.2344                   22588069.7234
 -14476103.50047 -11272451.52746  21992511.1094                   21992511.8134
 -25333030.50048 -19725113.95746  21623122.9304                   21623121.6914
  -4194428.80147  -3258091.51643  23658254.3834                   23658255.4304
 -19790412.16448 -15413314.47745  21451772.5784                   21451772.9654
  -6187566.96947  -4814027.35244  23951063.1484                   23951063.3134
 11  9 24  1  5 30.0000000  0 10G12G02G29G30G25G15G05G18G26G21
 -14068205.32847 -10947943.05744  24072396.7894                   24072398.4804
 -23724528.50447 -18478293.65245  23030044.3674                   23030041.8204
 -23962620.13748 -18659874.02747  20820242.8054                   20820241.6844
 -10299101.10547  -8011678.73444  23102404.1484                   23102404.5234
 -16428781.81247 -12786662.08245  22897774.1024                   22897777.3594
 -13004726.96147 -10125924.25045  22272504.8914                   22272504.8134
 -23701325.39848 -18453655.42246  21933625.9614                   21933624.9734
  -2718890.37946  -2108321.19943  23939039.6094                   23939040.5394
 -18285699.14148 -14240810.74645  21738109.9844                   21738110.0354
  -4691804.40247  -3648497.97744  24235697.5784                   24235697.4414
 11  9 24  1  6  0.0000000  0 10G12G02G29G30G25G15G05G18G26G21
 -13992347.48046 -10888833.07843  24086831.0864                   24086834.5704
 -23689232.89547 -18450790.58645  23036760.2274                   23036758.2854
 -24028695.26248 -18711361.08647  20807668.7344                   20807667.8484
 -10274651.22747  -7992626.86344  23107056.5944                   23107057.4494
 -16376400.23847 -12745845.29345  22907741.2664                   22907745.1214
 -13108467.97747 -10206761.31245  22252763.4224                   22252763.5864
 -23644807.48848 -18409615.50046  21944380.5314                   21944380.0554
  -2818538.96947  -2185969.30543  23920078.0944                   23920078.6174
 -18355830.15648 -14295458.22746  21724764.4534                   21724764.7584
  -4771476.83647  -3710580.30944  24220536.3204                   24220536.1024
 11  9 24  1  6 30.0000000  0 10G12G02G29G30G25G15G05G18G26G21
 -13916485.02346 -10829719.56244  24101268.3284                   24101270.2664
 -23653795.35247 -18423176.90645  23043504.3524                   23043503.1174
 -24094343.60548 -18762515.61346  20795176.2424                   20795175.2774
 -10249761.30147  -7973232.08644  23111792.5234                   23111793.9344
 -16323741.22747 -12704812.30545  22917762.2194                   22917765.3834
 -13211901.87547 -10287359.05145  22233080.4614                   22233080.3674
 -23588062.52348 -18365398.63746  21955179.2814                   21955177.7584
  -2917952.34046  -2263434.09844  23901158.5704                   23901160.8954
 -18425382.30147 -14349654.63346  21711529.0474                   21711529.1054
  -4851163.73447  -3772673.90244  24205372.5394                   24205372.6094
 11  9 24  1  7  0.0000000  0 10G12G02G29G30G25G15G05G18G26G21
 -13840619.50846 -10770603.60943  24115705.1334                   24115707.0274
 -23618213.96947 -18395451.13744  23050275.4064                   23050273.7584
 -24159560.98048 -18813334.28946  20782765.8204                   20782764.9184
 -10224432.52747  -7953495.35244  23116612.5704                   23116613.0944
 -16270806.39147 -12663564.39545  22927835.4224                   22927837.3324
 -13315024.17247 -10367713.99245  22213457.2664                   22213457.3634
 -23531091.63347 -18321005.71146  21966020.3984                   21966019.0824
  -3017128.17646  -2340713.81243  23882286.6254                   23882288.0784
 -18494351.33647 -14403396.65645  21698404.8594                   21698404.7774
  -4930863.97747  -3834777.86344  24190205.8754                   24190205.7274
 11  9 24  1  7 30.0000000  0 10G12G02G29G30G25G15G05G18G26G21
 -13764754.16046 -10711487.82844  24130141.6254                   24130143.8404
 -23582488.92247 -18367613.44945  23057073.1644                   23057071.7384
 -24224346.08248 -18863816.16447  20770437.6094                   20770436.6414
 -10198667.98846  -7933419.09044  23121515.2114                   23121516.6294
 -16217599.26647 -12622104.35245  22937960.5234                   22937963.1484
 -13417832.28548 -10447824.12146  22193893.6644                   22193893.8524
 -23473897.50447 -18276438.84446  21976904.3204                   21976902.8754
  -3116065.96946  -2417808.04343  23863459.4844                   23863460.1884
 -18562734.77047 -14456682.38746  21685391.7114                   21685391.7074
  -5010577.98047  -3896892.59044  24175036.3444                   24175036.5664
 11  9 24  1  8  0.0000000  0 10G12G02G29G30G25G15G05G18G26G21
 -13688891.43447 -10652374.10544  24144578.5314                   24144580.1764
 -23546619.31247 -18339663.09445  23063898.8834                   23063897.6564
 -24288696.66848 -18913959.46147  20758191.7814                   20758190.6564
 -10172470.17247  -7913005.19144  23126500.4224                   23126501.2934
 -16164122.80947 -12580434.39845  22948136.5234                   22948140.4414
 -13520323.28548 -10527687.12546  22174389.9384                   22174390.1564
 -23416482.39547 -18231699.79346  21987829.5864                   21987828.1804
  -3214764.90246  -2494716.13744  23844677.1414                   23844678.3554
 -18630529.96147 -14509509.75046  21672490.5164                   21672490.5784
  -5090305.80147  -3959018.08244  24159864.7344                   24159864.1174
 11  9 24  1  8 30.0000000  0 10G12G02G29G30G25G15G05G18G26G21
 -13613033.39147 -10593264.00844  24159012.7664                   24159015.3134
 -23510604.69947 -18311599.73445  23070752.3364                   23070750.6134
 -24352609.92248 -18963761.96947  20746029.5864                   20746028.8054
 -10145840.92247  -7892255.14144  23131568.1254                   23131569.1724
 -16110379.37947 -12538556.44145  22958363.5084                   22958367.1724
 -13622493.07047 -10607299.86746  22154947.6804                   22154947.6254
 -23358847.72747 -18186789.65646  21998797.4224                   21998796.0594
  -3313222.96946  -2571436.54743  23825941.1564                   23825941.7234
 -18697733.37948 -14561875.98446  21659702.2344                   21659702.0004
  -5170047.00847  -4021154.00444  24144690.8984                   24144690.2704
 11  9 24  1  9  0.0000000  0 10G12G02G29G30G25G15G05G18G26G21
 -13537185.50447 -10534161.84844  24173446.7034                   24173448.7274
 -23474446.80947 -18283424.74645  23077633.0864                   23077631.7154
 -24416086.14548 -19013223.93047  20733950.6644                   20733949.6954
 -10118785.41847  -7871172.93044  23136716.9924                   23136717.5354
 -16056374.53947 -12496474.77345  22968640.3364                   22968643.2344
 -13724341.24248 -10686661.97746  22135566.5554                   22135566.2274
 -23300998.09847 -18141711.98846  22009805.2664                   22009804.4774
  -3411442.16846  -2647970.83243  23807250.5704                   23807251.1214
 -18764344.86747 -14613780.98046  21647026.2424                   21647026.4774
  -5249803.98447  -4083302.21943  24129513.4384                   24129512.7704
 11  9 24  1  9 30.0000000  0 10G12G02G29G30G25G15G05G18G26G21
 -13461349.39547 -10475068.84444  24187878.2894                   24187880.8244
 -23438144.07847 -18255136.90245  23084541.3834                   23084539.2974
 -24479121.84848 -19062342.64547  20721955.2504                   20721954.0594
 -10091305.27747  -7849759.83644  23141945.8674                   23141946.7734
 -16002110.31247 -12454190.98445  22978966.6334                   22978969.2034
 -13825863.44948 -10765770.07846  22116247.1414                   22116247.4534
 -23242934.88347 -18096467.93746  22020854.8594                   22020853.6174
  -3509420.49247  -2724317.43744  23788605.4694                   23788606.9384
 -18830360.69147 -14665221.82045  21634464.1024                   21634463.4804
  -5329576.13747  -4145462.24243  24114333.1724                   24114332.1604
 11  9 24  1 10  0.0000000  0 10G12G02G29G30G25G15G05G18G26G21
 -13385527.94947 -10415987.27344  24202306.3914                   24202308.8984
 -23401696.50847 -18226736.18745  23091476.9694                   23091475.3324
 -24541715.85948 -19111117.18747  20710043.9844                   20710043.0314
 -10063403.71147  -7828018.36744  23147255.5004                   23147256.5084
 -15947590.30547 -12411707.90245  22989341.4064                   22989344.5744
 -13927057.41048 -10844622.41445  22096990.5474                   22096990.1454
 -23184661.27347 -18051059.92246  22031944.0314                   22031942.9024
  -3607157.86347  -2800476.26243  23770006.4774                   23770007.1954
 -18895778.79748 -14716196.89146  21622015.3524                   21622015.3444
  -5409363.90647  -4207634.44144  24099149.3134                   24099149.4024
 11  9 24  1 10 30.0000000  0 10G12G02G29G30G25G15G05G18G26G21
 -13309725.52347 -10356920.49244  24216731.1094                   24216732.7934
 -23365104.48847 -18198222.93744  23098440.5164                   23098438.8524
 -24603866.53548 -19159546.26247  20698217.1254                   20698216.4144
 -10035084.06247  -7805951.14144  23152644.3364                   23152645.8014
 -15892818.32447 -12369028.46545  22999764.2194                   22999767.7034
 -14027920.78548 -10923217.14846  22077796.3984                   22077796.7424
 -23126179.90647 -18005490.02046  22043072.6174                   22043071.7584
  -3704653.94947  -2876447.09843  23751453.7974                   23751454.8284
 -18960597.25848 -14766704.73046  21609681.0704                   21609680.3954
  -5489168.27047  -4269819.57443  24083963.7664                   24083962.9494
 11  9 24  1 11  0.0000000  0 10G12G02G29G30G25G15G05G18G26G21
 -13233943.68747 -10297869.77044  24231152.0084                   24231153.9614
 -23328366.87947 -18169596.21145  23105431.3284                   23105429.7544
 -24665571.23848 -19207627.82847  20686475.1024                   20686474.1914
 -10006348.27747  -7783559.64544  23158113.0234                   23158113.6844
 -15837796.71947 -12326154.52345  23010234.0784                   23010238.0824
 -14128449.80948 -11001551.36346  22058666.6334                   22058666.6764
 -23067492.31648 -17959759.42646  22054240.2814                   22054239.3524
  -3801907.25047  -2952228.75844  23732947.1254                   23732948.1054
 -19024812.74248 -14816742.71145  21597460.9774                   21597460.5664
  -5568988.66446  -4332017.15643  24068774.2734                   24068773.9344
 11  9 24  1 11 30.0000000  0 10G12G02G29G30G25G15G05G18G26G21
 -13158184.02746 -10238836.35244  24245568.8834                   24245570.6954
 -23291482.23847 -18140854.91444  23112450.2424                   23112447.6914
 -24726826.19547 -19255358.93046  20674818.2424                   20674817.5594
  -9977197.82446  -7760845.03144  23163660.6094                   23163660.7894
 -15782527.32447 -12283087.48045  23020752.2814                   23020754.9384
 -14228640.05547 -11079621.59846  22039601.1954                   22039600.8364
 -23008599.48047 -17913868.90246  22065446.9924                   22065446.4654
  -3898915.91046  -3027819.77044  23714486.6724                   23714487.3364
 -19088421.29747 -14866307.75845  21585356.5004                   21585356.2464
  -5648823.69546  -4394226.18043  24053581.7664                   24053581.3594
 11  9 24  1 12  0.0000000  0 10G12G02G29G30G25G15G05G18G26G21
 -13082452.13746 -10179824.56243  24259980.0164                   24259982.2464
 -23254452.64847 -18112000.65644  23119496.4614                   23119494.2424
 -24787632.37548 -19302740.35547  20663247.4144                   20663246.6454
  -9947638.22747  -7737811.60544  23169285.3674                   23169286.2114
 -15727016.02747 -12239831.97745  23031315.6024                   23031319.2234
 -14328491.50048 -11157427.82446  22020600.1564                   22020599.7934
 -22949506.39547 -17867822.32846  22076692.3594                   22076691.1454
  -3995681.29347  -3103221.21944  23696073.3834                   23696073.0394
 -19151423.60947 -14915400.41846  21573367.7034                   21573367.2074
  -5728676.50847  -4456449.01644  24038386.4844                   24038385.9264
 11  9 24  1 12 30.0000000  0 10G12G02G29G30G25G15G05G18G26G21
 -13006749.10946 -10120835.25443  24274385.8054                   24274388.4184
 -23217276.24247 -18083032.02744  23126570.3754                   23126569.5234
 -24847986.48047 -19349769.48847  20651762.2344                   20651761.5274
  -9917670.49247  -7714460.14144  23174987.9774                   23174988.1214
 -15671264.21947 -12196389.03545  23041924.4304                   23041927.9384
 -14427999.29748 -11234966.27346  22001664.1564                   22001664.2774
 -22890213.78147 -17821620.29346  22087975.1094                   22087974.2974
  -4092201.44547  -3178431.58644  23677705.8284                   23677707.0434
 -19213815.11347 -14964017.11346  21561494.5864                   21561494.0004
  -5808545.35547  -4518684.34844  24023188.0234                   24023187.8834
 11  9 24  1 13  0.0000000  0 10G12G02G29G30G25G15G05G18G26G21
 -12931078.76246 -10061871.41443  24288785.1644                   24288786.8754
 -23179953.67247 -18053949.48044  23133673.3834                   23133671.0044
 -24907887.10548 -19396445.27347  20640363.6414                   20640362.6214
  -9887298.58246  -7690793.74244  23180767.2344                   23180768.2194
 -15615276.26647 -12152762.07845  23052579.1024                   23052582.8204
 -14527161.93047 -11312235.75846  21982794.0234                   21982793.8134
 -22830725.08647 -17775265.46546  22099295.7734                   22099295.2234
  -4188476.84047  -3253451.23044  23659384.8134                   23659385.9144
 -19275594.79347 -15012157.05145  21549738.4694                   21549738.3794
  -5888431.64546  -4580933.28944  24007985.6954                   24007985.9694
 11  9 24  1 13 30.0000000  0 10G12G02G29G30G25G15G05G18G26G21
 -12855443.64546 -10002935.06243  24303178.3134                   24303180.0664
 -23142484.59047 -18024752.79344  23140803.3134                   23140801.8634
 -24967332.51648 -19442766.34447  20629051.8054                   20629050.3794
  -9856525.39146  -7666814.66844  23186623.3364                   23186624.4414
 -15559055.21547 -12108953.51645  23063277.4064                   23063280.9264
 -14625976.17247 -11389233.77346  21963989.9614                   21963989.4884
 -22771042.37547 -17728759.44146  22110652.8984                   22110651.8364
  -4284506.82847  -3328279.64843  23641110.8284                   23641110.5864
 -19336760.03147 -15059818.21546  21538099.0784                   21538098.6844
  -5968335.54347  -4643195.95744  23992780.6094                   23992780.0234
 11  9 24  1 14  0.0000000  0 10G12G02G29G30G25G15G05G18G26G21
 -12779846.53546  -9944028.28543  24317563.7974                   24317566.8054
 -23104868.00847 -17995441.12144  23147961.3754                   23147959.4454
 -25026319.81248 -19488730.43447  20617826.8204                   20617826.3054
  -9825352.93746  -7642524.47344  23192555.5864                   23192556.8554
 -15502603.59847 -12064965.26245  23074020.2504                   23074022.2624
 -14724438.36348 -11465957.47346  21945253.8364                   21945252.8404
 -22711167.10547 -17682103.39146  22122046.3834                   22122046.0234
  -4380289.68447  -3402915.46143  23622884.1174                   23622884.5744
 -19397307.91448 -15106998.31646  21526577.3134                   21526576.9694
  -6048256.46147  -4705471.85544  23977572.0474                   23977571.0594
 11  9 24  1 14 30.0000000  0 10G12G02G29G30G25G15G05G18G26G21
 -12704291.69146  -9885154.49243  24331941.3204                   24331944.2194
 -23067105.46547 -17966015.75844  23155147.5314                   23155144.9924
 -25084849.03148 -19534337.59047  20606689.0164                   20606688.3444
  -9793786.02347  -7617926.93444  23198562.6804                   23198562.8914
 -15445926.52747 -12020801.33645  23084805.2894                   23084808.4694
 -14822547.61348 -11542406.13746  21926584.2034                   21926583.9184
 -22651103.93447 -17635300.91046  22133476.7344                   22133474.9304
  -4475826.86747  -3477359.87143  23604704.5164                   23604703.6254
 -19457237.92648 -15153696.97346  21515173.3364                   21515172.3754
  -6128196.44147  -4767762.61344  23962359.9534                   23962359.3634
 11  9 24  1 15  0.0000000  0 10G12G02G29G30G25G15G05G18G26G21
 -12628780.47747  -9826314.66444  24346312.0634                   24346313.3634
 -23029195.75047 -17936475.69544  23162361.1564                   23162359.0234
 -25142917.34047 -19579585.57847  20595639.0474                   20595638.1644
  -9761826.68046  -7593023.56644  23204643.6644                   23204645.1994
 -15389026.25047 -11976463.47745  23095632.9534                   23095636.4884
 -14920300.11748 -11618576.83646  21907982.0394                   21907981.8134
 -22590853.76647 -17588352.71146  22144941.5084                   22144940.6564
  -4571116.66047  -3551611.48843  23586570.4614                   23586570.7234
 -19516547.09847 -15199911.84046  21503886.7114                   21503886.0634
  -6208154.96946  -4830067.80944  23947143.5164                   23947144.1374
 11  9 24  1 15 30.0000000  0 10G12G02G29G30G25G15G05G18G26G21
 -12553315.25446  -9767510.68044  24360672.4384                   24360674.5204
 -22991136.87947 -17906819.46544  23169603.4144                   23169601.9024
 -25200521.73847 -19624472.07447  20584677.2114                   20584676.4964
  -9729476.34047  -7567815.54744  23210799.9774                   23210801.0904
 -15331904.64847 -11931953.16445  23106502.8524                   23106506.4694
 -15017691.66848 -11694466.27346  21889448.7974                   21889448.3134
 -22530418.10947 -17541260.00446  22156442.4224                   22156441.2154
  -4666157.12947  -3625668.82444  23568484.8594                   23568484.8984
 -19575231.41047 -15245639.80146  21492719.2664                   21492718.9024
  -6288130.64546  -4892386.35544  23931924.9924                   23931924.8204
 11  9 24  1 16  0.0000000  0 10G12G02G29G30G25G15G05G18G26G21
 -12477900.60547  -9708746.08244  24375022.7974                   24375025.7304
 -22952930.87946 -17877048.54744  23176874.0084                   23176871.9574
 -25257661.95348 -19668996.86747  20573803.6334                   20573803.0394
  -9696739.85246  -7542306.63344  23217030.0164                   23217030.2464
 -15274566.70347 -11887274.26245  23117413.6644                   23117417.1524
 -15114721.28548 -11770073.69146  21870985.1334                   21870984.6884
 -22469800.84047 -17494025.75446  22167977.1254                   22167976.2194
  -4760949.85246  -3699533.14843  23550446.0944                   23550446.9694
 -19633290.54347 -15290880.62146  21481671.1724                   21481670.4734
  -6368125.62947  -4954719.98044  23916702.9224                   23916701.8554
 11  9 24  1 16 30.0000000  0 10G12G02G29G30G25G15G05G18G26G21
 -12402536.11747  -9650020.62544  24389364.4144                   24389367.2074
 -22914574.70746 -17847160.61744  23184172.5084                   23184171.0704
 -25314333.47748 -19713156.44547  20563019.4614                   20563018.4774
  -9663617.48846  -7516497.04344  23223332.8204                   23223334.1454
 -15217013.05947 -11842427.30545  23128366.0554                   23128368.1454
 -15211383.31248 -11845394.66846  21852590.5474                   21852590.0634
 -22409001.61347 -17446649.73046  22179546.8754                   22179545.5354
  -4855491.11346  -3773201.49243  23532454.8754                   23532455.7074
 -19690719.90648 -15335630.70745  21470742.3594                   21470742.3794
  -6448137.37947  -5017066.65644  23901476.5784                   23901476.3054
 11  9 24  1 17  0.0000000  0 10G12G02G29G30G25G15G05G18G26G21
 -12327226.78147  -9591338.12144  24403694.9534                   24403698.2544
 -22876069.75447 -17817156.78944  23191500.7034                   23191498.5004
 -25370536.40648 -19756950.88747  20552324.2274                   20552323.0474
  -9630113.91847  -7490390.40244  23229708.0314                   23229709.4494
 -15159248.73447 -11797416.15645  23139358.4614                   23139361.3054
 -15307677.00048 -11920428.63346  21834266.9774                   21834266.2194
 -22348024.48447 -17399135.07846  22191150.7584                   22191149.6564
  -4949782.30947  -3846675.01244  23514512.6484                   23514512.3444
 -19747519.08248 -15379889.73046  21459933.7734                   21459933.6644
  -6528167.65247  -5079427.74244  23886247.1334                   23886247.0234
 11  9 24  1 17 30.0000000  0 10G12G02G29G30G25G15G05G18G26G21
 -12251973.73047  -9532699.46544  24418015.3364                   24418018.2814
 -22837414.23846 -17787035.61744  23198855.9224                   23198854.5004
 -25426267.12948 -19800377.37147  20541718.9614                   20541717.8134
  -9596230.59046  -7463987.85244  23236156.1954                   23236157.0704
 -15101275.42247 -11752242.19545  23150389.9774                   23150393.1454
 -15403597.92248 -11995172.11746  21816013.2664                   21816012.7734
 -22286870.43447 -17351482.57446  22202787.8594                   22202786.5784
  -5043821.59046  -3919952.23044  23496617.7504                   23496616.5124
 -19803684.27348 -15423654.74246  21449245.9064                   21449245.2584
  -6608215.50847  -5141802.59044  23871015.3444                   23871013.9304
 11  9 24  1 18  0.0000000  0 10G12G02G29G30G25G15G05G18G26G21
 -12176780.40247  -9474107.37144  24432324.3524                   24432327.3594
 -22798608.56246 -17756797.41844  23206240.2194                   23206238.6804
 -25481524.47348 -19843434.98047  20531203.8914                   20531203.0944
  -9561971.24646  -7437292.29744  23242675.4844                   23242676.5234
 -15043097.01647 -11706908.38745  23161461.2894                   23161464.4024
 -15499143.74648 -12069623.32446  21797831.8134                   21797831.3324
 -22225541.93447 -17303694.13346  22214458.5084                   22214457.2344
  -5137608.85247  -3993033.06244  23478769.7734                   23478770.6414
 -19859214.02748 -15466924.62146  21438679.1254                   21438678.2274
  -6688281.28147  -5204191.35544  23855778.4144                   23855778.0004
 11  9 24  1 18 30.0000000  0 10G12G02G29G30G25G15G05G18G26G21
 -12101650.12147  -9415564.40244  24446620.9614                   24446623.7074
 -22759652.78146 -17726442.27744  23213653.6724                   23213652.1134
 -25536307.34848 -19886122.87947  20520779.0394                   20520778.2624
  -9527339.19146  -7410306.29344  23249265.6334                   23249266.7504
 -14984717.09047 -11661417.58245  23172570.2034                   23172574.4224
 -15594312.16447 -12143780.45746  21779721.4774                   21779721.1524
 -22164042.08647 -17255772.16446  22226161.1024                   22226160.0164
  -5231143.81646  -4065917.32044  23460970.7344                   23460971.0904
 -19914106.77748 -15509698.11746  21428232.8984                   21428232.1644
  -6768365.89147  -5266594.80544  23840539.2584                   23840538.6914
 11  9 24  1 19  0.0000000  0 10G12G02G29G30G25G15G05G18G26G21
 -12026586.48047  -9357073.33244  24460905.3594                   24460907.5314
 -22720547.65647 -17695970.74644  23221095.7274                   23221093.3364
 -25590614.64548 -19928440.20347  20510444.5554                   20510443.1684
  -9492338.35946  -7383032.94144  23255926.3204                   23255927.9064
 -14926139.86747 -11615773.03545  23183717.2584                   23183721.2034
 -15689101.43448 -12217642.14546  21761683.7344                   21761682.8634
 -22102374.04748 -17207719.13746  22237896.4694                   22237895.3094
  -5324426.82847  -4138605.27044  23443219.3364                   23443219.1374
 -19968361.55147 -15551974.50446  21417908.6564                   21417907.9224
  -6848470.00847  -5329013.44944  23825295.8834                   23825295.1374
 11  9 24  1 19 30.0000000  0 10G12G02G29G30G25G15G05G18G26G21
 -11951591.00847  -9298635.38343  24475176.7814                   24475178.7664
 -22681291.82046 -17665381.79344  23228565.7034                   23228562.4224
 -25644443.62148 -19970384.81247  20500201.5474                   20500199.9144
  -9456970.76246  -7355473.78544  23262656.3524                   23262657.7584
 -14867367.47347 -11569976.37945  23194901.3054                   23194904.7194
 -15783507.59448 -12291205.30946  21743719.0394                   21743718.7704
 -22040538.66447 -17159535.71146  22249663.0004                   22249662.1994
  -5417456.46147  -4211095.77344  23425516.7974                   23425516.3714
 -20021975.13348 -15593751.24646  21407706.5634                   21407705.8054
  -6928592.86347  -5391446.75844  23810048.7344                   23810048.2734
 11  9 24  1 20  0.0000000  0 10G12G02G29G30G25G15G05G18G26G21
 -11876666.28946  -9240252.55943  24489433.9384                   24489436.2704
 -22641884.91047 -17634675.10244  23236064.3754                   23236062.4654
 -25697792.41448 -20011955.25047  20490049.6564                   20490048.3444
  -9421239.20746  -7327631.04344  23269455.7194                   23269457.4734
 -14808403.16447 -11524030.19545  23206122.0394                   23206125.2344
 -15877528.02748 -12364467.90646  21725826.9144                   21725826.8284
 -21978538.60947 -17111223.96946  22261461.3754                   22261459.9734
  -5510232.12947  -4283388.39144  23407861.5004                   23407862.6094
 -20074945.42247 -15635026.74246  21397626.5784                   21397626.2234
  -7008735.01647  -5453895.06244  23794797.8594                   23794797.2194
 11  9 24  1 20 30.0000000  0 10G12G02G29G30G25G15G05G18G26G21
 -11801814.39546  -9181926.53543  24503677.7504                   24503681.1414
 -22602325.43046 -17603849.52344  23243592.1024                   23243590.1724
 -25750658.46148 -20053149.52047  20479989.1564                   20479987.5704
  -9385145.84846  -7299506.34044  23276324.3984                   23276325.5314
 -14749249.14147 -11477936.19145  23217378.7194                   23217382.4804
 -15971158.59448 -12437426.71146  21708009.6414                   21708009.4304
 -21916374.84047 -17062784.66845  22273290.5944                   22273289.7504
  -5602751.98447  -4355481.66044  23390256.1804                   23390255.8444
 -20127269.48048 -15675798.67646  21387669.7034                   21387668.9614
  -7088895.16447  -5516357.39844  23779543.9224                   23779542.3834
 11  9 24  1 21  0.0000000  0 10G12G02G29G30G25G15G05G18G26G21
 -11727039.19546  -9123660.25843  24517907.9064                   24517909.8524
 -22562614.21547 -17572905.72744  23251149.3674                   23251147.1024
 -25803040.69148 -20093966.80147  20470021.2034                   20470019.9224
  -9348694.67246  -7271102.84044  23283260.4454                   23283261.6174
 -14689909.50447 -11431697.54345  23228671.1644                   23228672.7854
 -16064397.62147 -12510080.42246  21690266.9224                   21690266.2624
 -21854050.65248 -17014220.34446  22285150.8594                   22285149.9144
  -5695017.27346  -4427376.58244  23372698.3754                   23372698.2814
 -20178946.36348 -15716066.31646  21377835.7664                   21377834.8364
  -7169074.40246  -5578834.62944  23764285.9774                   23764285.3674
 11  9 24  1 21 30.0000000  0 10G12G02G29G30G25G15G05G18G26G21
 -11652344.61346  -9065456.78543  24532121.9144                   24532123.4224
 -22522752.43746 -17541844.60544  23258733.8594                   23258731.6954
 -25854938.89148 -20134406.91847  20460145.3594                   20460143.9344
  -9311889.96546  -7242423.84844  23290264.2894                   23290265.1764
 -14630388.96147 -11385317.92245  23239997.2424                   23240000.7894
 -16157243.95748 -12582428.13346  21672599.0704                   21672598.4694
 -21791569.67247 -16965533.86345  22297040.1564                   22297039.0204
  -5787028.41847  -4499073.46544  23355188.8524                   23355188.6374
 -20229975.36747 -15755829.12946  21368124.9694                   21368124.7234
  -7249274.45346  -5641328.05944  23749024.1804                   23749023.8984
 11  9 24  1 22  0.0000000  0 10G12G02G29G30G25G15G05G18G26G21
 -11577732.40646  -9007317.47743  24546320.3754                   24546321.8094
 -22482738.70346 -17510665.08644  23266348.6804                   23266347.5234
 -25906350.41047 -20174467.80947  20450361.8204                   20450360.9304
  -9274733.89546  -7213471.07844  23297334.9454                   23297335.3914
 -14570689.68747 -11338799.05945  23251357.5234                   23251361.3794
 -16249693.82848 -12654466.91046  21655006.4224                   21655005.6844
 -21728933.03947 -16916726.07045  22308959.7194                   22308958.0984
  -5878783.98047  -4570571.18744  23337728.3444                   23337728.7854
 -20280353.90247 -15795085.07446  21358538.4304                   21358537.5984
  -7329494.14546  -5703836.81644  23733759.3754                   23733758.3204
 11  9 24  1 22 30.0000000  0 10G12G02G29G30G25G15G05G18G26G21
 -11503206.36747  -8949245.32443  24560502.4694                   24560504.4184
 -22442574.16846 -17479368.04745  23273991.9144                   23273990.3984
 -25957274.52348 -20214148.89847  20440671.2504                   20440669.8594
  -9237230.78146  -7184247.86344  23304471.3594                   23304472.5634
 -14510816.23447 -11292144.43445  23262751.0554                   23262754.4694
 -16341745.64148 -12726195.53146  21637489.4064                   21637488.7464
 -21666144.40247 -16867799.84845  22320907.6254                   22320906.8834
  -5970284.61747  -4641870.25844  23320316.0234                   23320316.4344
 -20330081.26247 -15833833.60946  21349075.6484                   21349074.8874
  -7409734.78946  -5766361.87144  23718489.4694                   23718488.6954
 11  9 24  1 23  0.0000000  0 10G12G02G29G30G25G15G05G18G26G21
 -11428766.13346  -8891240.07043  24574667.5864                   24574670.1294
 -22402255.25046 -17447950.68444  23281664.2344                   23281661.8134
 -26007706.35248 -20253446.39547  20431074.5004                   20431073.5204
  -9199380.48447  -7154754.14544  23311674.1804                   23311674.9924
 -14450768.53147 -11245354.04345  23274177.8594                   23274181.2424
 -16433393.84048 -12797609.63346  21620049.2894                   21620048.0864
 -21603202.68447 -16818754.35245  22332885.4614                   22332883.8444
  -6061527.06247  -4712968.13344  23302953.2664                   23302952.9614
 -20379152.57048 -15872070.93046  21339737.2734                   21339736.9414
  -7489993.44146  -5828900.94944  23703216.3674                   23703215.5314
 11  9 24  1 23 30.0000000  0 10G12G02G29G30G25G15G05G18G26G21
 -11354415.50846  -8833304.57443  24588815.5704                   24588818.7034
 -22361782.72346 -17416413.62944  23289365.8754                   23289363.6604
 -26057645.50048 -20292359.98047  20421571.3284                   20421570.5274
  -9161187.02046  -7124992.99244  23318942.1484                   23318943.0554
 -14390550.79347 -11198431.17645  23285637.2034                   23285640.3244
 -16524636.09848 -12868707.40646  21602686.1954                   21602685.6954
 -21540111.09447 -16769592.03945  22344891.0474                   22344890.6374
  -6152511.17647  -4783864.71544  23285639.4614                   23285639.0904
 -20427566.81247 -15909796.26646  21330524.7034                   21330524.0664
  -7570270.93746  -5891454.75044  23687940.1884                   23687939.3984
 11  9 24  1 24  0.0000000  0 10G12G02G29G30G25G15G05G18G26G21
 -11280157.56646  -8775441.30143  24602946.5314                   24602949.0664
 -22321156.96546 -17384757.20344  23297096.7114                   23297095.1024
 -26107090.96148 -20330888.88347  20412162.2584                   20412160.6994
  -9122654.20347  -7094967.40244  23326274.9384                   23326276.0474
 -14330166.99647 -11151378.87945  23297127.5394                   23297131.2704
 -16615470.84848 -12939487.65646  21585400.8754                   21585400.3164
 -21476872.28547 -16720315.05145  22356925.2974                   22356924.3444
  -6243237.57847  -4854560.45344  23268374.7114                   23268374.2664
 -20475322.88348 -15947008.73446  21321436.8524                   21321435.9964
  -7650568.04746  -5954023.82844  23672660.1484                   23672659.3404
 11  9 24  1 24 30.0000000  0 10G12G02G29G30G25G15G05G18G26G21
 -11205995.51646  -8717652.84043  24617059.6174                   24617062.7774
 -22280378.54346 -17352981.79744  23304856.9454                   23304854.2384
 -26156041.66448 -20369032.25847  20402847.1484                   20402845.9734
  -9083785.69947  -7064680.25444  23333671.0314                   23333671.7034
 -14269620.92647 -11104200.14845  23308649.6724                   23308652.4574
 -16705895.81648 -13009948.58646  21568194.0554                   21568192.4924
 -21413489.35247 -16670925.74245  22368986.5944                   22368985.5434
  -6333706.47347  -4925055.54744  23251159.1094                   23251158.3364
 -20522419.60248 -15983707.40646  21312474.4534                   21312473.6334
  -7730885.68046  -6016608.88744  23657376.2034                   23657374.8834
 11  9 24  1 25  0.0000000  0 10G12G02G29G30G25G15G05G18G26G21
 -11131933.04746  -8659941.96143  24631153.8834                   24631155.5394
 -22239447.19946 -17321087.25844  23312645.8914                   23312643.4774
 -26204496.29747 -20406789.08647  20393626.3674                   20393625.5204
  -9044585.01646  -7034134.27344  23341130.7504                   23341131.7704
 -14208916.30947 -11056897.87945  23320200.8594                   23320204.7234
 -16795908.55547 -13080088.31646  21551064.6254                   21551063.6954
 -21349964.93047 -16621426.17645  22381074.7114                   22381073.8054
  -6423917.93747  -4995349.98844  23233992.1724                   23233991.7234
 -20568856.07047 -16019891.61346  21303637.9924                   21303637.3594
  -7811224.31646  -6079210.31244  23642088.4694                   23642087.0984
 11  9 24  1 25 30.0000000  0 10G12G02G29G30G25G15G05G18G26G21
 -11057970.18746  -8602308.62143  24645228.0784                   24645230.0704
 -22198360.73046 -17289071.83245  23320464.7034                   23320462.5514
 -26252451.30548 -20444156.60247  20384501.0004                   20384499.6844
  -9005053.20746  -7003330.27044  23348653.7734                   23348654.3954
 -14148054.21147 -11009472.91045  23331782.4304                   23331785.9414
 -16885504.83248 -13149903.53146  21534015.0554                   21534014.3554
 -21286298.91447 -16571816.28145  22393189.5634                   22393188.6024
  -6513869.27347  -5065441.76644  23216874.6334                   23216874.4494
 -20614628.15247 -16055558.12146  21294927.7424                   21294926.8834
  -7891581.82847  -6141826.43744  23626797.1564                   23626795.4414
 11  9 24  1 26  0.0000000  0 10G12G02G29G30G25G15G05G18G26G21
 -10984111.86346  -8544756.81244  24659283.2974                   24659285.8554
 -22157121.26246 -17256937.18444  23328311.3054                   23328309.9924
 -26299907.22748 -20481135.20747  20375470.4924                   20375469.2234
  -8965195.54346  -6972272.35244  23356238.1334                   23356238.8284
 -14087040.08247 -10961929.43745  23343392.9384                   23343396.9344
 -16974684.05948 -13219393.74646  21517044.7114                   21517043.6724
 -21222495.66447 -16522099.44145  22405331.4064                   22405330.4924
  -6603562.38747  -5135332.32444  23199806.2114                   23199806.1294
 -20659736.48848 -16090707.40246  21286343.7664                   21286343.1374
  -7971960.25846  -6204458.85544  23611501.0474                   23611499.3204
 11  9 24  1 26 30.0000000  0 10G12G02G29G30G25G15G05G18G26G21
 -10910359.14146  -8487287.26643  24673318.4384                   24673320.3634
 -22115726.52747 -17224681.52345  23336188.8204                   23336185.9454
 -26346860.45748 -20517722.11747  20366535.6174                   20366534.1134
  -8925013.38347  -6940961.54744  23363884.9304                   23363886.0984
 -14025875.25447 -10914268.57044  23355032.8444                   23355036.0594
 -17063441.64548 -13288555.42246  21500154.1884                   21500153.8094
 -21158555.58247 -16472275.98845  22417498.2894                   22417497.6804
  -6692994.77347  -5205019.69544  23182787.8914                   23182787.8164
 -20704177.65648 -16125336.82846  21277886.9454                   21277886.3554
  -8052358.02347  -6267106.35544  23596201.2504                   23596200.2154
 11  9 24  1 27  0.0000000  0 10G12G02G29G30G25G15G05G18G26G21
 -10836714.83646  -8429902.20744  24687331.4694                   24687334.9224
 -22074176.68747 -17192305.02344  23344095.0004                   23344093.3404
 -26393310.01248 -20553916.53947  20357696.7734                   20357694.9614
  -8884510.25847  -6909400.67244  23371592.4924                   23371593.3014
 -13964563.53547 -10866493.19544  23366700.0234                   23366703.1024
 -17151775.53147 -13357386.94146  21483345.1334                   21483344.4224
 -21094481.17647 -16422347.85945  22429691.8444                   22429691.0554
  -6782166.93046  -5274504.28544  23165818.6954                   23165818.7814
 -20747950.62148 -16159445.57446  21269557.0634                   21269556.3284
  -8132775.84846  -6329769.47744  23580898.7034                   23580897.5204
 11  9 24  1 27 30.0000000  0 10G12G02G29G30G25G15G05G18G26G21
 -10763182.32846  -8372604.26244  24701324.8134                   24701328.2504
 -22032472.46546 -17159808.22344  23352030.4534                   23352029.3364
 -26439255.06648 -20589717.84847  20348953.1954                   20348951.8204
  -8843690.06646  -6877592.74644  23379360.0634                   23379360.3674
 -13903108.66447 -10818606.30944  23378394.1024                   23378397.4454
 -17239683.72748 -13425886.74646  21466616.9224                   21466615.6414
 -21030275.60947 -16372317.52345  22441909.9304                   22441908.1724
  -6871078.98046  -5343786.21944  23148899.6804                   23148898.8364
 -20791054.64548 -16193033.07046  21261354.6724                   21261354.3444
  -8213214.15647  -6392448.57444  23565591.5234                   23565590.5904
 11  9 24  1 28  0.0000000  0 10G12G02G29G30G25G15G05G18G26G21
 -10689763.18746  -8315394.67644  24715295.9454                   24715299.5084
 -21990612.14547 -17127189.76244  23359997.6094                   23359995.4224
 -26484692.97348 -20625123.98047  20340306.7584                   20340305.1994
  -8802554.73846  -6845539.26644  23387187.5314                   23387189.1024
 -13841512.74647 -10770609.52044  23390115.4924                   23390118.7304
 -17327162.66448 -13494052.07446  21449969.4614                   21449968.7154
 -20965939.44547 -16322185.43045  22454152.6644                   22454151.6334
  -6959729.43747  -5412864.30144  23132029.3594                   23132028.9024
 -20833486.67648 -16226096.92646  21253280.0234                   21253279.5554
  -8293671.87147  -6455142.77744  23550280.7424                   23550279.7384
 11  9 24  1 28 30.0000000  0 10G12G02G29G30G25G15G05G18G26G21
 -10616460.17246  -8258275.62143  24729245.9304                   24729248.4454
 -21948596.24647 -17094450.10244  23367992.7734                   23367990.7934
 -26529622.77748 -20660134.19147  20331756.7664                   20331755.4804
  -8761107.95347  -6813243.06244  23395074.7814                   23395076.0084
 -13779779.67247 -10722505.83644  23401862.4614                   23401865.9884
 -17414210.16447 -13561881.23046  21433405.4614                   21433404.3554
 -20901475.77747 -16271953.98045  22466419.4224                   22466418.4414
  -7048118.53947  -5481738.74244  23115209.9064                   23115209.5274
 -20875246.13748 -16258636.71546  21245333.2034                   21245333.0514
  -8374149.48447  -6517852.50844  23534967.1724                   23534965.2384
 11  9 24  1 29  0.0000000  0  9G02G29G30G25G15G05G18G26G21
 -21906422.39146 -17061587.34044  23376017.7664                   23376015.4144
 -26574040.75848 -20694745.57447  20323304.1724                   20323302.9184
  -8719350.79747  -6780705.06244  23403020.7974                   23403021.2234
 -13717910.39547 -10674296.00045  23413636.5944                   23413639.6684
 -17500821.54348 -13629370.54746  21416923.7424                   21416922.4024
 -20836884.32047 -16221622.96545  22478710.7504                   22478710.3164
  -7136243.73047  -5550407.53144  23098440.1804                   23098439.5354
 -20916329.14148 -16290649.38746  21237515.6024                   21237515.1174
  -8454645.03947  -6580576.20744  23519649.0864                   23519647.8204
 11  9 24  1 29 30.0000000  0  9G02G29G30G25G15G05G18G26G21
 -21864090.71146 -17028601.63344  23384073.7344                   23384071.1994
 -26617945.74248 -20728957.21547  20314949.4224                   20314948.2304
  -8677286.90247  -6747928.02744  23411025.4144                   23411027.0514
 -13655908.62947 -10625982.97345  23425434.8594                   23425438.7384
 -17586994.72747 -13696518.40246  21400525.3834                   21400524.2424
 -20772167.85947 -16171194.55145  22491026.1414                   22491025.1334
  -7224105.26246  -5618870.88344  23081719.8054                   23081719.9304
 -20956734.97347 -16322134.39846  21229826.8444                   21229825.7114
  -8535159.00847  -6643314.27044  23504327.7504                   23504326.6254
 11  9 24  1 30  0.0000000  0  9G02G29G30G25G15G05G18G26G21
 -21821594.96146 -16995488.00044  23392160.1254                   23392157.6764
 -26661330.55948 -20762763.52747  20306693.5004                   20306692.0784
  -8634913.32447  -6714909.71544  23419089.2664                   23419089.9844
 -13593771.54747 -10577564.47744  23437259.3914                   23437262.1174
 -17672721.04748 -13763318.07046  21384211.8444                   21384211.2854
 -20707322.05147 -16120665.34445  22503365.6174                   22503364.6334
  -7311696.90647  -5687123.91844  23065051.9924                   23065051.3484
 -20996456.14148 -16353085.89846  21222267.8594                   21222267.3754
  -8615684.91847  -6706061.62544  23489003.9224                   23489003.0164
 11  9 24  1 30 30.0000000  0  9G02G29G30G25G15G05G18G26G21
 -21778932.16046 -16962244.20343  23400277.7114                   23400276.1954
 -26704190.99648 -20796161.23047  20298537.4694                   20298536.1414
  -8592230.50847  -6681650.38344  23427210.9384                   23427212.1094
 -13531499.59047 -10529040.86744  23449109.1414                   23449112.0864
 -17757995.25048 -13829765.43046  21367984.9614                   21367984.4534
 -20642346.44947 -16070035.00445  22515730.0554                   22515729.4104
  -7399015.40647  -5755164.15244  23048435.6884                   23048434.8834
 -21035488.59048 -16383500.73446  21214840.6564                   21214839.4264
  -8696220.30147  -6768816.37144  23473677.6564                   23473676.4384
 11  9 24  1 31  0.0000000  0  9G02G29G30G25G15G05G18G26G21
 -21736102.41846 -16928870.39544  23408429.0164                   23408427.4144
 -26746525.60248 -20829149.21147  20290481.4534                   20290480.0944
  -8549242.12147  -6648152.97744  23435392.0164                   23435393.1604
 -13469096.37947 -10480415.01244  23460984.2424                   23460987.1764
 -17842815.43748 -13895858.99646  21351844.0634                   21351843.1524
 -20577243.52347 -16019305.44945  22528118.7504                   22528117.5314
  -7486060.79747  -5822991.55544  23031871.5944                   23031870.3284
 -21073831.26248 -16413378.09446  21207544.2344                   21207543.0274
  -8776765.54347  -6831578.80544  23458351.5554                   23458349.7344
 11  9 24  1 31 30.0000000  0  9G02G29G30G25G15G05G18G26G21
 -21693109.34846 -16895369.26244  23416610.0474                   23416608.2274
 -26788337.10248 -20861729.56647  20282524.9384                   20282523.5904
  -8505954.94547  -6614422.73844  23443628.5394                   23443630.2544
 -13406568.79347 -10431692.23044  23472882.6174                   23472885.5474
 -17927182.47748 -13961599.48446  21335789.4224                   21335788.6294
 -20512019.07847 -15968481.18745  22540530.4774                   22540529.1724
  -7572836.79747  -5890609.06644  23015358.5474                   23015357.7704
 -21111486.61348 -16442719.87546  21200378.3674                   21200377.0984
  -8857324.23047  -6894351.71944  23443021.3054                   23443020.3954
 11  9 24  1 32  0.0000000  0  9G02G29G30G25G15G05G18G26G21
 -21649952.77046 -16861740.76244  23424822.2424                   23424820.7234
 -26829624.12947 -20893901.23847  20274668.4064                   20274667.1804
  -8462372.43046  -6580462.40644  23451921.9844                   23451923.4534
 -13343920.32846 -10382875.22745  23484804.3444                   23484807.8014
 -18011094.23447 -14026985.18446  21319821.4304                   21319820.5664
 -20446675.47747 -15917564.10545  22552965.2504                   22552963.6334
  -7659343.00846  -5958016.34044  22998896.2814                   22998896.1484
 -21148453.81247 -16471525.44546  21193343.6174                   21193342.8954
  -8937896.65846  -6957135.28144  23427688.5634                   23427687.9264
 11  9 24  1 32 30.0000000  0  9G02G29G30G25G15G05G18G26G21
 -21606635.02047 -16827986.65644  23433066.1254                   23433064.1334
 -26870387.93048 -20925665.21147  20266911.3444                   20266909.7854
  -8418500.35946  -6546276.44944  23460271.1254                   23460272.6134
 -13281156.59847 -10333968.43044  23496747.7734                   23496751.7544
 -18094550.77748 -14092016.20346  21303940.4064                   21303939.0314
 -20381217.31647 -15866557.73445  22565420.6954                   22565420.5704
  -7745581.83247  -6025215.28544  22982485.5704                   22982485.2584
 -21184733.83648 -16499795.53946  21186439.2344                   21186438.6604
  -9018485.11347  -7019931.43744  23412352.8594                   23412351.2544
 11  9 24  1 33  0.0000000  0  9G02G29G30G25G15G05G18G26G21
 -21563155.99647 -16794106.90644  23441339.6724                   23441336.8554
 -26910627.09448 -20957020.36747  20259253.9144                   20259252.4804
  -8374341.89146  -6511867.27744  23468673.9384                   23468675.6254
 -13218280.78547 -10284974.30945  23508712.5314                   23508715.7974
 -18177549.85948 -14156690.74646  21288146.1254                   21288145.0354
 -20315646.59047 -15815463.66445  22577899.1254                   22577898.5474
  -7831552.82447  -6092205.55144  22966125.9224                   22966124.9924
 -21220325.77748 -16527529.46946  21179666.6094                   21179665.9264
  -9099089.69157  -7082740.08254  23397014.2034                   23397012.6644
 11  9 24  1 33 30.0000000  0  9G02G29G30G25G15G05G18G26G21
 -21519515.60247 -16760101.41044  23449643.8054                   23449641.8014
 -26950340.49648 -20987965.84847  20251696.3674                   20251695.2074
  -8329900.26247  -6477237.47744  23477131.1954                   23477131.9454
 -13155296.36347 -10235895.57444  23520698.2504                   23520701.0984
 -18260088.89848 -14221006.80146  21272439.2424                   21272438.0274
 -20249965.54347 -15764283.64545  22590397.5474                   22590396.5354
  -7917256.52347  -6158987.53144  22949817.0234                   22949816.4184
 -21255228.32848 -16554726.21146  21173025.3674                   21173024.0704
  -9179710.50447  -7145561.40244  23381672.4224                   23381672.1134
 11  9 24  1 34  0.0000000  0  9G02G29G30G25G15G05G18G26G21
 -21475713.67247 -16725970.04744  23457979.3524                   23457976.7584
 -26989526.41448 -21018500.29747  20244240.0394                   20244238.4384
  -8285178.68447  -6442389.53144  23485641.2814                   23485642.1454
 -13092206.23047 -10186734.50444  23532703.5314                   23532706.6684
 -18342165.52347 -14284962.55946  21256820.5554                   21256819.2854
 -20184175.95347 -15713019.02345  22602916.7974                   22602915.7734
  -8002692.03947  -6225560.55544  22933559.0474                   22933558.6994
 -21289440.45748 -16581384.96146  21166514.7424                   21166514.0124
  -9260347.14147  -7208395.05944  23366328.4304                   23366326.6484
 11  9 24  1 34 30.0000000  0  9G02G29G30G25G15G05G18G26G21
 -21431751.12546 -16691713.48444  23466345.5864                   23466342.4064
 -27028185.00047 -21048623.84447  20236883.2194                   20236881.8364
  -8240181.65646  -6407326.97344  23494203.9064                   23494205.9964
 -13029015.07847 -10137494.65244  23544728.7814                   23544732.5904
 -18423778.55147 -14348557.03946  21241290.3364                   21241289.2664
 -20118281.36747 -15661672.59845  22615456.6094                   22615455.1954
  -8087860.42247  -6291925.41844  22917351.8674                   22917351.0474
 -21322962.37947 -16607505.89146  21160135.4224                   21160134.8134
  -9341000.94547  -7271242.11344  23350980.6564                   23350978.3484
 11  9 24  1 35  0.0000000  0  9G02G29G30G25G15G05G18G26G21
 -21387626.61347 -16657330.76244  23474741.4534                   23474740.0664
 -27066314.30548 -21078334.96147  20229627.3754                   20229625.9104
  -8194911.55546  -6372051.57444  23502818.3054                   23502820.0744
 -12965725.02747 -10088177.76244  23556772.6484                   23556776.4064
 -18504924.87548 -14411787.85946  21225848.2034                   21225847.7074
 -20052282.76247 -15610245.12545  22628015.7974                   22628014.2424
  -8172760.43447  -6358081.17644  22901195.7664                   22901194.9384
 -21355792.10248 -16633087.44546  21153888.2194                   21153887.6054
  -9421670.99647  -7334101.79744  23335629.2504                   23335627.2114
 11  9 24  1 35 30.0000000  0  9G02G29G30G25G15G05G18G26G21
 -21343340.86346 -16622822.39144  23483168.0784                   23483167.3164
 -27103913.52348 -21107633.02747  20222472.7504                   20222471.1134
  -8149372.10946  -6336566.34044  23511484.6884                   23511486.2584
 -12902339.93047 -10038786.82844  23568834.2584                   23568838.0274
 -18585602.59448 -14474653.55146  21210496.0164                   21210495.1134
 -19986182.85547 -15558738.71145  22640593.8444                   22640593.0594
  -8257392.85947  -6424028.42244  22885090.4924                   22885089.3054
 -21387929.13348 -16658129.23846  21147772.6644                   21147772.2894
  -9502358.10947  -7396974.79344  23320274.8134                   23320272.9494
 11  9 24  1 36  0.0000000  0  9G02G29G30G25G15G05G18G26G21
 -21298894.52046 -16588188.89144  23491625.8834                   23491624.3984
 -27140981.89548 -21136517.44147  20215418.8204                   20215417.6954
  -8103567.35546  -6300874.37144  23520201.4774                   23520202.2734
 -12838863.67247  -9989324.84844  23580914.1094                   23580917.4964
 -18665810.03548 -14537152.78146  21195233.0864                   21195232.0164
 -19919984.01247 -15507155.18445  22653190.9924                   22653190.1684
  -8341758.11347  -6489767.50044  22869036.3524                   22869036.0704
 -21419373.21148 -16682631.06646  21141788.9384                   21141788.2234
  -9583062.37547  -7459861.15244  23304917.3834                   23304916.2424
 11  9 24  1 36 30.0000000  0  9G02G29G30G25G15G05G18G26G21
 -21254286.52347 -16553429.41444  23500115.2974                   23500113.7894
 -27177517.44948 -21164986.68447  20208466.0554                   20208464.6644
  -8057499.95347  -6264977.71144  23528967.0084                   23528968.3594
 -12775298.89147  -9939793.85944  23593009.6884                   23593012.4224
 -18745544.36747 -14599283.34846  21180059.7974                   21180058.8134
 -19853687.86347 -15455495.84045  22665806.6564                   22665805.8524
  -8425855.40647  -6555297.75444  22853033.5314                   22853032.8794
 -21450122.97348 -16706591.86346  21135937.3914                   21135936.8914
  -9663783.52347  -7522760.67644  23289556.4384                   23289554.6764
 11  9 24  1 37  0.0000000  0  9G02G29G30G25G15G05G18G26G21
 -21209517.73847 -16518544.65244  23508633.9224                   23508633.0594
 -27213520.57048 -21193041.03147  20201615.0784                   20201613.4734
  -8011174.05147  -6228879.62544  23537782.7734                   23537784.3094
 -12711649.71547  -9890197.15244  23605121.2114                   23605124.7234
 -18824804.17248 -14661044.16846  21164976.9614                   21164975.9414
 -19787297.25047 -15403762.91045  22678440.6024                   22678439.2464
  -8509685.45347  -6620619.80944  22837080.6644                   22837080.4494
 -21480178.35948 -16730011.59846  21130218.1414                   21130217.1484
  -9744522.14147  -7585673.81644  23274192.2894                   23274190.5394
 11  9 24  1 37 30.0000000  0  9G02G29G30G25G15G05G18G26G21
 -21164589.86746 -16483535.89544  23517183.6484                   23517182.2384
 -27248991.55948 -21220680.73447  20194865.1804                   20194863.9184
  -7964594.55547  -6192583.89544  23546646.9614                   23546648.2034
 -12647920.86747  -9840538.32044  23617249.1484                   23617252.4844
 -18903588.92248 -14722434.81246  21149985.1804                   21149983.7814
 -19720816.02747 -15351959.35545  22691090.8364                   22691090.0944
  -8593249.84047  -6685734.82444  22821179.8524                   22821178.7234
 -21509540.18748 -16752890.89846  21124630.6484                   21124629.6914
  -9825279.73847  -7648601.72744  23258824.5234                   23258822.4414
 11  9 24  1 38  0.0000000  0  9G02G29G30G25G15G05G18G26G21
 -21119500.67646 -16448401.41844  23525763.9614                   23525761.3954
 -27283927.42248 -21247903.45747  20188216.8984                   20188215.4534
  -7917762.93047  -6156091.70744  23555558.7114                   23555559.9224
 -12584113.75847  -9790818.54744  23629391.3444                   23629394.4104
 -18981894.35248 -14783451.96546  21135083.9614                   21135082.3014
 -19654244.43747 -15300085.37545  22703759.4454                   22703758.5164
  -8676546.67247  -6750641.37144  22805328.5864                   22805326.9534
 -21538205.56248 -16775227.50446  21119176.0554                   21119174.4064
  -9906054.36747  -7711542.94544  23243453.4304                   23243451.7154
 11  9 24  1 38 30.0000000  0  9G02G29G30G25G15G05G18G26G21
 -21074247.51647 -16413139.25044  23534375.7034                   23534372.6884
 -27318324.43048 -21274706.29347  20181671.4534                   20181670.0984
  -7870680.07847  -6119403.77044  23564517.7894                   23564518.7854
 -12520229.18747  -9741038.39844  23641547.8364                   23641551.6024
 -19059715.77347 -14844091.96546  21120274.8754                   21120273.6804
 -19587581.89847 -15248140.52345  22716445.0394                   22716444.1564
  -8759573.34847  -6815337.38744  22789528.6254                   22789527.2464
 -21566171.69548 -16797019.24646  21113854.1094                   21113853.5634
  -9986843.40647  -7774495.37144  23228079.9534                   23228078.2194
 11  9 24  1 39  0.0000000  0  9G02G29G30G25G15G05G18G26G21
 -21028832.89146 -16377751.19144  23543017.6954                   23543015.2704
 -27352183.89848 -21301090.26647  20175228.0084                   20175226.7034
  -7823351.65647  -6082524.44944  23573524.6094                   23573525.5944
 -12456272.74647  -9691202.25044  23653718.0864                   23653721.0664
 -19137053.43448 -14904355.00846  21105557.9844                   21105556.7934
 -19520832.77747 -15196128.23045  22729146.9614                   22729146.4264
  -8842332.10547  -6879824.65644  22773780.8204                   22773778.9534
 -21593439.73048 -16818267.03546  21108665.1884                   21108664.5354
 -10067649.39147  -7837461.00044  23212702.9144                   23212701.0314
 11  9 24  1 39 30.0000000  0  9G02G29G30G25G15G05G18G26G21
 -20983255.11746 -16342235.99844  23551690.4614                   23551688.5394
 -27385503.37548 -21327053.47347  20168887.7114                   20168886.3984
  -7775779.52047  -6045455.24644  23582576.8204                   23582577.8914
 -12392246.19547  -9641311.48844  23665902.0864                   23665904.9924
 -19213903.99248 -14964238.49246  21090933.6254                   21090932.4534
 -19453997.82047 -15144049.05545  22741865.7974                   22741864.7504
  -8924821.42647  -6944101.93744  22758083.2274                   22758082.4964
 -21620008.02048 -16838969.56246  21103609.6254                   21103608.2704
 -10148470.95747  -7900438.79344  23197322.9694                   23197321.6804
 11  9 24  1 40  0.0000000  0  9G02G29G30G25G15G05G18G26G21
 -20937514.62947 -16306594.07444  23560394.3204                   23560393.3134
 -27418282.34448 -21352595.50047  20162649.9694                   20162648.6484
  -7727967.48047  -6008199.09444  23591675.9844                   23591676.5474
 -12328153.11747  -9591368.86344  23678098.8364                   23678102.2034
 -19290265.26248 -15023740.71546  21076402.6884                   21076401.5234
 -19387079.34047 -15091904.75845  22754599.5704                   22754599.2234
  -9007041.80147  -7008169.67244  22742436.5474                   22742435.8324
 -21645876.04748 -16859126.41846  21098686.9144                   21098685.7504
 -10229308.33247  -7963428.87144  23181940.0474                   23181939.0314
 11  9 24  1 40 30.0000000  0  9G02G29G30G25G15G05G18G26G21
 -20891611.10547 -16270825.08244  23569130.4844                   23569128.0394
 -27450519.18048 -21377715.09047  20156515.7114                   20156514.2304
  -7679918.43747  -5970758.27344  23600818.4454                   23600819.7234
 -12263996.39547  -9541376.66044  23690307.0474                   23690310.6174
 -19366135.00848 -15082859.93446  21061964.9224                   21061963.6294
 -19320078.72347 -15039696.48445  22767349.6954                   22767348.8444
  -9088992.91047  -7072027.55545  22726841.9774                   22726840.9494
 -21671042.87948 -16878736.89846  21093897.7814                   21093896.1914
 -10310161.01247  -8026430.89545  23166554.8594                   23166552.5554
 11  9 24  1 41  0.0000000  0  9G02G29G30G25G15G05G18G26G21
 -20845543.68447 -16234928.38744  23577896.4614                   23577893.9414
 -27482212.79748 -21402411.38747  20150484.4614                   20150483.1254
  -7631635.30947  -5933135.04744  23610006.9384                   23610008.1134
 -12199778.73047  -9491336.98444  23702527.6804                   23702531.2304
 -19441510.43048 -15141593.95746  21047621.4454                   21047620.2734
 -19252997.53547 -14987425.43445  22780114.4774                   22780113.3914
  -9170673.72347  -7135674.83644  22711298.9774                   22711297.4804
 -21695507.57448 -16897800.26246  21089242.3444                   21089241.3244
 -10391027.98447  -8089444.05545  23151166.3054                   23151164.4884
 11  9 24  1 41 30.0000000  0  9G02G29G30G25G15G05G18G26G21
 -20799312.41847 -16198903.99644  23586693.6564                   23586691.6954
 -27513362.26648 -21426683.67647  20144557.1724                   20144555.3204
  -7583121.61347  -5895332.16444  23619239.1954                   23619239.3134
 -12135503.52347  -9441252.42644  23714758.8834                   23714762.1844
 -19516389.91048 -15199941.54746  21033372.5634                   21033371.1214
 -19185838.08247 -14935093.39545  22792894.6954                   22792893.2274
  -9252085.19147  -7199112.24644  22695806.4694                   22695805.4964
 -21719269.55547 -16916316.06246  21084720.1094                   21084718.8364
 -10471909.51647  -8152468.57844  23135774.5234                   23135772.2774
 11  9 24  1 42  0.0000000  0  9G02G29G30G25G15G05G18G26G21
 -20752919.03947 -16162753.28543  23595522.5004                   23595519.2974
 -27543968.05548 -21450532.32847  20138733.0474                   20138731.4964
  -7534382.20747  -5857353.38343  23628513.7814                   23628514.3244
 -12071175.49647  -9391126.76244  23727000.5314                   23727004.4884
 -19590772.67648 -15257902.09046  21019217.7664                   21019216.3244
 -19118603.99247 -14882703.20745  22805688.5704                   22805687.9774
  -9333228.46147  -7262340.65244  22680365.6644                   22680364.0234
 -21742330.10548 -16934285.29346  21080332.4694                   21080331.5084
 -10552807.12147  -8215505.62544  23120380.6334                   23120378.8714
 11  9 24  1 42 30.0000000  0  9G02G29G30G25G15G05G18G26G21
 -20706361.05947 -16126474.33643  23604382.0554                   23604378.8054
 -27574027.12948 -21473954.95347  20133012.9534                   20133011.5164
  -7485418.13347  -5819199.51643  23637830.3524                   23637831.7194
 -12006795.62547  -9340960.64144  23739251.5474                   23739255.4184
 -19664654.44148 -15315472.23046  21005158.6334                   21005157.1524
 -19051294.66847 -14830254.39145  22818497.1334                   22818495.9924
  -9414101.31647  -7325358.32844  22664975.2974                   22664974.8674
 -21764686.35547 -16951705.71146  21076077.9064                   21076077.1564
 -10633718.16047  -8278553.10244  23104983.4144                   23104981.4844
 11  9 24  1 43  0.0000000  0  9G02G29G30G25G15G05G18G26G21
 -20659640.87546 -16090068.96943  23613271.9064                   23613269.4144
 -27603541.07448 -21496952.80947  20127396.4694                   20127394.4534
  -7436235.46147  -5780875.34843  23647189.8204                   23647191.2154
 -11942369.57447  -9290758.58244  23751510.9304                   23751514.5904
 -19738035.64547 -15372652.32446  20991194.6414                   20991193.1684
 -18983914.79747 -14777750.61745  22831319.0314                   22831318.9574
  -9494706.18047  -7388167.20344  22649636.9384                   22649636.0044
 -21786340.57847 -16968579.09446  21071956.9064                   21071955.7814
 -10714644.84847  -8341612.80944  23089583.4694                   23089581.2194
 11  9 24  1 43 30.0000000  0  9G02G29G30G25G15G05G18G26G21
 -20612756.36746 -16053535.58644  23622194.3754                   23622191.4304
 -27632507.02348 -21519523.65647  20121884.4844                   20121882.9224
  -7386835.14547  -5742381.57044  23656590.4534                   23656592.5004
 -11877898.41047  -9240521.34044  23763779.6644                   23763782.7384
 -19810912.19148 -15429439.18746  20977326.4924                   20977325.1914
 -18916464.21947 -14725191.74245  22844154.6884                   22844153.8874
  -9575041.17247  -7450765.78944  22634350.0704                   22634347.7424
 -21807289.92647 -16984903.23446  21067970.5554                   21067969.7664
 -10795586.12547  -8404683.84845  23074180.3364                   23074179.3284
 11  9 24  1 44  0.0000000  0  9G02G29G30G25G15G05G18G26G21
 -20565708.47747 -16016874.91044  23631147.4924                   23631145.2704
 -27660924.52348 -21541667.13347  20116476.4304                   20116475.0864
  -7337221.39547  -5703721.46943  23666031.4144                   23666033.0084
 -11813386.07847  -9190252.03944  23776055.7664                   23776060.3484
 -19883283.22348 -15485832.12946  20963554.7814                   20963553.6134
 -18848945.57847 -14672579.82045  22857002.5234                   22857002.2074
  -9655106.94147  -7513154.56244  22619113.4614                   22619112.2234
 -21827534.80948 -17000678.44146  21064118.3054                   21064117.2274
 -10876541.91047  -8467766.20744  23058775.0164                   23058773.3404
 11  9 24  1 44 30.0000000  0  9G02G29G30G25G15G05G18G26G21
 -20518496.66447 -15980086.50443  23640131.6484                   23640128.8914
 -27688792.35948 -21563382.32447  20111173.4844                   20111172.2974
  -7287397.38746  -5664897.53544  23675512.8054                   23675514.2734
 -11748835.46946  -9139952.90244  23788339.1724                   23788343.4654
 -19955145.78148 -15541828.87146  20949879.4304                   20949878.0044
 -18781360.40247 -14619916.04345  22869863.9534                   22869863.1294
  -9734903.35947  -7575333.49644  22603928.5474                   22603927.1914
 -21847074.76647 -17015904.34446  21060399.8204                   21060398.4064
 -10957511.43747  -8530859.27044  23043367.2734                   23043366.3524
 11  9 24  1 45  0.0000000  0  9G02G29G30G25G15G05G18G26G21
 -20471121.96946 -15943171.14144  23649146.7504                   23649145.2344
 -27716111.16048 -21584669.67647  20105974.8594                   20105973.6024
  -7237367.25446  -5625913.03944  23685033.4534                   23685033.1174
 -11684250.68746  -9089627.16844  23800629.7974                   23800633.8484
 -20026499.11348 -15597428.81246  20936301.7584                   20936299.9454
 -18713711.31647 -14567202.47345  22882737.4534                   22882735.7814
  -9814431.49647  -7637303.36745  22588794.9064                   22588793.7734
 -21865910.53548 -17030581.53546  21056815.4844                   21056814.1174
 -11038495.54747  -8593963.70745  23027956.6334                   23027954.1414
 11  9 24  1 45 30.0000000  0  9G02G29G30G25G15G05G18G26G21
 -20423582.80946 -15906127.63743  23658192.3524                   23658190.6484
 -27742878.81248 -21605527.57847  20100881.2424                   20100879.5234
  -7187133.06646  -5586769.50043  23694592.8754                   23694593.1914
 -11619633.54346  -9039276.18744  23812926.0164                   23812930.3794
 -20097339.94148 -15652629.39846  20922820.8284                   20922819.4534
 -18645999.16847 -14514439.78945  22895622.2504                   22895622.0044
  -9893689.81247  -7699062.96145  22573712.5944                   22573710.2704
 -21884040.44948 -17044708.69946  21053365.3284                   21053364.1764
 -11119492.95747  -8657078.47744  23012542.8524                   23012540.5554
 11  9 24  1 46  0.0000000  0  9G02G29G30G25G15G05G18G26G21
 -20375878.85245 -15868955.72743  23667270.0474                   23667269.1094
 -27769093.95748 -21625954.94147  20095892.8834                   20095891.4144
  -7136697.77046  -5547469.24243  23704189.8754                   23704190.8284
 -11554986.78947  -8988902.12544  23825228.3444                   23825232.0784
 -20167665.94148 -15707428.83246  20909437.9844                   20909436.7384
 -18578225.50047 -14461629.14145  22908519.5164                   22908517.1724
  -9972678.17647  -7760612.23045  22558680.9614                   22558679.7464
 -21901463.76647 -17058285.28146  21050049.5704                   21050048.6024
 -11200502.89147  -8720203.02345  22997127.1334                   22997125.7624
 11  9 24  1 46 30.0000000  0  9G02G29G30G25G15G05G18G26G21
 -20328010.05146 -15831655.36343  23676379.2584                   23676377.5314
 -27794755.98048 -21645951.31247  20091009.2584                   20091007.6094
  -7086064.75046  -5508014.95343  23713825.2034                   23713826.4304
 -11490313.67247  -8938507.53144  23837535.1644                   23837538.5514
 -20237475.49648 -15761825.82046  20896153.9614                   20896152.4384
 -18510392.31247 -14408772.12145  22921427.4384                   22921426.3674
 -10051396.64147  -7821951.17645  22543701.6254                   22543699.7814
 -21918180.42648 -17071311.21946  21046868.6024                   21046867.4844
 -11281525.33647  -8783337.29745  22981709.0234                   22981707.6564
 11  9 24  1 47  0.0000000  0  9G02G29G30G25G15G05G18G26G21
 -18704557.77346 -14566627.67244  23985311.7734                   23985310.6994
 -26244442.98448 -20437915.19947  20386024.1024                   20386022.4574
  -5459818.95746  -4240810.41844  24023289.3674                   24023290.5904
  -9850199.22747  -7660496.32444  24149638.6414                   24149641.5474
 -18731344.05148 -14588216.83646  21182761.0164                   21182759.8094
 -16867083.34447 -13128271.62545  23234139.0164                   23234137.2304
  -8554422.51247  -6655477.71944  22828566.4844                   22828564.7304
 -20358769.63748 -15856185.88746  21343614.7814                   21343613.2734
  -9787137.07047  -7618878.83645  23266082.0004                   23266080.1134
 11  9 24  1 47 30.0000000  0  9G02G29G30G25G15G05G18G26G21
 -18656357.96147 -14529069.38344  23994484.8444                   23994482.9494
 -26268994.85948 -20457046.51647  20381351.8364                   20381350.3594
  -5408799.40646  -4201054.93443  24032998.0164                   24032998.9734
  -9785481.43746  -7610066.91844  24161953.6884                   24161958.1564
 -18800113.24248 -14641803.18046  21169674.8984                   21169673.2584
 -16799135.12547 -13075324.97745  23247068.9924                   23247068.4574
  -8632600.31647  -6716395.37945  22813689.3204                   22813687.9574
 -20374071.23048 -15868109.18046  21340702.8284                   21340701.7774
  -9868182.10947  -7682030.71145  23250658.7814                   23250656.7664
 11  9 24  1 48  0.0000000  0  9G02G29G30G25G15G05G18G26G21
 -18607993.48447 -14491382.75844  24003687.9924                   24003685.7424
 -26292991.36748 -20475745.07447  20376785.5864                   20376784.1454
  -5357592.37546  -4161153.33244  24042742.0394                   24042743.7974
  -9720746.77047  -7559624.35944  24174272.4224                   24174276.3714
 -18868360.44948 -14694982.76246  21156688.0634                   21156685.8134
 -16731132.98447 -13022336.28945  23260009.3914                   23260008.3874
  -8710508.78947  -6777103.17644  22798863.5864                   22798862.5004
 -20388665.88347 -15879481.59446  21337925.7584                   21337924.3794
  -9949239.11347  -7745191.92644  23235234.6884                   23235232.2814
 11  9 24  1 48 30.0000000  0  9G02G29G30G25G15G05G18G26G21
 -18559464.16447 -14453567.67244  24012923.2734                   24012921.2114
 -26316431.89548 -20494010.40247  20372324.7814                   20372323.5664
  -5306200.95746  -4121108.04744  24052521.5864                   24052523.3404
  -9655998.14847  -7509170.87544  24186593.5554                   24186597.4304
 -18936083.39548 -14747753.84446  21143800.6254                   21143799.0554
 -16663078.44547 -12969306.78545  23272959.6094                   23272958.4534
  -8788147.83647  -6837601.02344  22784089.6564                   22784087.7114
 -20402553.41448 -15890303.00446  21335282.9304                   21335281.6174
 -10030307.58247  -7808362.09845  23219807.7584                   23219806.1764
 11  9 24  1 49  0.0000000  0  9G02G29G30G25G15G05G18G26G21
 -18510770.77047 -14415624.75044  24022189.0084                   24022185.8484
 -26339316.58248 -20511842.60247  20367970.1884                   20367968.4064
  -5254629.36346  -4080922.44143  24062336.0234                   24062337.2734
  -9591239.60547  -7458709.68744  24198916.8594                   24198919.7504
 -19003281.36348 -14800115.85246  21131012.6724                   21131011.2274
 -16594974.40647 -12916238.69145  23285919.6954                   23285918.1564
  -8865518.23847  -6897889.54345  22769366.9064                   22769364.4844
 -20415734.52048 -15900573.96146  21332774.0864                   21332773.5274
 -10111387.96147  -7871541.52345  23204378.2194                   23204376.6054
 11  9 24  1 49 30.0000000  0  9G02G29G30G25G15G05G18G26G21
 -18461910.74247 -14377551.98444  24031486.8444                   24031484.7034
 -26361642.35548 -20529239.29747  20363721.7344                   20363720.1454
  -5202878.64546  -4040597.23843  24072183.6724                   24072184.7734
  -9526471.77047  -7408241.26644  24211241.3984                   24211244.4774
 -19069949.88748 -14852065.30146  21118326.4774                   21118324.8054
 -16526819.99246 -12863131.36745  23298889.3364                   23298887.5984
  -8942618.08647  -6957967.25045  22754694.8054                   22754692.7774
 -20428206.98048 -15910292.72346  21330400.9144                   21330399.8364
 -10192478.07847  -7934728.54345  23188947.5944                   23188945.1684
 11  9 24  1 50  0.0000000  0  9G02G29G30G25G15G05G18G26G21
 -18412883.87147 -14339349.24244  24040816.1094                   24040814.0314
 -26383408.32048 -20546199.77047  20359579.5474                   20359578.1994
  -5150951.93446  -4000134.87944  24082064.4224                   24082066.0394
  -9461697.60947  -7357767.93444  24223567.2274                   24223571.0354
 -19136087.04748 -14903600.69546  21105740.7344                   21105739.6604
 -16458616.93447 -12809986.11345  23311866.8914                   23311866.4534
  -9019447.07047  -7017833.88345  22740074.7504                   22740073.4064
 -20439970.54747 -15919459.10246  21328162.3134                   21328161.5704
 -10273577.11747  -7997922.52745  23173514.6644                   23173512.7034
 11  9 24  1 50 30.0000000  0  9G02G29G30G25G15G05G18G26G21
 -18363692.00047 -14301017.93744  24050177.9144                   24050176.0124
 -26404615.58248 -20562724.88747  20355544.2114                   20355542.3324
  -5098854.11347  -3959539.19144  24091979.1564                   24091979.8794
  -9396921.83247  -7307293.31244  24235893.9614                   24235897.9414
 -19201692.80548 -14954722.00846  21093256.1484                   21093255.2384
 -16390368.65647 -12756805.66845  23324854.6334                   23324853.6054
  -9096007.12547  -7077490.96545  22725505.3204                   22725503.8484
 -20451026.93748 -15928074.44946  21326058.6564                   21326057.2384
 -10354686.47747  -8061124.56245  23158080.4614                   23158078.6094
 11  9 24  1 51  0.0000000  0  9G02G29G30G25G15G05G18G26G21
 -18314335.06646 -14262557.98443  24059569.2504                   24059568.0124
 -26425263.73048 -20578814.33247  20351615.0634                   20351613.8244
  -5046588.81647  -3918812.98044  24101924.1094                   24101925.5864
  -9332147.69147  -7256820.01643  24248220.3444                   24248222.7664
 -19266765.49248 -15005427.96946  21080873.6564                   21080872.1484
 -16322076.57846 -12703591.03145  23337850.7504                   23337848.0944
  -9172298.76247  -7136938.88745  22710987.7584                   22710986.0554
 -20461376.45748 -15936138.95746  21324088.8914                   21324087.3054
 -10435806.24247  -8124334.70745  23142643.5164                   23142641.6254
 11  9 24  1 51 30.0000000  0  9G02G29G30G25G15G05G18G26G21
 -18264813.77046 -14223969.95344  24068993.1724                   24068991.6094
 -26445352.99648 -20594468.27747  20347792.1884                   20347790.3794
  -4994159.80146  -3877959.21944  24111901.4304                   24111901.8524
  -9267378.78946  -7206350.71543  24260545.4694                   24260547.4694
 -19331304.18448 -15055717.80146  21068591.8594                   21068590.3524
 -16253743.85247 -12650344.75045  23350853.5634                   23350852.1174
  -9248321.95347  -7196177.64545  22696520.8984                   22696519.1994
 -20471019.91448 -15943653.30946  21322254.2584                   21322253.0044
 -10516936.16447  -8187552.77045  23127205.2814                   23127203.1374
 11  9 24  1 52  0.0000000  0  9G02G29G30G25G15G05G18G26G21
 -18215125.59846 -14185251.91443  24078448.2344                   24078446.9694
 -26464880.01648 -20609684.10947  20344076.0394                   20344074.6374
  -4941567.87946  -3836978.52744  24121909.2274                   24121910.5164
  -9202615.63746  -7155885.95343  24272869.1804                   24272873.7304
 -19395304.43448 -15105588.07846  21056413.2274                   21056411.7274
 -16185369.64147 -12597066.15644  23363864.7424                   23363862.9344
  -9324074.72747  -7255205.70345  22682105.3674                   22682103.9184
 -20479954.70348 -15950615.44146  21320553.3204                   21320551.9344
 -10598073.68447  -8250776.74645  23111765.4534                   23111762.7704
 11  9 24  1 52 30.0000000  0  9G02G29G30G25G15G05G18G26G21
 -18165270.89846 -14146404.07043  24087935.7734                   24087933.1564
 -26483844.57448 -20624461.66447  20340467.2274                   20340465.8524
  -4888816.58647  -3795873.62144  24131947.5004                   24131948.0234
  -9137861.34046  -7105428.10543  24285191.5314                   24285195.4144
 -19458764.72348 -15155037.60946  21044337.1024                   21044335.6454
 -16116955.46947 -12543756.43044  23376883.4144                   23376881.7934
  -9399558.06247  -7314023.79345  22667741.0864                   22667740.2974
 -20488181.34448 -15957025.77346  21318988.1724                   21318986.9304
 -10679218.56647  -8314006.46945  23096323.5554                   23096321.4804
 11  9 24  1 53  0.0000000  0  9G02G29G30G25G15G05G18G26G21
 -18115250.27746 -14107427.00443  24097454.6804                   24097451.9734
 -26502247.28148 -20638801.41447  20336965.4304                   20336963.9964
  -4835910.27747  -3754647.94944  24142015.9144                   24142016.2934
  -9073120.27046  -7054980.60243  24297511.4064                   24297515.3634
 -19521684.47748 -15204065.94546  21032363.8054                   21032362.2974
 -16048504.11347 -12490417.69144  23389909.3524                   23389907.4574
  -9474772.71547  -7372632.51645  22653428.7034                   22653426.5124
 -20495700.90648 -15962885.14846  21317557.2274                   21317555.8484
 -10760371.59447  -8377242.53145  23080881.1804                   23080878.5234
 11  9 24  1 53 30.0000000  0  9G02G29G30G25G15G05G18G26G21
 -18065064.05546 -14068320.86744  24107003.4454                   24107001.5704
 -26520087.72748 -20652703.05147  20333570.5234                   20333569.1604
  -4782852.59047  -3713304.29344  24152112.1094                   24152113.2704
  -9008395.56647  -7004545.77744  24309828.9614                   24309832.9494
 -19584062.26248 -15252671.96546  21020493.7734                   21020492.1804
 -15980018.08647 -12437051.95345  23402941.8054                   23402940.3014
  -9549719.13747  -7431032.26245  22639166.7894                   22639164.8444
 -20502514.20747 -15968194.18746  21316260.7584                   21316259.1454
 -10841532.60247  -8440484.83645  23065436.4614                   23065434.3094
 11  9 24  1 54  0.0000000  0  9G02G29G30G25G15G05G18G26G21
 -18014712.29346 -14029085.70744  24116585.2974                   24116583.7934
 -26537365.44948 -20666166.18747  20330282.4774                   20330280.9224
  -4729646.50046  -3671845.00443  24162236.2274                   24162237.0554
  -8943689.93447  -6954125.85544  24322142.1954                   24322145.7704
 -19645896.30948 -15300854.28146  21008726.7274                   21008725.7424
 -15911498.51647 -12383660.09044  23415980.4384                   23415979.4884
  -9624397.07847  -7489222.79745  22624955.8834                   22624953.9304
 -20508621.26248 -15972952.89846  21315098.6414                   21315097.2074
 -10922701.03147  -8503732.88745  23049990.4064                   23049988.2504
 11  9 24  1 54 30.0000000  0  9G02G29G30G25G15G05G18G26G21
 -17964193.79747 -13989720.66444  24126198.9614                   24126197.5314
 -26554078.73448 -20679189.50847  20327102.3204                   20327100.8324
  -4676294.23447  -3630271.80143  24172389.2734                   24172389.9064
  -8879005.41847  -6903722.35544  24334450.6334                   24334454.5084
 -19707183.79748 -15348610.72346  20997064.1644                   20997062.7734
 -15842945.61346 -12330242.23044  23429025.4224                   23429024.2304
  -9698805.77047  -7547203.52045  22610796.3134                   22610794.8014
 -20514021.05548 -15977160.48046  21314070.7114                   21314068.9454
 -11003875.36347  -8566985.54745  23034543.6094                   23034540.6804
 11  9 24  1 55  0.0000000  0  9G02G29G30G25G15G05G18G26G21
 -17913507.98447 -13950225.19944  24135844.0944                   24135841.5634
 -26570226.56248 -20691772.21147  20324028.9454                   20324027.5864
  -4622798.45347  -3588586.75844  24182569.6254                   24182570.4454
  -8814344.31647  -6853337.10244  24346755.3984                   24346759.5824
 -19767922.34448 -15395939.41046  20985506.0634                   20985504.6684
 -15774360.59047 -12276799.38745  23442076.8364                   23442076.0314
  -9772944.77347  -7604974.11345  22596688.3204                   22596686.4024
 -20518713.43448 -15980816.85946  21313177.9304                   21313176.0554
 -11085054.67247  -8630242.08245  23019095.4064                   23019093.2544
 11  9 24  1 55 30.0000000  0  9G02G29G30G25G15G05G18G26G21
 -17862656.49647 -13910600.68744  24145521.6174                   24145519.1804
 -26585810.49648 -20703915.52047  20321063.9844                   20321062.4734
  -4569164.36347  -3546793.93744  24192775.8284                   24192776.1844
  -8749711.46547  -6802973.89844  24359054.6414                   24359058.1844
 -19828112.60948 -15442840.87146  20974052.1724                   20974050.5824
 -15705747.54347 -12223334.65644  23455133.3054                   23455132.5164
  -9846816.33247  -7662536.29345  22582630.8364                   22582628.3984
 -20522700.81248 -15983923.86346  21312418.9064                   21312417.6684
 -11166240.15647  -8693503.42645  23003646.1804                   23003643.8324
 11  9 24  1 56  0.0000000  0  9G02G29G30G25G15G05G18G26G21
 -17811638.12947 -13870846.13343  24155229.5164                   24155226.9534
 -26600828.74648 -20715618.03547  20318205.7034                   20318204.3014
  -4515393.87947  -3504894.82843  24203007.3984                   24203009.1174
  -8685108.56246  -6752634.02044  24371347.7974                   24371352.2774
 -19887751.56248 -15489312.73446  20962703.4774                   20962701.8594
 -15637106.30147 -12169847.97744  23468195.8834                   23468195.0864
  -9920419.46947  -7719889.32445  22568624.6564                   22568622.8164
 -20525982.12148 -15986480.69546  21311794.6094                   21311793.0944
 -11247430.28147  -8756768.37545  22988196.2274                   22988193.5744
 11  9 24  1 56 30.0000000  0  9G02G29G30G25G15G05G18G26G21
 -17760454.12147 -13830962.40643  24164969.5234                   24164966.5554
 -26615282.16448 -20726880.42647  20315455.3134                   20315454.1254
  -4461491.34847  -3462892.87943  24213265.2034                   24213265.3014
  -8620539.49247  -6702320.52044  24383634.8284                   24383639.4574
 -19946838.73448 -15535354.63746  20951459.6254                   20951457.7464
 -15568439.17247 -12116341.13745  23481262.8134                   23481261.6374
  -9993755.13747  -7777033.93045  22554669.0554                   22554667.0474
 -20528558.96948 -15988488.60246  21311304.3364                   21311302.8094
 -11328625.72347  -8820037.48045  22972745.2504                   22972743.2344
 11  9 24  1 57  0.0000000  0  9G02G29G30G25G15G05G18G26G21
 -17709103.65646 -13790949.02743  24174740.3754                   24174738.1484
 -26629169.63748 -20737701.81647  20312812.6174                   20312811.2034
  -4407459.39846  -3420790.06243  24223546.8054                   24223547.7464
  -8556006.73447  -6652035.30144  24395915.5784                   24395920.4344
 -20005371.61748 -15580964.63346  20940321.3594                   20940319.4144
 -15499747.74247 -12062815.35544  23494334.0164                   23494332.4964
 -10066822.87947  -7833969.78145  22540764.7894                   22540763.1174
 -20530430.92648 -15989947.25446  21310948.4224                   21310946.9224
 -11409825.18447  -8883309.71945  22957293.4614                   22957291.0634
 11  9 24  1 57 30.0000000  0  9G02G29G30G25G15G05G18G26G21
 -17657587.18446 -13750806.29742  24184543.2034                   24184541.0124
 -26642491.23848 -20748082.28147  20310277.7504                   20310276.0274
  -4353301.74646  -3378589.23843  24233852.6334                   24233853.6454
  -8491513.53147  -6601780.91044  24408188.3134                   24408192.6644
 -20063349.56248 -15626142.21546  20929288.4064                   20929286.4884
 -15431033.76247 -12009272.00845  23507410.8444                   23507408.7234
 -10139623.03147  -7890697.10245  22526911.4304                   22526909.0984
 -20531599.22748 -15990857.58646  21310725.4454                   21310723.8554
 -11491028.66047  -8946585.07845  22941840.9304                   22941838.5204
 11  9 24  1 58  0.0000000  0  9G02G29G30G25G15G05G18G26G21
 -17605904.18446 -13710533.82442  24194377.7894                   24194376.6174
 -26655246.06648 -20758021.09447  20307850.5004                   20307849.5164
  -4299021.00447  -3336292.55143  24244181.9224                   24244182.4344
  -8427062.24647  -6551559.17244  24420452.8054                   24420456.5984
 -20120770.50448 -15670885.76646  20918361.3674                   20918359.5204
 -15362298.37947 -11955711.94945  23520490.1414                   23520488.7344
 -10212156.14847  -7947216.34845  22513108.6174                   22513106.2154
 -20532063.76248 -15991219.53946  21310637.4534                   21310635.6414
 -11572235.37947  -9009862.95745  22926387.9064                   22926385.4144
 11  9 24  1 58 30.0000000  0  9G02G29G30G25G15G05G18G26G21
 -17554052.37546 -13670129.88743  24204245.9694                   24204244.2424
 -26667431.90648 -20767516.54747  20305531.7814                   20305529.9844
  -4244618.31646  -3293900.83243  24254534.5784                   24254535.7624
  -8362653.59846  -6501370.65644  24432708.8364                   24432712.9884
 -20177630.62548 -15715192.30946  20907541.3204                   20907539.2464
 -15293540.70347 -11902134.54745  23533574.5474                   23533572.8914
 -10284419.84047  -8003525.65645  22499357.4614                   22499355.0234
 -20531822.78148 -15991031.72746  21310683.0394                   21310681.5474
 -11653442.27347  -9073140.98845  22910934.2114                   22910932.1684
 11  9 24  1 59  0.0000000  0  9G02G29G30G25G15G05G18G26G21
 -17502033.87547 -13629595.95743  24214145.2424                   24214143.1564
 -26679049.96148 -20776569.57047  20303320.5864                   20303319.3444
  -4190098.85946  -3251418.07843  24264909.4384                   24264911.0474
  -8298292.52046  -6451219.22744  24444956.4454                   24444961.4574
 -20233930.28948 -15759062.14146  20896827.8674                   20896826.1254
 -15224764.46947 -11848542.69145  23546661.9384                   23546661.1374
 -10356415.76647  -8059626.32045  22485657.0084                   22485654.3914
 -20530878.90248 -15990296.21146  21310862.8754                   21310860.8164
 -11734651.00847  -9136420.44545  22895480.8364                   22895478.6094
 11  9 24  1 59 30.0000000  0  9G02G29G30G25G15G05G18G26G21
 -17449848.85547 -13588932.33244  24224076.4694                   24224073.7274
 -26690100.20348 -20785180.14547  20301218.0554                   20301216.7034
  -4135465.85546  -3208846.90243  24275304.5234                   24275306.2704
  -8233981.78546  -6401107.02043  24457194.9774                   24457199.4884
 -20289668.23048 -15802494.26246  20886220.9224                   20886219.4024
 -15155971.02347 -11794937.39845  23559752.5944                   23559751.9304
 -10428145.06247  -8115519.20745  22472007.2504                   22472004.9224
 -20529232.73048 -15989013.45346  21311175.9064                   21311174.4224
 -11815861.03547  -9199700.90645  22880027.2734                   22880024.6684
 11  9 24  2  0  0.0000000  0  9G02G29G30G25G15G05G18G26G21
 -17397496.93447 -13548138.62144  24234038.1024                   24234035.8984
 -26700582.41448 -20793348.10247  20299223.2894                   20299221.4884
  -4080722.34446  -3166189.59843  24285721.9454                   24285724.2274
  -8169724.00846  -6351036.10943  24469422.7034                   24469427.0084
 -20344842.71548 -15845487.32446  20875721.5864                   20875720.1214
 -15087161.74647 -11741319.78545  23572846.2034                   23572845.2384
 -10499607.53147  -8171204.18045  22458408.3984                   22458405.6724
 -20526884.73048 -15987183.81646  21311622.4844                   21311621.2584
 -11897071.53947  -9262981.74645  22864573.6024                   22864570.7894
 11  9 24  2  0 30.0000000  0  9G02G29G30G25G15G05G18G26G21
 -17344978.39547 -13507215.10945  24244032.5394                   24244030.7234
 -26710496.68048 -20801073.48447  20297336.7664                   20297335.3524
  -4025871.93046  -3123449.00843  24296159.9384                   24296161.7664
  -8105522.72546  -6301009.20743  24481639.5944                   24481644.5354
 -20399453.07848 -15888040.82446  20865329.6804                   20865327.8014
 -15018339.12147 -11687691.79345  23585942.9694                   23585942.3204
 -10570803.85947  -8226681.75845  22444860.2504                   22444857.6604
 -20523836.17648 -15984808.29746  21312202.6414                   21312201.6454
 -11978282.34047  -9326262.82045  22849119.3914                   22849117.2704
 11  9 24  2  1  0.0000000  0  9G02G29G30G25G15G05G18G26G21
 -17292291.13347 -13466160.06645  24254057.8134                   24254056.1724
 -26719840.52748 -20808354.39147  20295558.7734                   20295556.8954
  -3970915.61746  -3080625.88343  24306617.9534                   24306618.5164
  -8041378.34846  -6251026.55943  24493846.6254                   24493850.5044
 -20453495.43748 -15930151.71546  20855045.8594                   20855043.7894
 -14949501.71147 -11634052.25445  23599042.2664                   23599041.8984
 -10641731.25847  -8281949.79745  22431363.2734                   22431360.7074
 -20520085.26247 -15981885.49246  21312916.4694                   21312915.2584
 -12059490.84447  -9389542.10545  22833666.3054                   22833663.9414
 11  9 24  2  1 30.0000000  0  9G02G29G30G25G15G05G18G26G21
 -17239437.50846 -13424975.40644  24264115.9064                   24264114.0634
 -26728615.47748 -20815192.00847  20293888.6954                   20293887.1094
  -3915858.78146  -3037724.46543  24317095.3524                   24317096.0314
  -7977295.96946  -6201092.28943  24506040.5234                   24506045.6764
 -20506970.46948 -15971820.53546  20844869.5864                   20844867.7704
 -14880653.25047 -11580404.12145  23612144.3364                   23612142.6804
 -10712393.24247  -8337011.01245  22417916.1174                   22417914.0204
 -20515635.08648 -15978417.80146  21313763.5704                   21313762.5704
 -12140698.55947  -9452820.78945  22818212.6804                   22818210.4924
 11  9 24  2  2  0.0000000  0  9G02G29G30G25G15G05G18G26G21
 -17186417.96946 -13383661.46944  24274204.2584                   24274203.3594
 -26736822.96948 -20821587.45347  20292326.6334                   20292325.2274
  -3860705.12146  -2994747.61343  24327590.8914                   24327591.8444
  -7913278.87946  -6151208.88343  24518222.0864                   24518226.9734
 -20559877.61347 -16013046.84046  20834801.9144                   20834800.2234
 -14811795.87947 -11526749.03145  23625247.7114                   23625246.5044
 -10782790.14547  -8391865.67645  22404520.2814                   22404517.8244
 -20510486.72747 -15974406.07446  21314743.0314                   21314741.8094
 -12221905.27047  -9516098.67645  22802759.0634                   22802756.8874
 11  9 24  2  2 30.0000000  0  9G02G29G30G25G15G05G18G26G21
 -17133229.22746 -13342215.67244  24284325.9064                   24284324.5274
 -26744459.27048 -20827537.80147  20290873.8284                   20290872.2544
  -3805454.83246  -2951695.44543  24338104.5784                   24338105.0744
  -7849326.69546  -6101376.12543  24530391.7274                   24530396.6524
 -20612212.45348 -16053827.20346  20824842.7974                   20824841.1954
 -14742927.81647 -11473085.60245  23638352.2034                   23638351.0124
 -10852919.32047  -8446511.71545  22391174.6884                   22391172.5824
 -20504638.43047 -15969848.93446  21315856.1564                   21315854.8444
 -12303107.69147  -9579373.24245  22787307.2734                   22787304.5354
 11  9 24  2  3  0.0000000  0  9G02G29G30G25G15G05G18G26G21
 -17079874.67846 -13300640.71943  24294479.3754                   24294477.4104
 -26751527.24648 -20833045.31247  20289528.5864                   20289527.7304
  -3750114.12546  -2908572.78143  24348634.9844                   24348637.1524
  -7785445.62146  -6051598.68743  24542549.0004                   24542553.7074
 -20663976.69948 -16094162.94146  20814992.0554                   20814990.3794
 -14674053.67647 -11419417.45745  23651458.6644                   23651457.3594
 -10922784.15247  -8500951.77345  22377879.9614                   22377877.6524
 -20498093.60547 -15964749.05146  21317101.2894                   21317100.2344
 -12384307.91047  -9642646.05945  22771854.8134                   22771852.5164
 11  9 24  2  3 30.0000000  0  9G02G29G30G25G15G05G18G26G21
 -17026352.69146 -13258935.27743  24304664.3834                   24304660.9694
 -26758025.28948 -20838108.70747  20288292.2584                   20288290.6724
  -3694684.60246  -2865380.94543  24359182.8524                   24359183.8054
  -7721636.57447  -6001877.41043  24554691.4064                   24554694.3094
 -20715167.48848 -16134051.82846  20805250.8914                   20805249.0744
 -14605173.45347 -11365744.57445  23664565.8754                   23664565.0594
 -10992383.04347  -8555184.61345  22364635.6644                   22364633.7664
 -20490851.67647 -15959105.98046  21318479.5084                   21318477.9734
 -12465503.66447  -9705915.42245  22756403.9384                   22756401.2584
 11  9 24  2  4  0.0000000  0  9G02G29G30G25G15G05G18G26G21
 -16972663.77746 -13217099.80943  24314880.8134                   24314878.9304
 -26763953.93448 -20842728.42647  20287164.1254                   20287162.7234
  -3639169.97746  -2822122.84443  24369747.1724                   24369747.9534
  -7657903.12947  -5952215.00443  24566819.4384                   24566824.2584
 -20765784.45347 -16173493.58246  20795618.9694                   20795617.0784
 -14536289.27046 -11312068.60545  23677674.2584                   23677672.7734
 -11061717.14547  -8609211.12945  22351441.8914                   22351439.7934
 -20482914.30547 -15952920.98446  21319989.8914                   21319987.8524
 -12546695.12947  -9769181.43445  22740953.8754                   22740950.7424
 11  9 24  2  4 30.0000000  0  9G02G29G30G25G15G05G18G26G21
 -16918807.02046 -13175133.53143  24325129.7344                   24325127.1844
 -26769312.25448 -20846903.72747  20286144.1884                   20286142.8244
  -3583572.64146  -2778800.27744  24380327.7734                   24380328.5004
  -7594247.04347  -5902612.85943  24578932.4694                   24578937.9734
 -20815825.04747 -16212486.22346  20786096.4064                   20786094.5704
 -14467401.05147 -11258389.48445  23690783.7814                   23690781.0124
 -11130785.85947  -8663030.83645  22338298.2974                   22338296.2464
 -20474281.13347 -15946193.82046  21321632.3054                   21321631.2194
 -12627880.45347  -9832442.68045  22725504.3914                   22725501.9534
 11  9 24  2  5  0.0000000  0  9G02G29G30G25G15G05G18G26G21
 -16864783.34446 -13133037.10543  24335410.1724                   24335407.9654
 -26774100.74248 -20850635.01247  20285232.9774                   20285231.0514
  -3527896.24646  -2735416.09444  24390922.4534                   24390923.3284
  -7530671.67247  -5853073.65644  24591031.2194                   24591034.2704
 -20865288.88747 -16251029.43746  20776683.6484                   20776681.7464
 -14398510.75847 -11204708.74245  23703892.7814                   23703891.8914
 -11199589.66447  -8716644.13345  22325205.4774                   22325203.2034
 -20464953.90247 -15938925.83245  21323407.7734                   21323406.4384
 -12709060.17647  -9895699.54745  22710056.5314                   22710053.6214
 11  9 24  2  5 30.0000000  0  8G29G30G25G15G05G18G26G21
 -26778319.59448 -20853922.41847  20284430.0004                   20284428.9844
  -3472144.14146  -2691972.90243  24401531.6254                   24401532.5124
  -7467179.95747  -5803599.67644  24603112.4844                   24603116.4924
 -20914174.87148 -16289122.37546  20767380.7814                   20767378.9844
 -14329620.30147 -11151027.88745  23717001.8054                   23717001.1054
 -11268129.41847  -8770051.68045  22312162.7584                   22312160.7974
 -20454933.90247 -15931118.01246  21325314.3674                   21325312.5394
 -12790233.57047  -9958951.48445  22694609.6254                   22694606.6954
 11  9 24  2  6  0.0000000  0  8G29G30G25G15G05G18G26G21
 -26781967.50848 -20856764.93747  20283735.9064                   20283734.2624
  -3416318.02046  -2648472.03144  24412154.7814                   24412156.3134
  -7403773.23047  -5754191.89144  24615178.3834                   24615183.1024
 -20962480.49647 -16326763.08646  20758188.8524                   20758186.9184
 -14260729.73847 -11097346.93045  23730111.9064                   23730110.3164
 -11336403.92247  -8823252.53945  22299170.6334                   22299169.1644
 -20444220.56247 -15922769.92246  21327353.0084                   21327351.4144
 -12871398.20747 -10022196.60245  22679164.1804                   22679161.9804
 11  9 24  2  6 30.0000000  0  8G29G30G25G15G05G18G26G21
 -26785037.44948 -20859157.09847  20283151.9454                   20283150.4384
  -3360413.99646  -2604910.47744  24422793.1724                   24422794.6454
  -7340447.16047  -5704846.96544  24627229.6334                   24627234.3134
 -21010197.61748 -16363945.22746  20749108.8594                   20749107.2974
 -14191833.03547 -11043661.21545  23743222.5474                   23743220.8244
 -11404406.39547  -8876241.42245  22286230.2664                   22286227.7154
 -20432807.80947 -15913876.85946  21329524.8134                   21329523.4064
 -12952546.45347 -10085428.94945  22663722.2114                   22663720.1484
 11  9 24  2  7  0.0000000  0  8G29G30G25G15G05G18G26G21
 -26787527.18748 -20861097.14147  20282678.0634                   20282676.4494
  -3304432.93446  -2561288.90244  24433446.1094                   24433447.4804
  -7277202.16847  -5655565.21144  24639264.6094                   24639269.4534
 -21057322.82848 -16400666.14146  20740140.6884                   20740138.9224
 -14122929.43747 -10989970.10245  23756334.8984                   23756333.2934
 -11472134.94147  -8929016.87545  22273341.7584                   22273339.2504
 -20420694.67647 -15904438.03146  21331829.6884                   21331828.2774
 -13033675.37547 -10148646.24645  22648283.9614                   22648281.7734
 11  9 24  2  7 30.0000000  0  8G29G30G25G15G05G18G26G21
 -26789433.89148 -20862582.87947  20282315.4844                   20282314.1134
  -3248375.20746  -2517607.58643  24444112.2664                   24444114.1954
  -7214038.19947  -5606346.59044  24651285.0084                   24651288.0704
 -21103852.23048 -16436922.79746  20731286.6644                   20731284.5784
 -14054017.52747 -10936272.51645  23769447.5234                   23769446.6804
 -11539587.43747  -8981577.20345  22260506.0634                   22260503.8914
 -20407879.35547 -15894452.05146  21334268.3984                   21334267.4344
 -13114781.57047 -10211845.83245  22632850.2274                   22632847.9804
 11  9 24  2  8  0.0000000  0  8G29G30G25G15G05G18G26G21
 -26790768.47748 -20863622.80147  20282061.4454                   20282059.9774
  -3192254.46946  -2473877.19543  24454793.1024                   24454794.7704
  -7150968.55146  -5557201.49244  24663286.3594                   24663289.6644
 -21149795.15248 -16472722.43746  20722544.1954                   20722541.9264
 -13985109.50047 -10882577.95745  23782561.1884                   23782559.7304
 -11606774.54748  -9033930.75045  22247720.9384                   22247718.4184
 -20394373.70347 -15883928.16046  21336838.0164                   21336837.2774
 -13195874.89147 -10275035.35945  22617418.4614                   22617416.3754
 11  9 24  2  8 30.0000000  0  8G29G30G25G15G05G18G26G21
 -26791528.91848 -20864215.35547  20281916.5554                   20281914.5084
  -3136071.71546  -2430098.40643  24465483.4384                   24465485.4064
  -7087993.62946  -5508130.21144  24675269.8524                   24675275.1524
 -21195148.59048 -16508062.75446  20713913.4534                   20713911.5234
 -13916203.93747 -10828885.32845  23795672.9384                   23795671.6914
 -11673694.26648  -9086075.89845  22234986.2034                   22234984.0904
 -20380176.44148 -15872865.33646  21339540.1884                   21339538.4344
 -13276952.36347 -10338212.55945  22601989.8054                   22601987.6954
 11  9 24  2  9  0.0000000  0  8G29G30G25G15G05G18G26G21
 -26791717.95748 -20864362.64847  20281880.8284                   20281879.3754
  -3079832.66446  -2386275.82043  24476185.9454                   24476187.5554
  -7025119.03946  -5459137.08244  24687235.2114                   24687239.2304
 -21239914.42648 -16542945.19146  20705394.7894                   20705392.6604
 -13847304.76247 -10775197.66845  23808784.1094                   23808782.6604
 -11740349.89847  -9138015.31245  22222302.0554                   22222299.6524
 -20365291.85947 -15861266.94145  21342372.2504                   21342371.0164
 -13358015.74647 -10401378.76645  22586563.9614                   22586561.1254
 11  9 24  2  9 30.0000000  0  8G29G30G25G15G05G18G26G21
 -26791335.25048 -20864064.42647  20281953.5554                   20281951.8164
  -3023539.99246  -2342411.40643  24486897.6254                   24486899.2304
  -6962346.68046  -5410223.66843  24699179.2894                   24699183.1334
 -21284090.86348 -16577368.35546  20696988.2814                   20696986.1094
 -13778413.18447 -10721515.91845  23821892.8754                   23821892.7664
 -11806741.31247  -9189748.80145  22209667.9844                   22209665.5514
 -20349720.49647 -15849133.40245  21345335.5634                   21345333.8324
 -13439064.07047 -10464533.24245  22571141.1644                   22571138.2114
 11  9 24  2 10  0.0000000  0  7G29G30G15G05G18G26G21
 -26790381.05948 -20863320.89147  20282135.0234                   20282133.3754
  -2967197.00446  -2298507.78943  24497618.8524                   24497621.4804
 -21327677.29348 -16611331.77746  20688693.7734                   20688692.4104
 -13709530.52747 -10667841.10544  23835001.4304                   23835000.8834
 -11872869.08247  -9241276.87145  22197084.2194                   22197081.7424
 -20333463.87148 -15836465.88346  21348429.0084                   21348427.4654
 -13520096.75848 -10527675.54345  22555721.2344                   22555718.2154
 11  9 24  2 10 30.0000000  0  7G29G30G15G05G18G26G21
 -26788854.30148 -20862131.20747  20282425.3984                   20282424.1564
  -2910805.13746  -2254566.17643  24508350.6484                   24508352.2114
 -21370671.15248 -16644833.45346  20680512.0234                   20680510.7774
 -13640656.27747 -10614172.88344  23848107.5234                   23848106.7624
 -11938731.88747  -9292598.46945  22184550.8754                   22184549.2854
 -20316521.57848 -15823264.08246  21351653.2504                   21351651.4454
 -13601111.13747 -10590803.57045  22540304.6024                   22540301.8484
 11  9 24  2 11  0.0000000  0  7G29G30G15G05G18G26G21
 -26786750.83648 -20860492.14147  20282826.1094                   20282824.4694
  -2854363.21546  -2210585.49642  24519091.2194                   24519093.6024
 -21413066.89548 -16677869.06646  20672444.5554                   20672442.8834
 -13571787.43747 -10560508.85244  23861213.4384                   23861212.7424
 -12004325.74648  -9343710.50045  22172068.5234                   22172066.7504
 -20298890.73448 -15809525.73445  21355008.4924                   21355006.5314
 -13682101.90247 -10653913.20745  22524892.6564                   22524889.9224
 11  9 24  2 11 30.0000000  0  7G29G30G15G05G18G26G21
 -26784069.37548 -20858402.68747  20283336.0164                   20283335.0274
  -2797872.52045  -2166566.73442  24529840.7814                   24529842.1214
 -21454862.26648 -16710436.85947  20664491.3364                   20664489.6524
 -13502923.59047 -10506848.71544  23874316.9614                   23874316.0274
 -12069649.30948  -9394611.92645  22159637.9694                   22159635.8324
 -20280571.00047 -15795250.60545  21358494.2584                   21358492.7384
 -13763067.14847 -10717002.96145  22509485.0474                   22509482.8674
 11  9 24  2 12  0.0000000  0  7G29G30G15G05G18G26G21
 -26780809.94548 -20855862.86347  20283956.5704                   20283954.6764
  -2741336.31646  -2122512.57842  24540600.1564                   24540601.4384
 -21496056.48848 -16742536.22346  20656652.2194                   20656650.6374
 -13434066.23447 -10453193.64844  23887420.5474                   23887418.8364
 -12134703.16848  -9445303.18045  22147258.5944                   22147256.5474
 -20261563.43047 -15780439.50045  21362111.2424                   21362109.5824
 -13844006.05547 -10780072.17245  22494082.9844                   22494080.4614
 11  9 24  2 12 30.0000000  0  7G29G30G15G05G18G26G21
 -26776976.17648 -20852875.50847  20284685.9384                   20284684.5634
  -2684760.67645  -2078427.72742  24551365.4454                   24551367.8324
 -21536651.82448 -16774168.91846  20648927.3364                   20648925.1604
 -13365219.44547 -10399546.78544  23900521.6174                   23900519.2734
 -12199490.70348  -9495786.91045  22134929.8754                   22134927.7304
 -20241872.99248 -15765096.28545  21365858.4534                   21365857.2074
 -13924920.62547 -10843122.43045  22478685.3984                   22478683.0394
 11  9 24  2 13  0.0000000  0  7G29G30G15G05G18G26G21
 -26772569.14148 -20849441.44147  20285524.3594                   20285523.0594
  -2628149.80946  -2034315.26642  24562138.6334                   24562140.4224
 -21576648.30148 -16805334.97346  20641315.8914                   20641314.2304
 -13296385.60547 -10345910.00844  23913620.4454                   23913618.2584
 -12264013.42248  -9546064.30545  22122652.1094                   22122649.4454
 -20221502.08647 -15749222.82446  21369734.6094                   21369733.6484
 -14005811.48047 -10906154.21545  22463292.1954                   22463289.4654
 11  9 24  2 13 30.0000000  0  7G29G30G15G05G18G26G21
 -26767591.86748 -20845563.05147  20286471.5164                   20286470.0744
  -2571508.56646  -1990179.24242  24572916.2034                   24572918.0664
 -21616047.28948 -16836035.45346  20633818.7344                   20633817.2424
 -13227567.60946 -10292285.62943  23926715.6484                   23926714.6684
 -12328273.91847  -9596137.35945  22110423.0944                   22110420.9144
 -20200454.15248 -15732821.82846  21373740.3284                   21373738.3874
 -14086679.48447 -10969168.19145  22447903.6804                   22447901.2664
 11  9 24  2 14  0.0000000  0  7G29G30G15G05G18G26G21
 -26762045.80948 -20841241.44147  20287527.2114                   20287525.6644
  -2514841.53546  -1946023.13343  24583700.5234                   24583702.0274
 -21654849.25448 -16866270.71147  20626435.0084                   20626433.1994
 -13158768.32446 -10238675.80543  23939807.6024                   23939806.8244
 -12392274.14148  -9646007.60245  22098244.3444                   22098241.8874
 -20178732.05947 -15715895.50046  21377873.4694                   21377871.8404
 -14167524.93748 -11032164.59445  22432519.3984                   22432516.0434
 11  9 24  2 14 30.0000000  0  7G29G30G15G05G18G26G21
 -26755930.87948 -20836476.55947  20288690.5864                   20288689.0124
  -2458151.30146  -1901848.92643  24594487.8914                   24594489.8094
 -21693053.10248 -16896039.91847  20619164.9774                   20619163.3714
 -13089988.34846 -10185081.00043  23952896.2734                   23952894.8134
 -12456013.12147  -9695674.28145  22086115.3364                   22086113.1134
 -20156336.84448 -15698444.67246  21382135.2504                   21382134.1884
 -14248346.38747 -11095142.31245  22417139.8134                   22417136.8834
 11  9 24  2 15  0.0000000  0  7G29G30G15G05G18G26G21
 -26749249.29348 -20831270.11347  20289962.1804                   20289960.7624
  -2401442.66446  -1857660.39543  24605279.2664                   24605279.7664
 -21730659.97348 -16925343.94146  20612008.8204                   20612007.0084
 -13021230.48846 -10131503.47743  23965980.6564                   23965980.3674
 -12519494.07047  -9745139.89545  22074035.3284                   22074032.8834
 -20133271.88347 -15680471.95745  21386524.0784                   21386522.5474
 -14329144.79347 -11158102.04745  22401763.8754                   22401761.0084
 11  9 24  2 15 30.0000000  0  7G29G30G15G05G18G26G21
 -26742000.47348 -20825621.68747  20291341.6174                   20291339.5944
  -2344717.72746  -1813459.16443  24616073.9774                   24616075.6254
 -21767668.29748 -16954181.56646  20604966.2344                   20604963.9694
 -12952495.18446 -10077943.49643  23979060.8204                   23979060.2274
 -12582716.20347  -9794403.83245  22062004.5314                   22062002.3364
 -20109537.88747 -15661977.92645  21391040.6724                   21391039.0084
 -14409918.98447 -11221042.93045  22386392.8284                   22386390.6054
 11  9 24  2 16  0.0000000  0  7G29G30G15G05G18G26G21
 -26734183.60548 -20819530.62147  20292829.0084                   20292827.3094
  -2287977.78546  -1769246.16443  24626871.0634                   24626872.5904
 -21804075.81648 -16982551.03546  20598037.9224                   20598035.9924
 -12883781.85246 -10024400.65243  23992136.3444                   23992135.2114
 -12645678.51247  -9843465.32045  22050023.0864                   22050020.5904
 -20085134.92247 -15642962.60545  21395684.2344                   21395682.6414
 -14490666.07047 -11283962.68745  22371027.1644                   22371024.3364
 11  9 24  2 16 30.0000000  0  7G29G30G15G05G18G26G21
 -26725800.93448 -20812998.66047  20294424.3204                   20294422.8244
  -2231228.04746  -1725025.56643  24637670.3914                   24637671.3714
 -21839883.57848 -17010453.15646  20591224.2504                   20591222.0664
 -12815093.66046  -9970877.37943  24005206.8914                   24005207.0514
 -12708383.27748  -9892326.11745  22038090.9614                   22038088.4064
 -20060066.53547 -15623428.78945  21400454.5234                   21400453.5314
 -14571387.13747 -11346862.17245  22355666.4924                   22355663.6724
 11  9 24  2 17  0.0000000  0  7G29G30G15G05G18G26G21
 -26716854.11348 -20806027.10947  20296126.6094                   20296125.0824
  -2174472.51246  -1680800.52743  24648470.3364                   24648471.9144
 -21875092.32048 -17037888.52047  20584523.8364                   20584522.2854
 -12746432.88346  -9917375.47343  24018273.0164                   24018272.9494
 -12770831.96147  -9940987.37945  22026207.1484                   22026204.7344
 -20034335.62947 -15603378.72345  21405351.6954                   21405349.7544
 -14652082.41447 -11409741.56245  22340310.6884                   22340307.8714
 11  9 24  2 17 30.0000000  0  7G29G30G15G05G18G26G21
 -26707341.73448 -20798614.86747  20297936.7894                   20297935.4304
  -2117712.30546  -1636571.77344  24659271.7194                   24659272.5354
 -21909699.80148 -17064855.35547  20577938.4454                   20577936.4804
 -12677798.79746  -9863894.37543  24031333.3364                   24031332.2774
 -12833023.21947  -9989448.06245  22014372.4534                   22014369.8324
 -20007941.93047 -15582812.18045  21410373.6804                   21410372.2854
 -14732749.04347 -11472598.64145  22324960.3914                   22324957.0354
 11  9 24  2 18  0.0000000  0  7G29G30G15G05G18G26G21
 -26697267.41048 -20790764.73847  20299853.7114                   20299852.3054
  -2060953.28146  -1592343.96943  24670072.7194                   24670073.3914
 -21943707.88747 -17091355.13347  20571466.7424                   20571465.1254
 -12609195.00446  -9810436.88743  24044388.3134                   24044387.4344
 -12894960.48447 -10037710.82045  22002586.1334                   22002583.9184
 -19980890.08247 -15561732.80945  21415521.5234                   21415520.0944
 -14813388.94147 -11535434.87945  22309615.3444                   22309612.3524
 11  9 24  2 18 30.0000000  0  7G29G30G15G05G18G26G21
 -26686632.22748 -20782477.57847  20301877.5864                   20301876.5354
  -2004198.67246  -1548119.59044  24680873.2344                   24680873.8244
 -21977116.45748 -17117387.75447  20565109.2504                   20565107.4384
 -12540623.16846  -9757004.26643  24057437.5554                   24057436.4844
 -12956644.40247 -10085776.16045  21990847.9694                   21990845.9734
 -19953181.89547 -15540142.01245  21420794.1334                   21420793.0594
 -14894001.41047 -11598249.73445  22294274.8674                   22294271.8794
 11  9 24  2 19  0.0000000  0  7G29G30G15G05G18G26G21
 -26675434.71948 -20773752.24647  20304008.9534                   20304006.8674
  -1947449.53946  -1503899.53544  24691671.4844                   24691672.6524
 -22009923.30948 -17142951.51247  20558866.5394                   20558864.4614
 -12472082.29746  -9703595.82843  24070480.8364                   24070478.4534
 -13018073.80147 -10133643.18445  21979158.0164                   21979155.9414
 -19924817.68047 -15518040.00445  21426192.0084                   21426190.0594
 -14974583.61747 -11661041.02045  22278941.0634                   22278937.7194
 11  9 24  2 19 30.0000000  0  7G29G30G15G05G18G26G21
 -26663676.59848 -20764590.07847  20306246.1414                   20306244.1644
  -1890710.03146  -1459686.93744  24702468.8914                   24702470.0124
 -22042128.95748 -17168046.79746  20552737.6884                   20552735.6954
 -12403574.77346  -9650213.34843  24083516.9924                   24083515.4774
 -13079250.13747 -10181313.01645  21967516.3674                   21967514.2704
 -19895800.02047 -15495428.83245  21431713.5634                   21431712.2074
 -15055135.72347 -11723808.84845  22263612.0784                   22263609.1334
 11  9 24  2 20  0.0000000  0  7G29G30G15G05G18G26G21
 -26651358.53148 -20754991.58647  20308590.3674                   20308588.2234
  -1833982.91846  -1415483.98443  24713263.7034                   24713266.0784
 -22073732.52348 -17192672.92247  20546723.9144                   20546721.8134
 -12335101.32446  -9596857.39843  24096546.0784                   24096546.3634
 -13140173.82447 -10228785.97345  21955922.8834                   21955920.5944
 -19866130.93747 -15472310.05545  21437359.2194                   21437357.5864
 -15135656.64848 -11786552.38345  22248289.5314                   22248286.9384
 11  9 24  2 20 30.0000000  0  6G29G15G05G18G26G21
 -26638480.73448 -20744956.93447  20311040.7734                   20311038.9224
 -22104733.59048 -17216829.57446  20540824.4774                   20540822.6914
 -12266662.49245  -9543528.47343  24109568.9614                   24109569.1254
 -13200844.70747 -10276061.93445  21944378.1174                   21944375.6604
 -19835811.31247 -15448684.36745  21443129.2584                   21443127.4024
 -15216144.72348 -11849270.30945  22232972.8984                   22232970.1484
 11  9 24  2 21  0.0000000  0  6G29G15G05G18G26G21
 -26625042.51648 -20734485.60247  20313597.6174                   20313596.4734
 -22135129.93448 -17240515.00847  20535040.1804                   20535038.2424
 -12198258.14145  -9490226.41443  24122585.6174                   24122585.2074
 -13261262.25447 -10323140.50445  21932881.1334                   21932878.7274
 -19804842.19547 -15424552.57045  21449022.3204                   21449020.8364
 -15296597.81647 -11911960.97745  22217663.0164                   22217660.6254
 11  9 24  2 21 30.0000000  0  6G29G15G05G18G26G21
 -26611039.91048 -20723574.47747  20316262.3674                   20316261.0164
 -22164917.16447 -17263725.80947  20529371.7034                   20529370.0824
 -12129884.78946  -9436948.53143  24135598.0394                   24135597.1564
 -13321422.16447 -10370018.32045  21921432.8284                   21921430.3834
 -19773220.76647 -15399912.48445  21455039.7344                   21455038.0554
 -15377010.35247 -11974620.05145  22202361.0394                   22202358.5434
 11  9 24  2 22  0.0000000  0  6G29G15G05G18G26G21
 -26596471.61348 -20712222.55947  20319035.2114                   20319033.1174
 -22194092.35548 -17286459.70747  20523820.0394                   20523817.9734
 -12061540.97746  -9383693.64143  24148603.2664                   24148601.9184
 -13381322.95347 -10416694.23045  21910033.9924                   21910031.8444
 -19740946.73447 -15374763.86745  21461181.1954                   21461179.3014
 -15457379.24248 -12037245.11345  22187067.4924                   22187064.5704
 11  9 24  2 22 30.0000000  0  6G29G15G05G18G26G21
 -26581337.11348 -20700429.44147  20321914.8524                   20321913.1134
 -22222654.13348 -17308715.60247  20518384.7424                   20518383.0234
 -11993226.55946  -9330461.63743  24161603.3364                   24161602.0164
 -13440963.80547 -10463167.57445  21898684.7344                   21898682.2544
 -19708020.85247 -15349107.33245  21467446.7344                   21467444.8834
 -15537701.33648 -12099833.72346  22171783.0234                   22171779.9144
 11  9 24  2 23  0.0000000  0  6G29G15G05G18G26G21
 -26565640.76248 -20688198.51647  20324901.5234                   20324900.5904
 -22250605.58648 -17330495.92647  20513065.9064                   20513063.9614
 -11924946.50446  -9277256.41044  24174596.9774                   24174595.3244
 -13500348.69547 -10509441.47345  21887384.2274                   21887381.7274
 -19674448.68747 -15322947.19145  21473835.0864                   21473833.5594
 -15617979.85248 -12162388.36345  22156506.4304                   22156503.0434
 11  9 24  2 23 30.0000000  0  6G29G15G05G18G26G21
 -26549384.87948 -20675531.58647  20327995.1484                   20327993.5354
 -22277947.83647 -17351801.54747  20507863.0164                   20507861.0004
 -11856702.41846  -9224079.19944  24187583.0554                   24187582.2704
 -13559479.55547 -10555517.42645  21876132.1414                   21876129.1054
 -19640233.64847 -15296286.10245  21480346.0944                   21480344.6524
 -15698214.94148 -12224909.16445  22141237.7504                   22141235.0124
 11  9 24  2 24  0.0000000  0  6G29G15G05G18G26G21
 -26532571.27348 -20662430.09047  20331194.3754                   20331192.9454
 -22304682.00448 -17372633.34447  20502775.8134                   20502773.7814
 -11788496.67646  -9170931.89144  24200562.3984                   24200561.2664
 -13618357.91448 -10601396.62145  21864927.9614                   21864925.0704
 -19605378.88347 -15269126.54345  21486979.0004                   21486977.2854
 -15778407.20747 -12287396.59445  22125977.4924                   22125974.8284
 11  9 24  2 24 30.0000000  0  6G29G15G05G18G26G21
 -26515202.83248 -20648896.23447  20334499.8364                   20334498.2974
 -22330809.43048 -17392992.35247  20497803.7344                   20497801.7934
 -11720332.06246  -9117816.58644  24213533.8524                   24213532.8754
 -13676986.33648 -10647081.05945  21853771.2734                   21853768.4264
 -19569888.38347 -15241471.58245  21493732.4304                   21493730.8164
 -15858556.78948 -12349850.76245  22110725.7344                   22110723.1524
 11  9 24  2 25  0.0000000  0  6G29G15G05G18G26G21
 -26497280.32848 -20634930.65647  20337910.1094                   20337908.2074
 -22356329.72348 -17412878.27047  20492947.3984                   20492945.5664
 -11652209.41046  -9064734.04344  24226496.8914                   24226495.8794
 -13735365.35548 -10692571.16045  21842662.0554                   21842658.9414
 -19533764.05147 -15213322.76245  21500606.6884                   21500605.0554
 -15938662.49248 -12412270.74245  22095482.0944                   22095478.9774
 11  9 24  2 25 30.0000000  0  6G29G15G05G18G26G21
 -26478804.32848 -20620533.77747  20341426.0474                   20341424.4104
 -22381242.69948 -17432290.95747  20488206.3834                   20488204.6214
 -11584129.15246  -9011684.48044  24239451.7814                   24239451.1764
 -13793495.46948 -10737867.30945  21831600.1884                   21831597.1024
 -19497007.73447 -15184681.47745  21507601.3204                   21507599.3674
 -16018723.24248 -12474655.69545  22080247.0634                   22080244.0434
 11  9 24  2 26  0.0000000  0  6G29G15G05G18G26G21
 -26459776.39148 -20605706.82047  20345046.9774                   20345044.9654
 -22405548.71148 -17451230.68047  20483581.0704                   20483579.1524
 -11516092.88346  -8958669.25043  24252399.1334                   24252398.0434
 -13851377.53548 -10782970.18045  21820585.5084                   21820582.8364
 -19459622.15647 -15155549.84845  21514715.0164                   21514713.8554
 -16098738.23448 -12537004.99645  22065020.6334                   22065017.7384
 11  9 24  2 26 30.0000000  0  6G29G15G05G18G26G21
 -26440196.62548 -20590449.86347  20348772.9614                   20348771.1214
 -22429246.91448 -17469696.78946  20479071.4924                   20479069.3484
 -11448101.09446  -8905688.62143  24265337.5314                   24265337.1134
 -13909011.36748 -10827879.61345  21809618.1724                   21809615.7384
 -19421608.45347 -15125928.77745  21521948.8284                   21521947.3674
 -16178705.09847 -12599316.80145  22049803.3524                   22049800.6454
 11  9 24  2 27  0.0000000  0  6G29G15G05G18G26G21
 -26420069.89848 -20574766.69547  20352603.0084                   20352601.3914
 -22452340.84848 -17487692.04747  20474676.9384                   20474674.9184
 -11380158.11746  -8852746.04743  24278266.4534                   24278265.4804
 -13966401.16048 -10872598.91045  21798697.6254                   21798694.5984
 -19382972.96947 -15095823.20345  21529301.1094                   21529299.6254
 -16258627.14147 -12661593.68045  22034594.6884                   22034591.7504
 11  9 24  2 27 30.0000000  0  6G29G15G05G18G26G21
 -26399391.34848 -20558653.54347  20356537.7814                   20356536.6134
 -22474824.99648 -17505212.14547  20470398.3284                   20470396.6294
 -11312259.37946  -8799837.89842  24291188.1564                   24291186.0784
 -14023541.90648 -10917124.12545  21787823.6254                   21787820.7934
 -19343712.09847 -15065230.30545  21536772.3674                   21536770.9844
 -16338497.68047 -12723830.41845  22019395.8054                   22019392.6914
 11  9 24  2 28  0.0000000  0  6G29G15G05G18G26G21
 -26378166.77748 -20542114.91447  20360577.1174                   20360575.3674
 -22496703.82448 -17522260.55947  20466235.1334                   20466232.8094
 -11244410.25845  -8746968.54342  24304098.5474                   24304098.3674
 -14080438.93748 -10961459.43045  21776996.4384                   21776993.9184
 -19303832.62147 -15034155.38345  21544360.6884                   21544359.7504
 -16418320.03947 -12786029.60545  22004206.1174                   22004202.7664
 11  9 24  2 28 30.0000000  0  6G29G15G05G18G26G21
 -26356395.94548 -20525150.61747  20364719.6644                   20364717.7304
 -22517975.78147 -17538836.08247  20462186.7034                   20462184.6994
 -11176609.984 5                  24317001.492
 -14137091.40248 -11005604.16045  21766216.0394                   21766213.3674
 -19263335.66847 -15002599.32045  21552067.0164                   21552065.6054
 -16498091.14847 -12848188.87545  21989025.8754                   21989022.8054
 11  9 24  2 29  0.0000000  0  6G29G15G05G18G26G21
 -26334080.99248 -20507762.34447  20368966.2034                   20368964.3554
 -22538642.27747 -17554939.83247  20458253.8594                   20458252.2034
                                  24329892.984
 -14193501.09848 -11049559.72346  21755481.6254                   21755478.4264
 -19222224.54347 -14970564.66445  21559890.8134                   21559889.3634
 -16577811.46947 -12910308.56646  21973855.6484                   21973852.8874
 11  9 24  2 29 30.0000000  0  6G29G15G05G18G26G21
 -26311223.25048 -20489951.10247  20373315.7974                   20373313.4804
 -22558703.39548 -17570571.85247  20454436.1024                   20454434.8134
 -11041164.102 5                  24342775.367
 -14249668.74248 -11093326.66445  21744792.9064                   21744789.6524
 -19180501.69547 -14938053.34445  21567830.3674                   21567828.6414
 -16657479.90247 -12972387.82845  21958695.4774                   21958692.3634
 11  9 24  2 30  0.0000000  0  6G29G15G05G18G26G21
 -26287823.19948 -20471717.30547  20377768.4454                   20377766.8244
 -22578158.96147 -17585732.01647  20450734.3134                   20450732.2704
 -10973519.66815                  24355648.203
 -14305594.25448 -11136904.94145  21734150.6564                   21734148.0004
 -19138169.03547 -14905066.84445  21575886.2034                   21575884.4734
 -16737094.85547 -13034425.42245  21943545.1484                   21943542.3404
 11  9 24  2 30 30.0000000  0  6G29G15G05G18G26G21
 -26263882.06248 -20453061.87147  20382324.1254                   20382322.8554
 -22597008.66848 -17600420.07447  20447147.2194                   20447145.3204
 -10905928.520 6                  24368509.172
 -14361278.74648 -11180295.41045  21723554.4534                   21723551.5944
 -19095228.83647 -14871606.95345  21584057.0394                   21584056.0744
 -16816655.06247 -13096420.35246  21928404.9844                   21928402.3444
 11  9 24  2 31  0.0000000  0  7G22G29G15G05G18G26G21
   4592018.08257   3586663.50454  24521646.5084                   24521644.3554
 -26239402.73048 -20433987.07447  20386982.5554                   20386980.8134
 -22615254.85948 -17614637.86347  20443675.1954                   20443673.1954
 -10838393.08246  -8430592.49652  24381361.4924                   24381360.2114
 -14416723.94148 -11223499.42646  21713003.6414                   21713001.3204
 -19051685.27347 -14837676.88345  21592343.1644                   21592341.3164
 -16896160.91847 -13158372.94146  21913275.7734                   21913272.4064
 11  9 24  2 31 30.0000000  0  7G22G29G15G05G18G26G21
   6076187.80547   4743159.53544  24804074.3364                   24804072.1334
 -24638972.84448 -19186898.86347  20691534.3834                   20691532.9574
 -21057482.04748 -16400788.90247  20740109.3444                   20740107.5474
  -9195501.89546  -7150417.54342  24693993.2344                   24693990.4964
 -12896514.35948 -10038920.49646  22002289.9304                   22002287.0274
 -17432127.66447 -13575683.94945  21900534.7424                   21900532.8594
 -15400193.75848 -11992684.21946  22197948.9694                   22197945.7464
 11  9 24  2 32  0.0000000  0  7G22G29G15G05G18G26G21
   5985086.02347   4672171.31344  24786738.1334                   24786735.7074
 -24613435.37948 -19166999.54747  20696393.9064                   20696392.5274
 -21074535.36348 -16414077.18747  20736864.5474                   20736862.4384
  -9128094.78146  -7097892.56642  24706820.2194                   24706818.2074
 -12951498.09448 -10081764.93046  21991826.3754                   21991824.1724
 -17387399.03147 -13540830.46945  21909046.1094                   21909044.2424
 -15479601.29348 -12054560.18446  22182837.9774                   22182834.8014
 11  9 24  2 32 30.0000000  0  7G22G29G15G05G18G26G21
   5894137.38347   4601302.43044  24769430.7194                   24769428.7344
 -24587370.81248 -19146689.50847  20701353.9384                   20701352.4024
 -21090993.03148 -16426901.32047  20733732.5864                   20733730.6564
  -9060753.50046  -7045418.82043  24719634.9224                   24719633.5744
 -13006252.07048 -10124430.32446  21981406.8284                   21981404.5744
 -17342081.93447 -13505518.43745  21917669.9694                   21917667.3244
 -15558958.63347 -12116397.03946  22167736.8364                   22167733.8634
 11  9 24  2 33  0.0000000  0  7G22G29G15G05G18G26G21
   5803346.42247   4530556.39143  24752153.7114                   24752151.9304
 -24560776.43748 -19125966.62147  20706414.8984                   20706413.3324
 -21106851.14147 -16439258.27747  20730714.7734                   20730713.0274
  -8993475.08246  -6992994.13343  24732437.4534                   24732437.0044
 -13060773.38348 -10166914.42245  21971031.6094                   21971029.0784
 -17296174.57047 -13469746.44545  21926405.5554                   21926404.1724
 -15638259.91047 -12178190.22346  22152645.9534                   22152643.4534
 11  9 24  2 33 30.0000000  0  7G22G29G15G05G18G26G21
   5712713.91046   4459933.80943  24734906.5634                   24734904.1724
 -24533652.87148 -19104831.38347  20711576.3674                   20711574.2424
 -21122109.39848 -16451147.80146  20727811.0784                   20727809.0824
  -8926258.66446  -6940617.70743  24745229.0314                   24745227.1454
 -13115061.44948 -10209216.77746  21960701.2814                   21960698.4844
 -17249678.46547 -13433515.74645  21935254.1414                   21935251.6604
 -15717503.55948 -12239938.48446  22137566.8914                   22137563.3714
 11  9 24  2 34  0.0000000  0  7G22G29G15G05G18G26G21
   5622239.96546   4389434.75443  24717690.1564                   24717686.2304
 -24506000.69148 -19083284.23047  20716838.5164                   20716836.4964
 -21136767.16048 -16462569.41847  20725022.0944                   20725019.5664
  -8859105.23845  -6888290.37942  24758006.9924                   24758006.8714
 -13169116.57848 -10251337.60946  21950414.9454                   21950412.2544
 -17202596.19947 -13396828.24645  21944212.9454                   21944211.0274
 -15796687.80548 -12301640.46546  22122498.5084                   22122495.2584
 11  9 24  2 34 30.0000000  0  7G22G29G15G05G18G26G21
   5531926.35246   4319060.65243  24700504.0784                   24700500.7304
 -24477819.98448 -19061325.24647  20722200.6724                   20722198.8524
 -21150823.61748 -16473522.47347  20722347.2814                   20722344.8284
  -8792013.91045  -6836011.47742  24770775.1884                   24770774.3014
 -13222937.82848 -10293276.22746  21940173.2114                   21940170.2304
 -17154928.60547 -13359684.66445  21953284.2504                   21953282.6094
 -15875809.51648 -12363293.72346  22107442.0474                   22107439.0314
 11  9 24  2 35  0.0000000  0  7G22G29G15G05G18G26G21
   5441774.94546   4248812.87943  24683348.4224                   24683344.4064
 -24449110.37548 -19038954.12947  20727664.0634                   20727662.3674
 -21164277.43448 -16484005.94947  20719786.7894                   20719785.2894
                                  24783532.2194                   24783529.2154
 -13276524.43448 -10335031.97746  21929975.7894                   21929972.7154
 -17106676.79347 -13322085.85945  21962466.3364                   21962464.3204
 -15954866.00048 -12424896.15246  22092397.8834                   22092395.3834
 11  9 24  2 35 30.0000000  0  6G22G29G15G18G26G21
   5351784.25446   4178690.42243  24666223.4064                   24666220.4734
 -24419874.66848 -19016173.06247  20733227.0164                   20733225.9264
 -21177130.29348 -16494021.14847  20717341.2194                   20717338.8954
 -13329878.37148 -10376606.45346  21919822.6024                   21919820.1884
 -17057844.50047 -13284034.71545  21971758.4224                   21971756.6684
 -16033857.59448 -12486448.01246  22077366.3674                   22077363.4694
 11  9 24  2 36  0.0000000  0  6G22G29G15G18G26G21
   5261954.39146   4108693.27043  24649129.5864                   24649127.4184
 -24390114.61748 -18992983.42647  20738890.5784                   20738888.7274
 -21189382.99648 -16503568.68747  20715009.5784                   20715007.3984
 -13383000.58248 -10418000.35245  21909714.1564                   21909711.3204
 -17008434.54747 -13245533.45345  21981160.9064                   21981159.1374
 -16112782.98848 -12547948.28946  22062347.8054                   22062343.6884
 11  9 24  2 36 30.0000000  0  6G22G29G15G18G26G21
   5172287.45746   4038823.03143  24632066.1334                   24632064.1684
 -24359829.61348 -18969384.72747  20744653.7194                   20744652.2974
 -21201034.07848 -16512647.42647  20712792.3204                   20712790.3444
 -13435890.08248 -10459212.93045  21899649.7344                   21899646.8094
 -16958447.74647 -13206582.70345  21990673.1414                   21990671.3874
 -16191638.92648 -12609394.44146  22047341.6884                   22047338.3874
 11  9 24  2 37  0.0000000  0  6G22G29G15G18G26G21
   5082782.04745   3969078.77343  24615032.9614                   24615030.9614
 -24329021.98848 -18945378.79347  20750516.3524                   20750514.7154
 -21212084.91048 -16521258.44947  20710689.2664                   20710687.1644
 -13488547.99248 -10500245.04346  21889629.2584                   21889626.6134
 -16907887.38747 -13167185.00845  22000294.1254                   22000292.6844
 -16270424.84848 -12670786.04346  22032349.4064                   22032345.8674
 11  9 24  2 37 30.0000000  0  6G22G29G15G18G26G21
   4993438.66845   3899460.72743  24598031.6094                   24598028.6604
 -24297693.14548 -18920966.71147  20756477.5704                   20756476.0864
 -21222535.51248 -16529401.75446  20708700.5784                   20708698.4964
 -13540975.06648 -10541097.27046  21879652.5314                   21879649.9104
 -16856756.45347 -13127342.72745  22010024.5554                   22010022.8204
 -16349138.77348 -12732121.54746  22017370.2424                   22017367.2854
 11  9 24  2 38  0.0000000  0  6G22G29G15G18G26G21
   4904257.50846   3829969.08243  24581062.0314                   24581058.5824
 -24265844.72748 -18896149.76647  20762538.4304                   20762536.6724
 -21232386.86748 -16537078.12147  20706826.0234                   20706823.9414
 -13593172.12948 -10581770.28946  21869719.8364                   21869716.9734
 -16805057.41447 -13087057.74645  22019862.0474                   22019860.4694
 -16427780.73047 -12793400.95746  22002405.4614                   22002401.8954
 11  9 24  2 38 30.0000000  0  6G22G29G15G18G26G21
   4815237.35546   3760602.83243  24564121.2194                   24564118.3594
 -24233479.14148 -18870929.83246  20768697.5084                   20768695.5204
 -21241640.39548 -16544288.63747  20705065.3524                   20705063.3324
 -13645141.17248 -10622265.62946  21859830.4384                   21859827.5314
 -16752794.20347 -13046333.18745  22029807.8674                   22029806.0744
 -16506350.05948 -12854623.77746  21987453.7504                   21987450.6764
 11  9 24  2 39  0.0000000  0  6G22G29G15G18G26G21
   4726377.68046   3691361.62943  24547212.1804                   24547208.2774
 -24200598.13348 -18845308.27347  20774954.5234                   20774952.8444
 -21250296.83248 -16551033.89547  20703417.9224                   20703416.1414
 -13696882.91848 -10662583.84046  21849984.4454                   21849981.2774
 -16699969.79347 -13005171.28945  22039859.6564                   22039858.0124
 -16584845.43048 -12915788.97346  21972516.8594                   21972513.6684
 11  9 24  2 39 30.0000000  0  6G22G29G15G18G26G21
   4637681.92646   3622248.17643  24530333.3284                   24530330.2544
 -24167200.37148 -18819284.04746  20781309.8054                   20781308.0634
 -21258354.41448 -16557312.52047  20701884.5314                   20701882.5044
 -13748395.39548 -10702723.40646  21840181.5864                   21840178.4774
 -16646584.11347 -12963572.07845  22050018.7034                   22050017.0274
 -16663262.63347 -12976893.26246  21957594.6484                   21957591.7154
 11  9 24  2 40  0.0000000  0  7G22G29G15G05G18G26G21
   4549147.34846   3553260.33243  24513485.4224                   24513483.1334
 -24133289.99248 -18792860.37146  20787762.7814                   20787761.2344
 -21265815.44148 -16563126.29347  20700464.5634                   20700462.8754
   6343274.62515                  24910403.656
 -13799681.37148 -10742686.48046  21830422.1644                   21830419.2424
 -16592642.03147 -12921539.28145  22060283.6334                   22060282.3754
 -16741602.65248 -13037937.40246  21942686.8054                   21942684.1334
 11  9 24  2 40 30.0000000  0  6G22G29G15G18G26G21
   4460775.46946   3484399.28943  24496669.1724                   24496666.7234
 -24098867.37948 -18766037.57046  20794313.1644                   20794311.8404
 -21272679.32448 -16568474.75847  20699158.6484                   20699156.4224
 -13850740.11348 -10782472.48446  21820706.0864                   21820702.8714
 -16538145.13747 -12879074.18045  22070654.0084                   22070652.2464
 -16819862.71147 -13098919.23046  21927794.5784                   21927791.3634
 11  9 24  2 41  0.0000000  0  6G22G29G15G18G26G21
   4372567.14146   3415665.70743  24479882.4924                   24479880.6604
 -24063932.96948 -18738815.94946  20800960.7734                   20800959.1684
 -21278946.24648 -16573358.05547  20697965.9844                   20697963.9694
 -13901571.87948 -10822081.61745  21811033.2114                   21811030.2584
 -16483095.32847 -12836178.23045  22081129.4534                   22081127.3324
 -16898040.63748 -13159837.05946  21912917.5164                   21912914.4494
 11  9 24  2 41 30.0000000  0  6G22G29G15G18G26G21
   4284529.59047   3347065.19944  24463130.7114                   24463127.2624
 -24028481.07448 -18711191.10946  20807707.0314                   20807705.4654
 -21284609.44148 -16577770.91847  20696888.2424                   20696886.3164
 -13952170.09048 -10861508.77746  21801404.7114                   21801401.7704
 -16427488.05547 -12792847.88345  22091711.0164                   22091709.7274
 -16976127.58647 -13220684.00046  21898057.9304                   21898054.9654
 11  9 24  2 42  0.0000000  0  6G22G29G15G18G26G21
   4196663.48047   3278598.27044  24446409.6024                   24446407.8954
 -23992512.96548 -18683164.01246  20814551.9774                   20814549.9224
 -21289669.03148 -16581713.43747  20695925.5314                   20695923.2624
 -14002534.76648 -10900753.95345  21791820.6414                   21791817.9534
 -16371325.68747 -12749085.01245  22102398.5314                   22102397.7034
 -17054121.93748 -13281458.78946  21883216.4844                   21883213.0984
 11  9 24  2 42 30.0000000  0  6G22G29G15G18G26G21
   4108966.03547   3210262.76244  24429722.2584                   24429719.3554
 -23956033.05548 -18654738.10946  20821493.7584                   20821491.7894
 -21294128.70348 -16585188.49247  20695076.6724                   20695074.8054
 -14052669.28147 -10939819.78145  21782280.0944                   21782277.2774
 -16314614.01247 -12704894.09045  22113190.4384                   22113188.6564
 -17132024.78148 -13342162.29346  21868391.8134                   21868388.6214
 11  9 24  2 43  0.0000000  0  6G22G29G15G18G26G21
   4021436.34047   3142057.92245  24413065.6254                   24413061.9844
 -23919043.91848 -18625915.41046  20828532.4144                   20828530.7304
 -21297989.94548 -16588197.23046  20694342.1724                   20694339.6884
 -14102575.57848 -10978707.78146  21772783.0394                   21772779.9574
 -16257356.50047 -12660277.86345  22124086.1724                   22124084.8714
 -17209835.66048 -13402794.11346  21853584.9144                   21853581.5744
 11  9 24  2 43 30.0000000  0  6G22G29G15G18G26G21
   3934073.10247   3073982.80944  24396440.8444                   24396437.5004
 -23881548.15648 -18596697.94146  20835667.5164                   20835665.7584
 -21301254.39148 -16590740.94147  20693721.2034                   20693718.5984
 -14152255.45347 -11017419.34046  21763329.0004                   21763326.3754
 -16199557.06247 -12615239.34845  22135085.1644                   22135083.0474
 -17287553.87547 -13463353.74646  21838795.7504                   21838792.4454
 11  9 24  2 44  0.0000000  0  6G22G29G15G18G26G21
   3846876.28946   3006037.34844  24379846.5784                   24379844.4384
 -23843547.89148 -18567087.33646  20842899.1414                   20842897.1214
 -21303923.46948 -16592820.72747  20693212.7584                   20693210.7384
 -14201709.42647 -11055954.87146  21753918.5394                   21753915.5314
 -16141218.94947 -12569781.07845  22146185.8594                   22146184.8364
 -17365178.19547 -13523840.20746  21824024.3594                   21824021.2304
 11  9 24  2 44 30.0000000  0  6G22G29G15G18G26G21
   3759843.63747   2938219.85544  24363285.1414                   24363282.4224
 -23805046.82448 -18537086.51646  20850225.5864                   20850224.2154
 -21306000.35548 -16594439.06647  20692817.6484                   20692815.6484
 -14250940.64847 -11094316.83646  21744550.2344                   21744547.3984
 -16082347.10947 -12523906.93045  22157389.3054                   22157387.7664
 -17442709.43748 -13584254.13746  21809270.6414                   21809267.3404
 11  9 24  2 45  0.0000000  0  6G22G29G15G18G26G21
   3672975.84846   2870530.81344  24346755.0944                   24346752.0164
 -23766046.33248 -18506696.53546  20857646.8834                   20857645.3444
 -21307484.66048 -16595595.66047  20692535.3134                   20692532.9494
 -14299949.54347 -11132505.55946  21735224.1484                   21735221.2424
 -16022943.94547 -12477618.74645  22168693.3524                   22168691.9144
 -17520145.90247 -13644594.22346  21794534.8594                   21794531.5394
 11  9 24  2 45 30.0000000  0  6G22G29G15G18G26G21
   3586271.92646   2802969.44944  24330255.0704                   24330252.1914
 -23726549.10248 -18475919.46946  20865163.2344                   20865161.1684
 -21308378.30148 -16596291.99247  20692365.0944                   20692363.0984
 -14348737.63347 -11170522.21946  21725940.2114                   21725937.1134
 -15963013.11347 -12430919.40244  22180098.0084                   22180096.1954
 -17597486.67647 -13704859.74246  21779817.6804                   21779814.1134
 11  9 24  2 46  0.0000000  0  6G22G29G15G18G26G21
   3499733.03946   2735536.67244  24313788.6414                   24313785.0084
 -23686555.55947 -18444755.68046  20872773.4454                   20872771.8244
 -21308681.08648 -16596527.91446  20692307.3284                   20692305.2234
 -14397304.18747 -11208366.25446  21716697.9614                   21716695.3834
 -15902556.55547 -12383810.39545  22191603.1174                   22191600.1564
 -17674729.27347 -13765048.75446  21765119.1024                   21765115.2304
 11  9 24  2 46 30.0000000  0  6G22G29G15G18G26G21
   3413357.85246   2668231.41843  24297351.3674                   24297347.8014
 -23646068.80147 -18413207.56246  20880477.9304                   20880476.1804
 -21308395.68048 -16596305.50847  20692361.9534                   20692359.7814
 -14445651.45347 -11246039.40646  21707497.6804                   21707494.7974
 -15841578.44547 -12336294.98845  22203206.5704                   22203204.7344
 -17751873.29347 -13825160.96146  21750438.4924                   21750435.1994
 11  9 24  2 47  0.0000000  0  6G22G29G15G18G26G21
   3327146.78146   2601054.09443  24280945.4924                   24280940.8634
 -23605089.91447 -18381275.96946  20888275.7034                   20888274.6294
 -21307521.85548 -16595624.59847  20692528.2974                   20692526.4414
 -14493779.46947 -11283541.74246  21698339.2504                   21698336.5744
 -15780081.16047 -12288375.06245  22214908.9774                   22214908.1414
 -17828916.62147 -13885194.70346  21735777.4454                   21735774.7034
 11  9 24  2 47 30.0000000  0  7G22G09G29G15G18G26G21
   3241095.42246   2534001.17643  24264570.3914                   24264565.1724
   6108486.48856   4769260.52753  24900394.7034                   24900393.3634
 -23563625.68747 -18348966.19146  20896166.4534                   20896164.9224
 -21306065.24648 -16594489.56247  20692805.0704                   20692802.9654
 -14541693.21947 -11320877.10246  21689221.6484                   21689218.7584
 -15718071.96147 -12240056.19945  22226708.5944                   22226707.6684
 -17905862.47747 -13945152.49246  21721135.1254                   21721132.1294
 11  9 24  2 48  0.0000000  0  7G22G09G29G15G18G26G21
   3155199.21946   2467069.25043  24248224.4454                   24248221.4534
   6005022.40246   4688639.27043  24880706.2894                   24880704.8554
 -23521682.24647 -18316283.00046  20904147.8444                   20904146.2934
 -21304031.25448 -16592904.62546  20693192.2344                   20693190.1134
 -14589397.81247 -11358049.49246  21680144.0314                   21680141.2504
 -15655558.41047 -12191344.35545  22238604.5164                   22238602.8594
 -17982712.52047 -14005035.62546  21706511.5314                   21706507.7814
 11  9 24  2 48 30.0000000  0  7G22G09G29G15G18G26G21
   3069457.19546   2400257.37143  24231908.7034                   24231903.8674
   5901460.21947   4607941.52343  24860999.1884                   24860998.2854
 -23479262.37948 -18283228.57446  20912220.0864                   20912218.1884
 -21301421.81648 -16590871.27746  20693688.8134                   20693686.7934
 -14636895.94147 -11395061.00446  21671104.5234                   21671102.3524
 -15592544.41047 -12142242.54345  22250595.4384                   22250594.0984
 -18059467.84048 -14064844.94546  21691905.2344                   21691901.9734
 11  9 24  2 49  0.0000000  0  7G22G09G29G15G18G26G21
   2983871.60546   2333567.38343  24215622.0084                   24215617.5904
   5797805.45747   4527171.63343  24841273.9304                   24841273.0554
 -23436365.18448 -18249802.18746  20920383.2814                   20920381.6994
 -21298235.72748 -16588388.59846  20694295.3284                   20694292.8754
 -14684185.05148 -11431909.63746  21662106.6094                   21662103.4844
 -15529030.49647 -12092751.19945  22262682.3444                   22262680.3954
 -18136123.04348 -14124576.25046  21677318.1414                   21677314.7854
 11  9 24  2 49 30.0000000  0  7G22G09G29G15G18G26G21
   2898444.82446   2267001.20744  24199365.7814                   24199362.0704
   5694063.05947   4446333.45343  24821532.5704                   24821531.7584
 -23392990.54748 -18216003.78546  20928637.1644                   20928635.4494
 -21294471.75048 -16585455.61747  20695011.3914                   20695008.9454
 -14731263.84847 -11468594.39146  21653147.7034                   21653144.9064
 -15465017.51647 -12042870.96145  22274863.6174                   22274862.9104
 -18212674.89547 -14184227.03146  21662750.6644                   21662747.2504
 11  9 24  2 50  0.0000000  0  7G22G09G29G15G18G26G21
   2813177.73847   2200559.43044  24183139.8524                   24183136.9534
   5590236.82446   4365430.01243  24801774.5394                   24801773.8054
 -23349139.75847 -18181834.35246  20936981.5784                   20936980.4844
 -21290129.91048 -16582072.35247  20695837.9454                   20695835.1994
 -14778132.30947 -11505115.23846  21644228.6884                   21644226.2304
 -15400507.52347 -11992603.45745  22287139.2974                   22287137.6024
 -18289121.18048 -14243795.55146  21648203.4694                   21648200.3554
 11  9 24  2 50 30.0000000  0  7G22G09G29G15G18G26G21
   2728071.27047   2134242.82844  24166944.7974                   24166941.2234
   5486330.87546   4284464.33243  24782001.4694                   24781999.9884
 -23304813.23047 -18147294.21146  20945417.0234                   20945415.1024
 -21285209.89848 -16578238.56646  20696774.2344                   20696771.7894
 -14824789.22347 -11541471.25446  21635350.2274                   21635347.2034
 -15335502.38347 -11941950.10245  22299509.5164                   22299507.4924
 -18365459.00847 -14303279.55146  21633677.0084                   21633673.7464
 11  9 24  2 51  0.0000000  0  7G22G09G29G15G18G26G21
   2643125.54347   2068051.47744  24150779.7734                   24150777.0044
   5382348.09846   4203438.83643  24762215.4614                   24762213.7894
 -23260012.90647 -18112384.87546  20953942.0474                   20953940.3914
 -21279712.91448 -16573955.19146  20697819.9454                   20697817.6454
 -14871236.10547 -11577663.60546  21626511.9614                   21626508.6054
 -15270005.04347 -11890913.22744  22311973.2034                   22311971.3554
 -18441686.41847 -14362677.50846  21619171.3204                   21619168.0434
 11  9 24  2 51 30.0000000  0  7G22G09G29G15G18G26G21
   2558340.39546   2001985.18444  24134645.7034                   24134643.1684
   5278291.27046   4122355.68843  24742414.2114                   24742413.4104
 -23214740.94147 -18077108.03546  20962557.1954                   20962555.6054
 -21273640.50848 -16569223.43447  20698975.2814                   20698973.0474
 -14917473.79747 -11613692.94946  21617713.1094                   21617709.8554
 -15204018.71547 -11839495.32445  22324530.2034                   22324528.6564
 -18517802.01647 -14421988.33646  21604687.1954                   21604683.6174
 11  9 24  2 52  0.0000000  0  7G22G09G29G15G18G26G21
   2473715.82846   1936044.02744  24118542.1334                   24118538.7504
   5174163.62546   4041217.33643  24722598.8444                   24722597.4104
 -23168999.10948 -18041465.05546  20971261.3674                   20971259.3524
 -21266993.53548 -16564043.95346  20700240.2274                   20700237.8054
 -14963502.47347 -11649559.43746  21608953.7814                   21608950.8834
 -15137546.18047 -11787698.55544  22337179.3364                   22337177.4964
 -18593804.00048 -14481210.63346  21590224.1644                   21590220.6644
 11  9 24  2 52 30.0000000  0  7G22G09G29G15G18G26G21
   2389252.23446   1870228.34844  24102468.9534                   24102465.5434
   5069968.36745   3960026.25843  24702770.6254                   24702770.0744
 -23122788.89847 -18005457.11346  20980054.7814                   20980053.3954
 -21259772.62148 -16558417.25446  20701614.5394                   20701611.9184
 -15009322.75448 -11685263.53146  21600234.3284                   21600231.9384
 -15070590.34447 -11735525.19144  22349920.4844                   22349918.9574
 -18669689.79748 -14540342.41446  21575783.9774                   21575780.2194
 11  9 24  2 53  0.0000000  0  7G22G09G29G15G18G26G21
   2304949.46946   1804537.95344  24086427.4844                   24086423.6254
   4965708.66046   3878785.01643  24682930.6954                   24682930.3714
 -23076112.22748 -17969085.69146  20988937.2584                   20988935.9264
 -21251979.08648 -16552344.35546  20703097.4304                   20703095.0394
 -15054935.24648 -11720805.71546  21591554.9224                   21591552.1254
 -15003153.76247 -11682977.21945  22362753.1334                   22362751.5234
 -18745458.38348 -14599382.84846  21561365.3914                   21561362.1094
 11  9 24  2 53 30.0000000  0  7G22G09G29G15G18G26G21
   2220808.66847   1738973.78144  24070415.4844                   24070411.5044
   4861388.37146   3797496.57443  24663079.1094                   24663079.1054
 -23028969.55148 -17932351.15246  20997908.2274                   20997906.7034
 -21243612.96548 -16545825.28946  20704689.6174                   20704687.0124
 -15100339.32448 -11756185.48446  21582914.7274                   21582912.3874
 -14935238.80547 -11630056.47744  22375677.0944                   22375675.3754
 -18821106.85248 -14658329.66846  21546969.7504                   21546966.7344
 11  9 24  2 54  0.0000000  0  7G22G09G29G15G18G26G21
   2136826.81347   1673533.46944  24054434.0864                   24054430.6134
   4757007.79346   3716161.07043  24643216.5864                   24643215.4384
 -22981366.69148 -17895258.02046  21006966.5234                   21006965.0864
 -21234678.27748 -16538863.18746  20706389.6254                   20706387.2234
 -15145538.94547 -11791405.95746  21574313.4304                   21574310.9344
 -14866851.30547 -11576767.52744  22388690.6724                   22388688.6484
 -18896636.16447 -14717183.66046  21532597.2584                   21532593.9384
 11  9 24  2 54 30.0000000  0  7G22G09G29G15G18G26G21
   2053006.17647   1608218.79744  24038483.0164                   24038479.3404
   4652571.93445   3634782.55943  24623343.2114                   24623342.4844
 -22933303.11348 -17857805.89546  21016113.0084                   21016111.2154
 -21225173.93048 -16531457.19146  20708198.6334                   20708195.8204
 -15190531.98847 -11826465.43446  21565751.5234                   21565748.8524
 -14797991.85247 -11523110.81644  22401794.2974                   22401792.4534
 -18972042.27347 -14775941.63746  21518247.6334                   21518244.3874
 11  9 24  2 55  0.0000000  0  7G22G09G29G15G18G26G21
   1969347.19547   1543030.05544  24022563.6484                   24022560.3714
   4548084.30946   3553363.72343  24603460.0474                   24603458.4024
 -22884780.30148 -17819995.91846  21025346.1884                   21025344.7814
 -21215100.85948 -16523608.03546  20710115.2814                   20710112.2464
 -15235319.27748 -11861364.60246  21557228.8834                   21557225.9964
 -14728663.45747 -11469088.69944  22414986.9064                   22414984.9414
 -19047323.31248 -14834602.16846  21503922.3284                   21503919.1254
 11  9 24  2 55 30.0000000  0  7G22G09G29G15G18G26G21
   1885847.66047   1477965.59844  24006673.9614                   24006670.2624
   4443545.83246   3471905.27044  24583566.2274                   24583565.7114
 -22835802.19948 -17781831.18046  21034666.9694                   21034664.7974
 -21204462.30148 -16515318.23046  20712139.7034                   20712137.2034
 -15279903.37947 -11896105.43746  21548744.7814                   21548741.7934
 -14658871.05547 -11414705.02744  22428268.5394                   22428266.8244
 -19122479.56648 -14893165.47346  21489620.5634                   21489617.2624
 11  9 24  2 56  0.0000000  0  8G22G09G29G06G15G18G26G21
   1802504.66047   1413023.09044  23990814.1254                   23990810.9184
   4338957.24646   3390407.72344  24563663.7194                   24563663.2624
 -22786373.69548 -17743315.46146  21044072.6334                   21044070.7074
   6108520.54356   4769321.32053  24803090.9224                   24803088.6174
 -21193262.46948 -16506591.08246  20714270.7734                   20714268.5514
 -15324287.74648 -11930690.62546  21540298.5944                   21540295.3364
 -14588620.25047 -11359964.16044  22441636.2584                   22441635.1604
 -19197511.88748 -14951632.18746  21475342.7114                   21475339.1644
 11  9 24  2 56 30.0000000  0  8G22G09G29G06G15G18G26G21
   1719312.12147   1348197.88744  23974983.3524                   23974979.1724
   4234315.41845   3308868.69543  24543751.4304                   24543750.0044
 -22736503.10548 -17704455.27346  21053562.6254                   21053561.1094
   6005569.24646   4689099.64843  24783499.0004                   24783498.1374
 -21181508.56248 -16497432.18446  20716507.6484                   20716504.8954
 -15368479.39547 -11965125.65646  21531889.1024                   21531885.9104
 -14517920.48047 -11304873.42244  22455090.1254                   22455088.4804
 -19272424.04748 -15010005.28146  21461086.8054                   21461084.0084
 11  9 24  2 57  0.0000000  0  8G22G09G29G06G15G18G26G21
   1636270.59047   1283490.29344  23959180.5164                   23959178.0354
   4129623.64846   3227290.78544  24523829.0554                   24523828.5634
 -22686191.78148 -17665251.65246  21063136.3984                   21063135.0704
   5902871.21946   4609075.32443  24763955.7194                   24763955.8914
 -21169201.68447 -16487842.39846  20718849.1884                   20718846.7504
 -15412478.28547 -11999410.47746  21523516.5704                   21523513.0664
 -14446774.27346 -11249434.83244  22468628.8524                   22468627.0944
 -19347214.57847 -15068283.60546  21446854.6804                   21446851.5864
 11  9 24  2 57 30.0000000  0  8G22G09G29G06G15G18G26G21
   1553380.89147   1218901.01644  23943406.4694                   23943403.1884
   4024886.48046   3145677.44944  24503897.6024                   24503897.3594
 -22635440.86348 -17625705.48846  21072794.1644                   21072792.5314
   5800429.88746   4529251.02043  24744461.9694                   24744462.1254
 -21156341.57448 -16477821.53546  20721296.8284                   20721294.0394
 -15456284.07048 -12033544.83646  21515180.4614                   21515177.4064
 -14375183.78947 -11193650.05544  22482252.4144                   22482250.2154
 -19421880.53147 -15126464.84846  21432646.5234                   21432642.7894
 11  9 24  2 58  0.0000000  0  8G22G09G29G06G15G18G26G21
   1470647.30146   1154433.39543  23927663.0474                   23927659.8554
   3920111.19546   3064034.46943  24483960.5474                   24483959.1024
 -22584247.94548 -17585814.91046  21082535.7034                   21082534.2504
   5698251.97346   4449631.93043  24725018.7734                   24725017.7934
 -21142925.80547 -16467367.68046  20723849.2114                   20723847.0664
 -15499893.11748 -12067525.88346  21506882.3054                   21506879.0554
 -14303147.79746 -11137518.11744  22495960.4844                   22495958.6414
 -19496415.40248 -15184543.94946  21418462.5234                   21418459.7154
 11  9 24  2 58 30.0000000  0  8G22G09G29G06G15G18G26G21
   1388068.54346   1090086.44943  23911948.9614                   23911945.4384
   3815299.93445   2982363.39143  24464014.7584                   24464014.5084
 -22532616.38748 -17545582.54346  21092361.2504                   21092359.1214
   5596338.73846   4370219.11743  24705625.3054                   24705624.4964
 -21128956.15648 -16456482.22746  20726507.9304                   20726505.4384
 -15543306.91047 -12101354.78946  21498620.5084                   21498617.2814
 -14230670.09047 -11081041.99244  22509752.8204                   22509749.7664
 -19570818.44547 -15242520.32446  21404304.3444                   21404301.2424
 11  9 24  2 59  0.0000000  0  8G22G09G29G06G15G18G26G21
   1305644.12146   1025859.72343  23896263.8284                   23896260.7234
   3710454.91446   2900666.01643  24444063.0394                   24444062.6414
 -22480548.89848 -17505010.47346  21102268.9614                   21102267.8164
   5494691.96146   4291013.91443  24686282.1484                   24686281.3984
 -21114435.17247 -16445167.17246  20729271.1414                   20729268.7304
 -15586526.95747 -12135032.72346  21490396.2274                   21490393.1454
 -14157754.80147 -11024224.91444  22523627.7584                   22523626.0314
 -19645088.28147 -15300392.90246  21390171.0944                   21390168.0234
 11  9 24  2 59 30.0000000  0  8G22G09G29G06G15G18G26G21
   1223375.41446    961754.32843  23880608.4924                   23880605.3954
   3605580.72346   2818945.93843  24424106.0784                   24424105.4384
 -22428046.10948 -17464099.20746  21112259.9304                   21112258.5124
   5393315.37146   4212019.27043  24666990.9454                   24666990.0904
 -21099362.96547 -16433422.58646  20732139.1954                   20732136.5784
 -15629552.73047 -12168559.27046  21482208.5004                   21482205.4454
 -14084403.57847 -10967068.12544  22537585.8134                   22537583.9574
 -19719222.19147 -15358159.57446  21376063.9304                   21376060.7384
 11  9 24  3  0  0.0000000  0  8G22G09G29G06G15G18G26G21
   1141264.44147    897771.82443  23864983.9614                   23864979.0354
   3500683.00445   2737207.50843  24404145.2114                   24404144.0274
 -22375107.93048 -17422848.70746  21122334.0164                   21122332.3324
   5292213.69146   4133238.81643  24647752.0084                   24647750.5274
 -21083738.18447 -16421247.42246  20735112.4614                   20735109.8914
 -15672382.39147 -12201933.01646  21474058.2504                   21474055.6454
 -14010617.02347 -10909572.10244  22551627.0864                   22551624.5514
 -19793215.98447 -15415817.06246  21361983.6644                   21361980.4454
 11  9 24  3  0 30.0000000  0  8G22G09G29G06G15G18G26G21
   1059309.43447    833910.85243  23849388.4064                   23849383.8594
   3395762.88346   2655451.67643  24384179.4924                   24384178.2464
 -22321738.40248 -17381262.07846  21132489.6804                   21132488.1214
   5191387.56346   4054673.08243  24628564.3984                   24628564.3324
 -21067564.54347 -16408644.57446  20738190.3364                   20738187.6684
 -15715018.36347 -12235155.81646  21465944.9304                   21465941.7584
 -13936400.23047 -10851740.84844  22565750.2974                   22565747.7544
 -19867069.22747 -15473365.02046  21347929.6094                   21347926.5044
 11  9 24  3  1  0.0000000  0  8G22G09G29G06G15G18G26G21
    977511.11346    770172.00444  23833822.2114                   23833818.0664
   3290823.97346   2573681.15243  24364210.4144                   24364208.6484
 -22267938.84848 -17339340.35946  21142727.6724                   21142726.0664
   5090839.98046   3976324.41443  24609431.3054                   24609431.0664
 -21050842.33248 -16395614.27346  20741372.3674                   20741369.9024
 -15757460.75047 -12268227.79746  21457868.3524                   21457865.2154
 -13861755.60947 -10793576.20744  22579954.6884                   22579953.6054
 -19940779.51647 -15530801.60546  21333903.1024                   21333899.7974
 11  9 24  3  1 30.0000000  0  8G22G09G29G06G15G18G26G21
    895869.05147    706554.87944  23818286.4844                   23818282.1054
   3185870.02046   2491898.85543  24344238.2734                   24344237.1724
 -22213711.60948 -17297085.39146  21153046.7584                   21153044.9064
   4990573.17646   3898194.49243  24590351.2344                   24590350.6604
 -21033573.47747 -16382158.02046  20744659.1024                   20744656.0044
 -15799710.55147 -12301149.70346  21449828.3524                   21449825.4024
 -13786686.37546 -10735080.73444  22594238.9224                   22594237.9734
 -20014344.34847 -15588124.83246  21319904.2584                   21319900.3874
 11  9 24  3  2  0.0000000  0  8G22G09G29G06G15G18G26G21
    814384.68447    643060.64844  23802780.8364                   23802776.2544
   3080905.81346   2410108.59843  24324263.7664                   24324261.1954
 -22159057.34848 -17254497.66046  21163446.9534                   21163445.3714
   4890591.11346   3820286.47344  24571324.9304                   24571324.2154
 -21015757.60248 -16368275.50446  20748049.0864                   20748046.2544
 -15841766.66048 -12333920.67646  21441825.2894                   21441822.2114
 -13711194.05146 -10676255.54744  22608605.2344                   22608602.9844
 -20087761.53947 -15645333.02046  21305933.2734                   21305929.9494
 11  9 24  3  2 30.0000000  0  8G22G09G29G06G15G18G26G21
    733055.62547    579687.41444  23787304.3984                   23787299.9224
   2975931.66447   2328310.61343  24304288.2274                   24304287.5944
 -22103980.60248 -17211580.72346  21173927.7974                   21173925.9454
   4790893.64846   3742600.20743  24552353.8204                   24552352.3284
 -20997399.22748 -16353970.27346  20751542.4384                   20751540.1024
 -15883632.21947 -12366543.16846  21433858.5164                   21433856.1844
 -13635284.25046 -10617105.05144  22623050.1414                   22623048.5164
 -20161030.79747 -15702425.93446  21291990.6644                   21291987.6684
 11  9 24  3  3  0.0000000  0  8G22G09G29G06G15G18G26G21
    651883.38347    516436.37544  23771857.0554                   23771853.0044
   2870952.45346   2246508.69544  24284311.1564                   24284309.8914
 -22048482.20348 -17168335.23446  21184488.8674                   21184487.5904
   4691484.69546   3665138.78143  24533436.6884                   24533434.8914
 -20978497.71947 -16339241.82846  20755138.9224                   20755136.7274
 -15925306.36747 -12399016.51646  21425928.1254                   21425925.4654
 -13558958.71946 -10557630.62544  22637574.5634                   22637573.0944
 -20234149.28148 -15759401.35546  21278076.8134                   21278073.0824
 11  9 24  3  3 30.0000000  0  8G22G09G29G06G15G18G26G21
    570866.77347    453306.62944  23756440.3364                   23756436.5274
   2765970.87546   2164704.87544  24264333.3204                   24264332.7664
 -21992565.04748 -17124763.43746  21195129.5704                   21195127.8164
   4592366.02346   3587903.52743  24514574.6094                   24514572.9064
 -20959055.65247 -16324092.14846  20758838.5634                   20758836.0124
 -15966790.48447 -12431341.78146  21418034.2734                   21418031.4774
 -13482220.97746 -10497834.99644  22652177.2814                   22652175.4884
 -20307115.28547 -15816257.96146  21264191.6334                   21264187.9454
 11  9 24  3  4  0.0000000  0  8G22G09G29G06G15G18G26G21
    490006.44547    390298.63744  23741053.0944                   23741048.5164
   2660990.30146   2082901.88344  24244356.3834                   24244356.0664
 -21936230.89148 -17080866.70346  21205849.5084                   21205847.6764
   4493540.22746   3510896.49643  24495768.5554                   24495766.4534
 -20939074.17648 -16308522.16046  20762641.1724                   20762638.7664
 -16008084.87547 -12463519.20346  21410175.9454                   21410172.7664
 -13405074.08246 -10437720.53544  22666857.6644                   22666856.6524
 -20379926.25448 -15872993.78146  21250335.9454                   21250332.5904
 11  9 24  3  4 30.0000000  0  8G22G09G29G06G15G18G26G21
    409302.02047    327412.13344  23725695.6024                   23725691.6024
   2556013.85947   2001102.10244  24224380.8914                   24224379.7934
 -21879482.35548 -17036647.07446  21216648.2974                   21216646.9304
   4395009.42246   3434119.34043  24477018.5784                   24477016.6644
 -20918555.22348 -16292533.35946  20766545.5554                   20766543.4844
 -16049190.52747 -12495549.58246  21402353.8364                   21402350.9304
 -13327521.56246 -10377290.02344  22681615.4384                   22681614.6024
 -20452581.09448 -15929607.92646  21236510.5004                   21236506.6884
 11  9 24  3  5  0.0000000  0  8G22G09G29G06G15G18G26G21
    328753.16447    264646.86344  23710367.6094                   23710363.7034
   2451044.80946   1919308.07844  24204404.9694                   24204404.6024
 -21822321.77348 -16992106.37546  21227525.8284                   21227524.0124
   4296776.05146   3357573.92643  24458325.2114                   24458323.8634
 -20897500.21948 -16276126.84846  20770552.1954                   20770549.7704
 -16090107.85948 -12527433.18446  21394567.3914                   21394564.2774
 -13249566.38346 -10316545.72344  22696449.7734                   22696448.5704
 -20525077.90648 -15986098.94546  21222714.8054                   21222711.2934
 11  9 24  3  5 30.0000000  0  8G22G09G29G06G15G18G26G21
    248360.66447    202003.43844  23695069.6644                   23695065.5004
   2346087.23046   1837522.99244  24184432.2584                   24184431.9774
 -21764750.38748 -16947245.57046  21238481.2194                   21238479.7114
   4198843.20746   3281262.68843  24439689.9774                   24439688.3714
 -20875910.05948 -16259303.35246  20774660.6174                   20774658.5274
 -16130836.78947 -12559169.98446  21386816.9774                   21386813.9454
 -13171210.73846 -10255489.39544  22711360.6174                   22711358.9344
 -20597413.30147 -16042464.17246  21208949.6254                   21208946.0864
 11  9 24  3  6  0.0000000  0  8G22G09G29G06G15G18G26G21
    168122.83647    139480.53544  23679799.7734                   23679796.5004
   2241142.84846   1755748.24643  24164462.1414                   24164460.6604
 -21706772.32048 -16902067.86746  21249513.9224                   21249512.7934
   4101211.67646   3205186.23443  24421111.6024                   24421110.0044
 -20853787.64548 -16242065.09846  20778870.7424                   20778868.3164
 -16171379.53948 -12590761.72346  21379102.2034                   21379098.8284
 -13092459.49246 -10194124.79744  22726346.3914                   22726344.6764
 -20669587.01248 -16098703.42246  21195215.6334                   21195211.8594
 11  9 24  3  6 30.0000000  0  8G22G09G29G06G15G18G26G21
     88039.92647     77078.31644  23664561.0704                   23664556.6374
   2136215.49646   1673986.71143  24144494.9694                   24144494.0004
 -21648389.06248 -16856574.42646  21260624.3364                   21260622.8164
   4003884.21946   3129346.76243  24402589.8364                   24402589.7774
 -20831134.54348 -16224413.33646  20783181.3834                   20783178.7894
 -16211736.36348 -12622208.58646  21371422.7344                   21371419.7274
 -13013315.45346 -10132454.11344  22741407.2274                   22741405.6804
 -20741596.83248 -16154814.96546  21181512.2894                   21181508.6564
 11  9 24  3  7  0.0000000  0  8G22G09G29G06G15G18G26G21
      8111.95747     14796.87144  23649351.4224                   23649347.5864
   2031308.46946   1592241.03943  24124531.1174                   24124530.9964
 -21589602.91848 -16810767.04746  21271810.5474                   21271809.1294
   3906863.47746   3053746.25443  24384128.2424                   24384126.2544
 -20807952.26248 -16206349.21546  20787592.7584                   20787590.1994
 -16251907.77048 -12653510.96146  21363777.6024                   21363774.9184
 -12933781.63746 -10070479.70344  22756541.5164                   22756540.0474
 -20813440.37948 -16210796.93746  21167841.1414                   21167837.6884
 11  9 24  3  7 30.0000000  0  8G22G09G29G06G15G18G26G21
    -71661.12547    -47363.90644  23634170.5864                   23634167.1294
   1926424.76646   1510513.54743  24104572.7344                   24104572.4804
 -21530416.28148 -16764647.60946  21283073.7034                   21283072.1994
   3810151.41846   2978386.25043  24365723.7504                   24365722.2034
 -20784242.77048 -16187874.27346  20792104.3444                   20792102.0314
 -16291894.77047 -12684669.64846  21356168.4144                   21356165.6374
 -12853861.22746 -10008204.07444  22771751.1804                   22771749.2424
 -20885116.52348 -16266648.46946  21154201.7114                   21154198.3244
 11  9 24  3  8  0.0000000  0  8G22G09G29G06G15G18G26G21
   -151280.17647   -109404.64544  23619019.5944                   23619016.2034
   1821567.37946   1428806.56644  24084619.1094                   24084618.2934
 -21470832.39148 -16718218.61346  21294412.1564                   21294410.6454
   3713749.77346   2903268.13743  24347378.9534                   24347377.1024
 -20760008.09848 -16168990.11346  20796716.3674                   20796713.8754
 -16331698.31248 -12715685.37146  21348594.4614                   21348591.5394
 -12773558.20346  -9945630.29744  22787031.4064                   22787030.2544
 -20956623.18448 -16322367.94146  21140594.3134                   21140591.1884
 11  9 24  3  8 30.0000000  0  8G22G09G29G06G15G18G26G21
   -230745.77347   -171325.81644  23603898.3674                   23603894.4064
   1716739.23046   1347122.33644  24064671.1334                   24064670.2034
 -21410853.72748 -16671481.99246  21305825.5784                   21305823.8324
   3617660.45745   2828393.41843  24329093.8054                   24329091.8244
 -20735250.27348 -16149698.30146  20801427.6094                   20801425.0904
 -16371319.54747 -12746559.04346  21341054.9534                   21341051.5044
 -12692875.87946  -9882760.98444  22802384.7344                   22802383.1644
 -21027958.77748 -16377954.10546  21127019.6094                   21127016.2854
 11  9 24  3  9  0.0000000  0  8G22G09G29G06G15G18G26G21
   -310055.55547   -233125.57044  23588805.6884                   23588801.9964
   1611946.50847   1265465.72344  24044729.8364                   24044729.4414
 -21350479.90648 -16624437.47746  21317314.2584                   21317312.6804
   3521888.67246   2753766.10943  24310868.7734                   24310867.0664
 -20709968.50848 -16129998.21946  20806238.6884                   20806235.6134
 -16410756.58648 -12777289.19946  21333550.2584                   21333546.7424
 -12611814.87146  -9819596.55944  22817809.9614                   22817808.9344
 -21099118.93748 -16433403.57846  21113478.5554                   21113475.0084
 11  9 24  3  9 30.0000000  0  8G22G09G29G06G15G18G26G21
   -389212.13747   -294805.94544  23573742.8754                   23573738.6954
   1507189.50847   1183836.96544  24024794.4534                   24024794.8794
 -21289716.03148 -16577089.01246  21328877.4694                   21328875.4384
   3426433.88746   2679385.82843  24292704.7274                   24292702.7544
 -20684167.24648 -16109893.33646  20811148.1954                   20811145.8954
 -16450012.51647 -12807878.22346  21326079.9384                   21326077.1954
 -12530381.19946  -9756141.75444  22833306.9144                   22833304.9304
 -21170104.29348 -16488716.82846  21099970.1334                   21099966.8524
 11  9 24  3 10  0.0000000  0  8G22G09G29G06G15G18G26G21
   -468215.52346   -356366.96544  23558708.6484                   23558704.2704
   1402471.68847   1102238.67644  24004867.7034                   24004867.4884
 -21228564.39848 -16529438.40646  21340514.1884                   21340512.5514
   3331298.59046   2605254.47343  24274601.2344                   24274599.1294
 -20657848.16048 -16089384.95746  20816156.5474                   20816154.4344
 -16489088.09447 -12838326.70746  21318644.1884                   21318641.0354
 -12448577.58646  -9692398.67244  22848873.4064                   22848871.7664
 -21240912.02348 -16543891.66846  21086496.0314                   21086492.5164
 11  9 24  3 10 30.0000000  0  8G22G09G29G06G15G18G26G21
   -547064.31246   -417807.52344  23543704.0004                   23543700.3554
   1297797.86747   1020674.66844  23984949.6644                   23984947.3364
 -21167025.75448 -16481486.22346  21352224.5634                   21352222.9024
   3236486.68446   2531375.12543  24256558.7194                   24256557.3914
 -20631011.34448 -16068473.13746  20821263.6414                   20821261.2504
 -16527982.41847 -12868633.96546  21311242.7814                   21311239.6024
 -12366405.79746  -9628368.73444  22864509.7114                   22864509.3094
 -21311539.27348 -16598925.87946  21073056.0634                   21073052.6174
 11  9 24  3 11  0.0000000  0  8G22G09G29G06G15G18G26G21
   -625758.55147   -479127.64844  23528729.2894                   23528725.0044
   1193171.61347    939147.75843  23965039.5474                   23965037.7424
 -21105102.67648 -16433234.49646  21364008.0394                   21364006.6844
   3142000.36346   2457749.47743  24238578.8054                   24238576.9654
 -20603658.71948 -16047159.40646  20826468.5084                   20826466.4804
 -16566695.97748 -12898800.35946  21303875.7424                   21303872.8134
 -12283869.03146  -9564054.37144  22880216.0234                   22880214.9574
 -21381983.81648 -16653817.72746  21059651.0004                   21059647.5234
 11  9 24  3 11 30.0000000  0  8G22G09G29G06G15G18G26G21
   -704299.29346   -540328.14844  23513783.3204                   23513779.3324
   1088595.64847    857660.04343  23945139.0784                   23945137.9104
 -21042798.32048 -16384685.66446  21375864.1094                   21375862.7854
   3047841.25046   2384378.75443  24220660.7814                   24220659.4264
 -20575792.77048 -16025445.67246  20831771.2814                   20831768.8094
 -16605230.28948 -12928827.08246  21296543.2424                   21296539.9454
 -12200971.32846  -9499458.76644  22895990.7974                   22895989.6054
 -21452244.26648 -16708566.10946  21046280.7584                   21046277.4104
 11  9 24  3 12  0.0000000  0  8G22G09G29G06G15G18G26G21
   -782686.13347   -601408.73844  23498867.2664                   23498862.1644
    984073.95347    776214.61344  23925249.3914                   23925248.4654
 -20980114.31648 -16335841.00046  21387793.2274                   21387791.1414
   2954012.09846   2311265.21143  24202805.4844                   24202804.1604
 -20547414.65648 -16003332.86346  20837171.6094                   20837169.1804
 -16643585.34847 -12958714.12946  21289244.3204                   21289240.8914
 -12117715.20746  -9434583.87144  22911834.3594                   22911833.1094
 -21522318.05948 -16763169.05946  21032946.3364                   21032942.8094
 11  9 24  3 12 30.0000000  0  8G22G09G29G06G15G18G26G21
   -860921.29347   -662371.15644  23483979.5084                   23483975.1174
    879607.72347    694812.38344  23905370.4614                   23905369.0664
 -20917055.00848 -16286703.88746  21399792.7344                   21399790.8674
   2860513.35246   2238409.10943  24185013.5634                   24185011.3054
 -20518528.42648 -15980824.10546  20842668.4774                   20842665.8054
 -16681763.74248 -12988463.51646  21281979.0474                   21281975.7974
 -12034105.95746  -9369433.82444  22927744.6644                   22927743.2934
 -21592204.57448 -16817626.07446  21019647.4844                   21019643.6604
 11  9 24  3 13  0.0000000  0  8G22G09G29G06G15G18G26G21
   -939005.86747   -723216.22744  23469119.7584                   23469115.1334
    775199.36747    613455.30143  23885502.0084                   23885500.6174
 -20853623.98448 -16237277.12946  21411863.0084                   21411861.1644
   2767346.18847   2165811.38343  24167284.7424                   24167281.3634
 -20489136.94548 -15957921.64846  20848261.6484                   20848259.0084
 -16719767.30148 -13018076.65246  21274747.2974                   21274744.0314
 -11950147.48046  -9304011.63344  22943721.2114                   22943719.9614
 -21661903.34048 -16871936.78946  21006383.8134                   21006380.4454
 11  9 24  3 13 30.0000000  0  8G22G09G29G06G15G18G26G21
  -1016938.06247   -783942.57044  23454289.7344                   23454285.6564
    670854.15646    532147.37943  23865646.0314                   23865643.7854
 -20789821.68048 -16187561.05546  21424004.1804                   21424002.4064
   2674514.86347   2093475.34843  24149618.6644                   24149616.9614
 -20459239.84848 -15934625.19946  20853950.5944                   20853948.2154
 -16757594.50448 -13047552.38346  21267548.9224                   21267545.6334
 -11865840.96146  -9238318.28944  22959764.5554                   22959762.8714
 -21731410.39148 -16926098.11346  20993157.2974                   20993153.8404
 11  9 24  3 14  0.0000000  0  8G22G09G29G06G15G18G26G21
  -1094717.69947   -844550.02744  23439489.5554                   23439484.9414
    566575.94946    450891.68043  23845801.3754                   23845801.0824
 -20725650.40248 -16137557.48046  21436215.2814                   21436214.1804
   2582021.74646   2021402.84844  24132017.4614                   24132016.8444
 -20428839.18048 -15910936.35546  20859735.5084                   20859733.3834
 -16795245.79747 -13076891.03546  21260384.1724                   21260380.7894
 -11781189.74646  -9172356.28944  22975873.1414                   22975871.8094
 -21800723.41848 -16980108.24646  20979967.2034                   20979964.0124
 11  9 24  3 14 30.0000000  0  8G22G09G29G06G15G18G26G21
  -1172345.46147   -905039.16444  23424716.8444                   23424713.1374
    462367.71546    369690.55543  23825972.0394                   23825970.8054
 -20661112.71948 -16087268.39146  21448496.8054                   21448494.8674
   2489868.97747   1949595.51244  24114481.9844                   24114479.8794
 -20397937.00048 -15886856.71946  20865615.8364                   20865613.6564
 -16832721.96947 -13106093.24246  21253252.6644                   21253249.8594
 -11696196.98447  -9106128.18444  22992046.6564                   22992046.1334
 -21869840.19548 -17033965.46546  20966814.8674                   20966811.3094
 11  9 24  3 15  0.0000000  0  8G22G09G29G06G15G18G26G21
  -1249821.02047   -965409.69144  23409974.2504                   23409970.1844
    358233.53146    288547.08644  23806155.3364                   23806154.2154
 -20596210.85248 -16036695.52046  21460847.1954                   21460845.4964
   2398059.14847   1878055.41844  24097011.4454                   24097010.0984
 -20366534.61748 -15862387.33246  20871591.5704                   20871589.5204
 -16870023.24647 -13135159.15646  21246154.5164                   21246151.4614
 -11610865.86347  -9039636.40644  23008284.4224                   23008283.1454
 -21938758.28147 -17087667.86346  20953700.0164                   20953696.8914
 11  9 24  3 15 30.0000000  0  8G22G09G29G06G15G18G26G21
  -1327145.89847  -1025662.80944  23395260.2194                   23395255.0164
    254175.48846    207462.91843  23786353.3054                   23786352.5314
 -20530948.57848 -15985841.80546  21473266.7114                   21473265.1764
   2306593.20747   1806783.31344  24079605.8134                   24079603.8754
 -20334635.24248 -15837530.67646  20877661.8444                   20877659.7854
 -16907152.04748 -13164090.68746  21239088.8834                   21239085.9774
 -11525200.36347  -8972884.07444  23024586.4064                   23024584.5234
 -22007477.15648 -17141215.02046  20940623.4454                   20940620.1374
 11  9 24  3 16  0.0000000  0  8G22G09G29G06G15G18G26G21
  -1404318.60547  -1085797.34044  23380574.0234                   23380569.3014
    150198.25447    126441.75844  23766568.3054                   23766565.7624
 -20465326.91448 -15934708.05146  21485753.6644                   21485751.9614
   2215474.81647   1735781.97744  24062266.5394                   24062264.3634
 -20302239.38748 -15812287.14846  20883826.9614                   20883824.3324
 -16944107.34448 -13192887.00446  21232056.6174                   21232053.5944
 -11439202.56647  -8905872.80543  23040951.3674                   23040949.1454
 -22075993.09048 -17194604.05146  20927585.1644                   20927582.0554
 11  9 24  3 16 30.0000000  0  8G22G09G29G06G15G18G26G21
  -1481339.90647  -1145813.91044  23365917.7034                   23365912.8054
     46305.08247     45486.09044  23746798.0004                   23746796.2504
 -20399348.35948 -15883296.19146  21498308.4304                   21498307.3754
   2124706.04347   1665053.11744  24044993.3444                   24044991.9734
 -20269349.39148 -15786658.57446  20890085.6334                   20890082.8094
 -16980889.75448 -13221548.60546  21225057.2974                   21225054.0664
 -11352875.47347  -8838604.94144  23057378.3284                   23057376.7734
 -22144304.08648 -17247833.38746  20914586.3364                   20914583.0904
 11  9 24  3 17  0.0000000  0  8G22G09G29G06G15G18G26G21
     17213.16047     21889.82844  23651082.4454                   23651077.9654
   1517923.46947   1192201.75444  24026836.6644                   24026836.8524
 -18757597.23448 -14604009.62546  21810723.3054                   21810722.1954
   3609712.57446   2822201.09443  24327580.7194                   24327579.2584
 -18660547.84848 -14533046.97746  21196230.2274                   21196228.1564
 -15442078.18448 -12022474.65646  21517883.0944                   21517880.4964
  -9690805.11347  -7543485.20344  23373660.0084                   23373658.3404
 -20636985.21548 -16073299.19146  21201419.2424                   21201415.4964
 11  9 24  3 17 30.0000000  0  8G22G09G29G06G15G18G26G21
    -59506.05547    -37891.35544  23636483.2584                   23636478.4774
   1414208.02747   1111384.52744  24007100.6484                   24007099.6644
 -18690913.34848 -14552048.16846  21823413.1804                   21823411.9654
   3519648.89146   2752021.64544  24310443.2274                   24310441.3554
 -18626676.36748 -14506653.62146  21202675.7734                   21202672.9104
 -15478517.39548 -12050868.82846  21510949.2274                   21510945.7734
  -9603830.35247  -7475712.67244  23390211.1954                   23390209.6454
 -20704880.78948 -16126204.82446  21188499.1884                   21188496.1214
 11  9 24  3 18  0.0000000  0  8G22G09G29G06G15G18G26G21
   -136075.27747    -97555.64544  23621912.0784                   23621908.0824
   1310586.21947   1030640.31644  23987381.8914                   23987380.7304
 -18623881.07848 -14499815.23446  21836169.0634                   21836167.2774
   3429940.48446   2682119.03544  24293371.3834                   24293370.0984
 -18592317.44948 -14479880.43046  21209213.7344                   21209211.3874
 -15514786.60248 -12079130.52746  21504047.4304                   21504044.1134
  -9516536.91046  -7407691.83243  23406821.2814                   23406820.3914
 -20772566.07848 -16178946.60246  21175618.9534                   21175615.4454
 11  9 24  3 18 30.0000000  0  8G22G09G29G06G15G18G26G21
   -212493.70747   -157102.42244  23607370.3984                   23607366.5784
   1207062.48447    949972.49644  23967682.5554                   23967681.1564
 -18556501.98448 -14447312.05946  21848990.9384                   21848989.6804
   3340590.54346   2612495.74643  24276368.0864                   24276367.0664
 -18557472.44148 -14452728.47346  21215844.9614                   21215842.5944
 -15550885.70347 -12107259.68446  21497177.9844                   21497175.0204
  -9428926.95346  -7339424.36343  23423493.5784                   23423491.9104
 -20840037.93048 -16231522.07046  21162779.5864                   21162776.0704
 11  9 24  3 19  0.0000000  0  8G22G09G29G06G15G18G26G21
   -288763.65647   -216533.52044  23592856.9694                   23592852.8984
   1103637.70747    869381.82444  23948001.1564                   23948000.0234
 -18488781.12548 -14394542.56646  21861877.6724                   21861875.9924
   3251598.94546   2543151.66443  24259433.1804                   24259432.9694
 -18522145.34448 -14425200.86346  21222567.4694                   21222564.8524
 -15586817.28148 -12135258.31646  21490340.6024                   21490337.2384
  -9341006.35946  -7270914.84843  23440224.1884                   23440223.8244
 -20907296.38348 -16283931.23846  21149980.8834                   21149977.2344
 11  9 24  3 19 30.0000000  0  8G22G09G29G06G15G18G26G21
   -364885.36347   -275849.10544  23578370.5634                   23578367.1414
   1000315.90247    788871.35244  23928339.3204                   23928338.0394
 -18420720.69148 -14341508.47346  21874829.2424                   21874827.5004
   3162968.16846   2474088.78143  24242567.2584                   24242566.2114
 -18486337.96548 -14397299.00446  21229381.1334                   21229378.9884
 -15622581.35947 -12163126.41046  21483534.7344                   21483531.1254
  -9252777.66846  -7202165.26644  23457013.0944                   23457013.4024
 -20974339.29748 -16336172.46546  21137223.1094                   21137219.6174
 11  9 24  3 20  0.0000000  0  8G22G09G29G06G15G18G26G21
   -440859.77047   -335049.91444  23563913.4774                   23563909.6804
    897099.56646    708443.09044  23908698.0004                   23908696.8324
 -18352324.01247 -14288212.37546  21887844.5474                   21887843.4614
   3074699.20746   2405307.82043  24225770.6954                   24225769.0864
 -18450053.38348 -14369025.30546  21236285.8524                   21236283.7774
 -15658180.05548 -12190865.64146  21476760.7584                   21476757.1684
  -9164245.29746  -7133179.05543  23473860.9614                   23473859.8834
 -21041165.16448 -16388244.56246  21124506.1644                   21124503.0984
 11  9 24  3 20 30.0000000  0  8G22G09G29G06G15G18G26G21
   -516685.60547   -394134.94944  23549484.3914                   23549480.4924
    793993.54347    628100.77044  23889077.4064                   23889076.6604
 -18283592.56247 -14234655.41046  21900924.0234                   21900922.1804
   2986796.07446   2336811.92643  24209043.3834                   24209042.1254
 -18413292.62148 -14340380.55546  21243281.3594                   21243279.3204
 -15693612.53547 -12218475.35946  21470017.8284                   21470014.8524
  -9075410.87146  -7063957.45343  23490765.6484                   23490764.6604
 -21107770.75848 -16440145.01646  21111831.5784                   21111827.9264
 11  9 24  3 21  0.0000000  0  8G22G09G29G06G15G18G26G21
   -592363.20347   -453104.48844  23535083.8834                   23535079.3324
    691001.68447    547847.41044  23869479.0314                   23869478.2114
 -18214528.43447 -14180839.22346  21914066.3284                   21914064.8324
   2899260.77047   2268602.63343  24192386.4224                   24192384.5084
 -18376057.37948 -14311366.08246  21250366.8984                   21250364.4734
 -15728879.12148 -12245955.80946  21463307.0394                   21463303.4734
  -8986277.16846  -6994502.65643  23507727.0234                   23507725.6914
 -21174153.62548 -16491871.92246  21099199.1884                   21099195.7504
 11  9 24  3 21 30.0000000  0  8G22G09G29G06G15G18G26G21
   -667893.46547   -511959.19944  23520710.7504                   23520706.4104
    588126.49247    467684.94544  23849902.3364                   23849901.7934
 -18145135.09847 -14126766.50446  21927271.4224                   21927270.0634
   2812094.69546   2200681.02744  24175798.7974                   24175798.2384
 -18338350.09848 -14281983.78146  21257542.5864                   21257540.1524
 -15763981.36747 -12273308.19146  21456627.2974                   21456623.7704
  -8896848.53547  -6924818.01643  23524745.0474                   23524743.8164
 -21240311.96947 -16543423.87146  21086609.8914                   21086606.5904
